[[{"header":{"parameterUnit":"m.s-1","parameterCategory":1,"la1":30.6,"la2":29.2853,"lo1":-89.7004,"lo2":-87.6739,"dy":0.0162,"dx":0.0183,"nx":112,"ny":82,"refTime":"2024-05-16T06:00:00:Z","depth":0,"parameterNumber":2,"parameterNumberName":"U-component_of_WINDS"},"data":[0.0,0.0,0.0,0.0,0.0,0.0,0.0,0.0,0.0,0.0,0.0,0.0,0.0,0.0,0.0,0.0,0.0,0.0,0.0,0.0,0.0,0.0,0.0,0.0,0.0,0.0,0.0,0.0,0.0,0.0,0.0,0.0,0.0,0.0,0.0,0.0,0.0,0.0,0.0,0.0,0.0,0.0,0.0,0.0,0.0,0.0,0.0,0.0,0.0,0.0,0.0,0.0,0.0,0.0,0.0,0.0,0.0,0.0,0.0,0.0,0.0,0.0,0.0,0.0,0.0,0.0,0.0,0.0,0.0,0.0,0.0,0.0,0.0,0.0,0.0,0.0,0.0,0.0,0.0,0.0,0.0,0.0,0.0,0.0,0.0,0.0,0.0,0.0,0.0,0.0,-5.4318,-6.105,-6.7244,-7.0629,-6.9937,-6.8744,-6.4936,-5.7676,0.0,0.0,0.0,0.0,0.0,0.0,0.0,0.0,0.0,0.0,0.0,0.0,0.0,0.0,0.0,0.0,0.0,0.0,0.0,0.0,0.0,0.0,0.0,0.0,0.0,0.0,0.0,0.0,0.0,0.0,0.0,0.0,0.0,0.0,0.0,0.0,0.0,0.0,0.0,0.0,0.0,0.0,0.0,0.0,0.0,0.0,0.0,0.0,0.0,0.0,0.0,0.0,0.0,0.0,0.0,0.0,0.0,0.0,0.0,0.0,0.0,0.0,0.0,0.0,0.0,0.0,0.0,0.0,0.0,0.0,0.0,0.0,0.0,0.0,0.0,0.0,0.0,0.0,0.0,0.0,0.0,0.0,0.0,0.0,0.0,0.0,0.0,0.0,0.0,0.0,0.0,0.0,0.0,0.0,0.0,0.0,0.0,0.0,0.0,0.0,0.0,0.0,0.0,0.0,-5.478,-6.5051,-6.9013,-7.086,-7.0744,-6.7975,-6.3935,-5.8434,0.0,0.0,0.0,0.0,0.0,0.0,0.0,0.0,0.0,0.0,0.0,0.0,0.0,0.0,0.0,0.0,0.0,0.0,0.0,0.0,0.0,0.0,0.0,0.0,0.0,0.0,0.0,0.0,0.0,0.0,0.0,0.0,0.0,0.0,0.0,0.0,0.0,0.0,0.0,0.0,0.0,0.0,0.0,0.0,0.0,0.0,0.0,0.0,0.0,0.0,0.0,0.0,0.0,0.0,0.0,0.0,0.0,0.0,0.0,0.0,0.0,0.0,0.0,0.0,0.0,0.0,0.0,0.0,0.0,0.0,0.0,0.0,0.0,0.0,0.0,0.0,0.0,0.0,0.0,0.0,0.0,0.0,0.0,0.0,0.0,0.0,0.0,0.0,0.0,0.0,0.0,0.0,0.0,0.0,0.0,0.0,0.0,0.0,0.0,0.0,0.0,0.0,0.0,-5.4664,-5.9319,-6.7628,-6.9937,-7.0706,-7.0283,-6.759,-6.3512,-5.7934,-5.351,0.0,0.0,0.0,0.0,0.0,0.0,0.0,0.0,0.0,0.0,0.0,0.0,0.0,0.0,0.0,0.0,0.0,0.0,0.0,0.0,0.0,0.0,0.0,0.0,0.0,0.0,0.0,0.0,0.0,0.0,0.0,0.0,0.0,0.0,0.0,0.0,0.0,0.0,0.0,0.0,0.0,0.0,0.0,0.0,0.0,0.0,0.0,0.0,0.0,0.0,0.0,0.0,0.0,0.0,0.0,0.0,0.0,0.0,0.0,0.0,0.0,0.0,0.0,0.0,0.0,0.0,0.0,0.0,0.0,0.0,0.0,0.0,0.0,0.0,0.0,0.0,0.0,0.0,0.0,0.0,0.0,0.0,0.0,0.0,0.0,0.0,0.0,0.0,0.0,0.0,0.0,0.0,0.0,0.0,0.0,0.0,0.0,0.0,0.0,0.0,0.0,0.0,-6.0589,-6.3974,-6.9167,-7.0437,-7.0552,-6.9783,-6.6821,-6.2716,-5.733,-5.1471,0.0,0.0,0.0,0.0,0.0,0.0,0.0,0.0,0.0,0.0,0.0,0.0,0.0,0.0,0.0,0.0,0.0,0.0,0.0,0.0,0.0,0.0,0.0,0.0,0.0,0.0,0.0,0.0,0.0,0.0,0.0,0.0,0.0,0.0,0.0,0.0,0.0,0.0,0.0,0.0,0.0,0.0,0.0,0.0,0.0,0.0,0.0,0.0,0.0,0.0,0.0,0.0,0.0,0.0,0.0,0.0,0.0,0.0,0.0,0.0,0.0,0.0,0.0,0.0,0.0,0.0,0.0,0.0,0.0,0.0,0.0,0.0,0.0,0.0,0.0,0.0,0.0,0.0,0.0,0.0,0.0,0.0,0.0,0.0,0.0,0.0,0.0,0.0,0.0,0.0,0.0,0.0,0.0,0.0,0.0,0.0,0.0,0.0,0.0,0.0,0.0,0.0,-6.155,-6.659,-6.9398,-7.0437,-7.0552,-6.9783,-6.5166,-6.0831,-5.7214,-4.924,0.0,0.0,0.0,0.0,0.0,0.0,0.0,0.0,0.0,0.0,0.0,0.0,0.0,0.0,0.0,0.0,0.0,0.0,0.0,0.0,0.0,0.0,0.0,0.0,0.0,0.0,0.0,0.0,0.0,0.0,0.0,0.0,0.0,0.0,0.0,0.0,0.0,0.0,0.0,0.0,0.0,0.0,0.0,0.0,0.0,0.0,0.0,0.0,0.0,0.0,0.0,0.0,0.0,0.0,0.0,0.0,0.0,0.0,0.0,0.0,0.0,0.0,0.0,0.0,0.0,0.0,0.0,0.0,0.0,0.0,0.0,0.0,0.0,0.0,0.0,0.0,0.0,0.0,0.0,0.0,0.0,0.0,0.0,0.0,0.0,0.0,0.0,0.0,0.0,0.0,0.0,0.0,0.0,0.0,0.0,0.0,0.0,0.0,0.0,0.0,0.0,0.0,-6.0639,-6.532,0.0,-7.0706,-7.036,-6.9013,-6.6167,-6.1897,-5.5818,0.0,0.0,0.0,0.0,0.0,0.0,0.0,0.0,0.0,0.0,0.0,0.0,0.0,0.0,0.0,0.0,0.0,0.0,0.0,0.0,0.0,0.0,0.0,0.0,0.0,0.0,0.0,0.0,0.0,0.0,0.0,0.0,0.0,0.0,0.0,0.0,0.0,0.0,0.0,0.0,0.0,0.0,0.0,0.0,0.0,0.0,0.0,0.0,0.0,0.0,0.0,0.0,0.0,0.0,0.0,0.0,0.0,0.0,0.0,0.0,0.0,0.0,0.0,0.0,0.0,0.0,0.0,0.0,0.0,0.0,0.0,0.0,0.0,0.0,0.0,0.0,0.0,0.0,0.0,0.0,0.0,0.0,0.0,0.0,0.0,0.0,0.0,0.0,0.0,0.0,0.0,0.0,0.0,0.0,0.0,0.0,0.0,0.0,0.0,0.0,0.0,0.0,-5.6357,-6.0858,-6.5243,0.0,-7.0898,-7.0206,-6.8552,-6.6128,-6.1781,-5.4934,0.0,0.0,0.0,0.0,0.0,0.0,0.0,0.0,0.0,0.0,0.0,0.0,0.0,0.0,0.0,0.0,0.0,0.0,0.0,0.0,0.0,0.0,0.0,0.0,0.0,0.0,0.0,0.0,0.0,0.0,0.0,0.0,0.0,0.0,0.0,0.0,0.0,0.0,0.0,0.0,0.0,0.0,0.0,0.0,0.0,0.0,0.0,0.0,0.0,0.0,0.0,0.0,0.0,0.0,0.0,0.0,0.0,0.0,0.0,0.0,0.0,0.0,0.0,0.0,0.0,0.0,0.0,0.0,0.0,0.0,0.0,0.0,0.0,0.0,0.0,0.0,0.0,0.0,0.0,0.0,0.0,0.0,0.0,0.0,0.0,0.0,0.0,0.0,0.0,0.0,0.0,0.0,0.0,0.0,0.0,0.0,0.0,0.0,0.0,0.0,0.0,0.0,-5.7319,-6.2743,-6.7167,-7.0514,-7.0898,-7.0206,-6.8552,-6.4551,-5.9946,0.0,0.0,0.0,0.0,0.0,0.0,0.0,0.0,0.0,0.0,0.0,0.0,0.0,0.0,0.0,0.0,0.0,0.0,0.0,0.0,0.0,0.0,0.0,0.0,0.0,0.0,0.0,0.0,0.0,0.0,0.0,0.0,0.0,0.0,0.0,0.0,0.0,0.0,0.0,0.0,0.0,0.0,0.0,0.0,0.0,0.0,0.0,0.0,0.0,0.0,0.0,0.0,0.0,0.0,0.0,0.0,0.0,0.0,0.0,0.0,0.0,0.0,0.0,0.0,0.0,0.0,0.0,0.0,0.0,0.0,0.0,0.0,0.0,0.0,0.0,0.0,0.0,0.0,0.0,0.0,0.0,0.0,0.0,0.0,0.0,0.0,0.0,0.0,0.0,0.0,0.0,0.0,0.0,0.0,0.0,0.0,0.0,0.0,0.0,0.0,0.0,0.0,0.0,-5.6462,-6.2358,-6.6974,-6.9744,-7.0052,-6.959,-6.8513,-6.5051,-6.0281,-5.3972,0.0,0.0,0.0,0.0,0.0,0.0,0.0,0.0,0.0,0.0,0.0,0.0,0.0,0.0,0.0,0.0,0.0,0.0,0.0,0.0,0.0,0.0,0.0,0.0,0.0,0.0,0.0,0.0,0.0,0.0,0.0,0.0,0.0,0.0,0.0,0.0,0.0,0.0,0.0,0.0,0.0,0.0,0.0,0.0,0.0,0.0,0.0,0.0,0.0,0.0,0.0,0.0,0.0,0.0,0.0,0.0,0.0,0.0,0.0,0.0,0.0,0.0,0.0,0.0,0.0,0.0,0.0,0.0,0.0,0.0,0.0,0.0,0.0,0.0,0.0,0.0,0.0,0.0,0.0,0.0,0.0,0.0,0.0,0.0,0.0,0.0,0.0,0.0,0.0,0.0,0.0,0.0,0.0,0.0,0.0,0.0,0.0,0.0,0.0,0.0,0.0,0.0,-5.6088,-6.1897,-6.6359,-6.8898,-6.9167,-6.8821,-6.7975,-6.5397,-6.0935,-5.4164,0.0,0.0,0.0,0.0,0.0,0.0,0.0,0.0,0.0,0.0,0.0,0.0,0.0,0.0,0.0,0.0,0.0,0.0,0.0,0.0,0.0,0.0,0.0,0.0,0.0,0.0,0.0,0.0,0.0,0.0,0.0,0.0,0.0,0.0,0.0,0.0,0.0,0.0,0.0,0.0,0.0,0.0,0.0,0.0,0.0,0.0,0.0,0.0,0.0,0.0,0.0,0.0,0.0,0.0,0.0,0.0,0.0,0.0,0.0,0.0,0.0,0.0,0.0,0.0,0.0,0.0,0.0,0.0,0.0,0.0,0.0,0.0,0.0,0.0,0.0,0.0,0.0,0.0,0.0,0.0,0.0,0.0,0.0,0.0,0.0,0.0,0.0,0.0,0.0,0.0,0.0,0.0,0.0,0.0,0.0,0.0,0.0,0.0,0.0,0.0,0.0,0.0,-5.5906,-6.1396,-6.5551,-6.8013,-6.8282,-6.7975,-6.7167,-6.5436,-6.1627,-5.5126,0.0,0.0,0.0,0.0,0.0,0.0,0.0,0.0,0.0,0.0,0.0,0.0,0.0,0.0,0.0,0.0,0.0,0.0,0.0,0.0,0.0,0.0,0.0,0.0,0.0,0.0,0.0,0.0,0.0,0.0,0.0,0.0,0.0,0.0,0.0,0.0,0.0,0.0,0.0,0.0,0.0,0.0,0.0,0.0,0.0,0.0,0.0,0.0,0.0,0.0,0.0,0.0,0.0,0.0,0.0,0.0,0.0,0.0,0.0,0.0,-4.7471,0.0,0.0,0.0,0.0,0.0,0.0,0.0,0.0,0.0,0.0,0.0,0.0,0.0,0.0,0.0,0.0,0.0,0.0,0.0,0.0,0.0,0.0,0.0,0.0,0.0,0.0,0.0,0.0,0.0,0.0,0.0,0.0,0.0,0.0,0.0,0.0,0.0,0.0,0.0,0.0,0.0,-5.5164,-6.1012,-6.532,-6.7167,-6.7359,-6.7282,-6.7128,-6.4371,-6.0858,-5.6731,-5.1048,0.0,0.0,0.0,0.0,0.0,0.0,0.0,0.0,0.0,0.0,0.0,0.0,0.0,0.0,0.0,0.0,0.0,0.0,0.0,0.0,0.0,0.0,0.0,0.0,0.0,0.0,0.0,0.0,0.0,0.0,0.0,0.0,0.0,0.0,0.0,0.0,0.0,0.0,0.0,0.0,0.0,0.0,0.0,0.0,0.0,0.0,0.0,0.0,0.0,0.0,0.0,0.0,0.0,0.0,0.0,0.0,0.0,0.0,0.0,0.0,-5.0356,0.0,0.0,0.0,0.0,0.0,0.0,0.0,0.0,0.0,0.0,0.0,0.0,0.0,0.0,0.0,0.0,0.0,0.0,0.0,0.0,0.0,0.0,0.0,0.0,0.0,0.0,0.0,0.0,0.0,0.0,0.0,0.0,0.0,0.0,0.0,0.0,0.0,0.0,0.0,0.0,-5.4972,-6.055,-6.4628,-6.632,-6.6513,-6.6513,-6.6513,-6.4166,-6.1396,-5.8396,-5.3395,0.0,0.0,0.0,0.0,0.0,0.0,0.0,0.0,0.0,0.0,0.0,0.0,0.0,0.0,0.0,0.0,0.0,0.0,0.0,0.0,0.0,0.0,0.0,0.0,0.0,0.0,0.0,0.0,0.0,0.0,0.0,0.0,0.0,0.0,0.0,0.0,0.0,0.0,0.0,0.0,0.0,0.0,0.0,0.0,0.0,0.0,0.0,0.0,0.0,0.0,0.0,0.0,0.0,-5.7973,-5.9204,-6.0089,-6.0742,-6.1512,-6.2127,-5.7896,-5.6588,-5.7099,-5.2895,0.0,0.0,0.0,0.0,0.0,0.0,0.0,0.0,0.0,0.0,0.0,0.0,0.0,0.0,0.0,0.0,0.0,0.0,0.0,0.0,0.0,0.0,0.0,0.0,-5.7434,-5.7203,0.0,0.0,0.0,0.0,0.0,0.0,0.0,0.0,0.0,0.0,0.0,0.0,-5.5511,-6.0358,-6.3974,-6.5705,-6.5897,-6.582,-6.5705,-6.4205,-6.2281,-5.9896,-5.6049,-5.2087,0.0,0.0,0.0,0.0,0.0,0.0,0.0,0.0,0.0,0.0,0.0,0.0,0.0,0.0,0.0,0.0,0.0,0.0,0.0,0.0,0.0,0.0,0.0,0.0,0.0,0.0,0.0,0.0,0.0,0.0,0.0,0.0,-3.9815,-4.1162,0.0,0.0,0.0,0.0,0.0,0.0,0.0,0.0,0.0,0.0,0.0,0.0,0.0,-5.4934,-5.728,-5.9704,-6.1704,-6.3281,-6.4974,-6.6244,-6.709,-6.7167,-6.7705,-6.8475,-6.7821,0.0,-5.9127,-5.8434,0.0,0.0,0.0,0.0,0.0,0.0,0.0,0.0,0.0,0.0,0.0,0.0,0.0,0.0,0.0,0.0,0.0,0.0,0.0,0.0,0.0,0.0,-6.0947,-6.1062,-6.137,-6.1139,0.0,-5.4241,-4.9211,-4.6432,-4.4124,0.0,0.0,0.0,0.0,0.0,0.0,0.0,-5.7319,-6.1089,-6.3974,-6.5705,-6.5897,-6.559,-6.4859,-6.3858,-6.2551,-6.0742,-5.805,-5.5269,-5.2472,-4.8548,0.0,0.0,0.0,0.0,0.0,0.0,0.0,0.0,0.0,0.0,0.0,0.0,0.0,0.0,0.0,0.0,0.0,0.0,0.0,0.0,0.0,0.0,0.0,0.0,0.0,0.0,0.0,0.0,0.0,-3.97,-4.3517,-4.3893,-4.4355,-4.397,0.0,0.0,0.0,0.0,0.0,0.0,0.0,0.0,0.0,-5.8781,-5.9704,-6.1396,-6.3974,-6.5551,-6.6974,-6.8167,-6.936,-7.0437,-7.1269,-7.1269,-7.1475,-7.186,-7.186,-6.986,-6.6436,-6.3551,-6.0512,-5.7396,0.0,0.0,0.0,0.0,-5.478,-5.4818,-5.755,-5.7896,0.0,-5.5434,0.0,0.0,0.0,0.0,0.0,0.0,0.0,0.0,0.0,0.0,0.0,-6.3281,-6.3858,-6.4012,-6.3128,-6.0204,-5.6472,0.0,-5.0279,-4.8202,-4.4094,0.0,0.0,0.0,0.0,-5.4318,-5.8434,-6.1512,-6.3974,-6.5705,-6.5474,-6.5013,-6.4628,-6.3397,-6.232,-6.1601,-5.955,-5.7703,-5.6126,-5.2433,-4.8432,0.0,0.0,0.0,0.0,0.0,0.0,0.0,0.0,0.0,0.0,0.0,0.0,0.0,0.0,0.0,0.0,0.0,0.0,0.0,0.0,0.0,0.0,0.0,0.0,0.0,0.0,0.0,0.0,-4.3547,-4.6826,-4.6595,-4.7932,-4.7778,0.0,0.0,0.0,0.0,0.0,0.0,-5.6665,-5.8973,-6.1704,-6.4859,-6.5782,-6.7359,-6.9692,-7.0552,-7.1514,-7.2552,-7.3168,-7.3937,-7.4784,-7.4784,-7.4784,-7.4784,-7.4553,-7.4091,-7.3129,-6.8244,-6.5205,-6.3397,-6.0446,-5.8742,-5.8204,-6.0127,-6.0435,-6.0396,-6.3743,-6.4128,-6.2781,-6.1089,0.0,-5.6665,-5.3087,0.0,0.0,0.0,0.0,-5.7627,-6.0435,-6.2089,-6.3447,-6.4897,-6.5743,-6.5974,-6.5128,-6.4243,-6.2204,0.0,-5.5934,-5.3972,-4.9327,0.0,0.0,0.0,0.0,-5.6357,-5.9742,-6.2012,-6.3897,-6.5397,-6.4974,-6.4436,-6.4012,-6.2832,-6.1985,-6.1793,-6.055,-5.9473,-5.8627,-5.5742,-5.2279,-4.8269,0.0,0.0,0.0,0.0,0.0,0.0,0.0,0.0,0.0,0.0,0.0,0.0,0.0,0.0,0.0,0.0,0.0,0.0,0.0,0.0,0.0,0.0,0.0,0.0,0.0,0.0,0.0,0.0,0.0,-4.9317,-5.2125,0.0,0.0,0.0,0.0,-5.3972,-5.7203,-6.0204,-6.2731,-6.4551,-6.6705,-6.9283,-7.0167,-7.1437,-7.3245,-7.4053,-7.5284,-7.6976,-7.7015,-7.7476,-7.8246,-7.8246,-7.8246,-7.8207,-7.7438,-7.7092,-7.6707,-7.236,-6.959,-6.7898,-6.6128,-6.4936,-6.4166,-6.432,-6.432,-6.4436,-6.5474,-6.5782,-6.582,-6.6436,-6.4436,-6.1447,-5.955,-5.7896,0.0,0.0,-5.9858,-6.132,-6.4705,-6.5628,-6.5897,-6.6782,-6.7013,-6.6821,-6.6013,-6.5166,-6.3974,0.0,-5.9742,-5.7742,-5.6637,0.0,-5.4434,-5.5164,-5.6175,-5.8099,-6.1524,-6.2743,-6.3666,-6.4589,-6.4628,-6.3974,-6.237,-6.2139,-6.1755,-6.0935,-6.0781,-6.0358,-5.9473,-5.7742,-5.5164,-5.1731,-4.7471,0.0,0.0,0.0,0.0,0.0,0.0,0.0,0.0,0.0,0.0,0.0,0.0,0.0,0.0,0.0,0.0,0.0,0.0,0.0,0.0,0.0,0.0,0.0,0.0,0.0,0.0,0.0,0.0,-5.3433,-5.5972,0.0,-5.3741,-5.5742,-5.7857,-5.9281,-6.2512,-6.5513,-6.8052,-6.9321,-7.1129,-7.3668,-7.4014,-7.5014,-7.6707,-7.7015,-7.7438,-7.8054,-7.8054,-7.8207,-7.8477,-7.8477,-7.8477,-7.8477,-7.8207,-7.7784,-7.7169,-7.563,-7.3707,-7.1591,-7.0398,-6.9436,-6.8706,-6.9283,-6.9475,-6.9552,-6.986,-6.959,-6.8898,-6.7552,-6.5936,-6.4436,-6.382,-6.3205,-6.2974,-6.4089,-6.4589,-6.5243,-6.7051,-6.7513,-6.759,-6.7859,-6.7513,-6.7013,-6.6744,-6.6013,-6.5243,-6.4666,-6.2897,-6.0742,-5.8242,-5.8242,-5.8088,-5.6742,-5.7703,-5.9627,-6.2512,-6.2666,-6.3051,-6.4436,-6.3628,-6.2743,-6.2139,-6.1601,-6.0896,-6.0012,-5.9973,-5.9588,-5.8781,-5.7627,-5.5665,-5.2769,-4.9663,-4.4855,0.0,0.0,0.0,0.0,0.0,0.0,0.0,0.0,0.0,0.0,0.0,0.0,0.0,0.0,0.0,0.0,0.0,0.0,0.0,0.0,0.0,0.0,0.0,0.0,0.0,0.0,-5.5972,-5.6511,-5.9319,-6.0358,-5.8088,-6.0666,-6.3089,-6.4551,-6.7244,-6.9937,-7.2476,-7.3168,-7.4514,-7.6784,-7.6823,-7.7515,-7.89,-7.8938,-7.9092,-7.9361,-7.9361,-7.9361,-7.9361,-7.9361,-7.9361,-7.9361,-7.9054,-7.8631,-7.8092,-7.7515,-7.6322,-7.4668,-7.3514,-7.2706,-7.2206,-7.2514,-7.2629,-7.2591,-7.2283,-7.1822,-7.0975,-6.8706,-6.7628,-6.7128,-6.6821,-6.6744,-6.6859,-6.7398,-6.7552,-6.7744,-6.8629,-6.8859,-6.8859,-6.8859,-6.8398,-6.7821,-6.7205,-6.6667,-6.6205,-6.5936,-6.4743,-6.3051,-6.0819,-6.1089,-6.1089,-5.9385,-6.0089,-6.1396,-6.3077,-6.282,-6.282,-6.3666,-6.2755,-6.1985,-6.1678,-6.0858,-6.0127,-5.955,-5.8973,-5.8434,-5.7896,-5.6472,-5.478,-5.2818,-4.9433,-4.547,-4.0977,0.0,0.0,0.0,0.0,0.0,0.0,0.0,0.0,0.0,0.0,0.0,0.0,0.0,0.0,0.0,0.0,0.0,0.0,0.0,0.0,0.0,0.0,0.0,-5.0827,-5.5241,-5.8434,-5.855,-6.2204,-6.4128,-6.2486,-6.609,-6.8898,-6.9744,-7.136,-7.3399,-7.5899,-7.6053,-7.6823,-7.8477,-7.8515,-7.8938,-7.9823,-7.9862,-8.0246,-8.1093,-8.1093,-8.1093,-8.1093,-8.1093,-8.1093,-8.1054,-8.0208,-7.9823,-7.9669,-7.8054,-7.7361,-7.713,-7.5399,-7.4745,-7.4668,-7.386,-7.3553,-7.3437,-7.2552,-7.2245,-7.1937,-7.0321,-6.9744,-6.959,-6.8744,-6.8475,-6.8475,-6.8475,-6.8475,-6.8667,-6.9513,-6.9744,-6.9744,-6.9744,-6.9706,-6.9244,-6.7513,-6.7128,-6.6859,-6.6051,-6.5205,-6.4628,-6.4589,-6.3897,-6.332,-6.3308,-6.3308,0.0,-6.3346,-6.3269,-6.2974,-6.2216,-6.2101,-6.1716,-6.0858,-6.0012,-5.9473,-5.9435,-5.7857,-5.6945,-5.6907,-5.4549,-5.2818,-5.1962,-4.7009,-4.4432,-4.4393,0.0,0.0,0.0,0.0,0.0,0.0,0.0,0.0,0.0,0.0,0.0,0.0,0.0,0.0,0.0,0.0,0.0,0.0,0.0,0.0,0.0,0.0,-5.5203,-5.6088,-5.9011,-6.1743,-6.3589,-6.6474,-6.8129,-6.7667,-6.9744,-7.1514,-7.2399,-7.4014,-7.5553,-7.6861,-7.7476,-7.8323,-7.94,-7.9438,-7.9862,-8.0746,-8.0746,-8.0862,-8.1093,-8.1093,-8.1093,-8.1093,-8.1093,-8.1093,-8.1093,-8.0862,-8.04,-7.9746,-7.9285,-7.84,-7.7169,-7.6092,-7.563,-7.563,-7.5399,-7.4899,-7.4361,-7.4091,-7.3206,-7.2129,-7.1668,-7.1091,-7.0514,-7.0283,-7.0206,-7.0206,-7.0206,-7.0206,-7.0283,-7.0514,-7.0552,-7.0552,-7.0552,-7.0129,-6.9398,-6.8282,-6.7552,-6.6859,-6.6051,-6.5705,-6.532,-6.4705,-6.4397,-6.4051,-6.3397,-6.3308,0.0,-6.4166,-6.3166,-6.2551,-6.2935,-6.1897,-6.105,-6.0819,-6.0012,-5.8973,-5.7753,-5.6665,-5.578,-5.5203,-5.4511,-5.3741,-5.2856,-4.9663,-4.7394,0.0,0.0,0.0,0.0,0.0,0.0,0.0,0.0,0.0,0.0,0.0,0.0,0.0,0.0,0.0,0.0,0.0,0.0,0.0,0.0,0.0,0.0,-5.5318,-5.8858,-6.1166,-6.2743,-6.4359,-6.6167,-6.8667,-7.036,-7.0706,-7.2245,-7.3476,-7.3976,-7.5592,-7.6899,-7.7746,-7.8592,-7.9438,-8.0323,-8.0323,-8.0592,-8.1093,-8.1093,-8.1093,-8.1093,-8.1093,-8.1093,-8.1093,-8.1093,-8.1093,-8.1093,-8.1093,-8.0823,-8.0323,-7.9939,-7.9015,0.0,0.0,0.0,0.0,0.0,-7.5668,-7.5207,-7.4822,-7.386,-7.2668,-7.2322,-7.1591,-7.0898,-7.0898,-7.0898,-7.0898,-7.0898,-7.0898,-7.0898,-7.0898,-7.0898,-7.0898,-7.0898,-7.0552,-6.986,-6.8667,-6.8013,-6.7282,-6.6128,-6.5897,0.0,-6.5243,-6.5128,-6.4974,-6.4474,-6.4397,-6.4436,-6.4589,-6.3435,-6.2666,-6.2781,-6.1589,-6.0781,-6.0781,-6.0012,0.0,0.0,0.0,-5.5011,-5.3472,-5.3395,0.0,0.0,0.0,0.0,0.0,0.0,0.0,0.0,-4.8933,-4.8894,0.0,0.0,0.0,0.0,0.0,0.0,0.0,0.0,0.0,0.0,0.0,0.0,0.0,0.0,0.0,0.0,-5.8704,-6.132,-6.532,-6.6051,-6.6513,-6.7398,-6.9706,-7.1514,-7.2399,-7.3937,-7.4899,-7.4976,-7.6515,-7.7784,-7.8592,0.0,0.0,0.0,0.0,-8.1093,-8.1093,-8.1093,-8.1093,-8.1093,-8.1093,-8.1093,-8.1093,-8.1093,-8.1093,-8.1093,-8.1093,-8.1093,-8.1054,-8.0285,-7.9361,-7.84,-7.7515,-7.6669,-7.6015,-7.6015,-7.6015,-7.5899,-7.513,0.0,0.0,-7.2629,-7.1745,-7.1014,-7.0937,-7.0898,-7.0898,-7.0898,-7.0898,-7.0898,-7.0898,-7.0898,-7.0898,-7.0898,-7.0898,-7.0437,-6.8783,-6.8385,-6.7898,-6.6244,-6.5897,-6.5897,-6.5897,-6.5897,-6.5897,-6.5897,-6.5897,-6.5628,-6.4859,-6.4012,-6.3128,-6.2332,0.0,0.0,-6.0819,-6.0012,-5.9165,-5.8357,-5.6742,-5.4818,-5.2577,-5.2577,-5.2923,-5.3626,-5.3741,-5.4857,-5.6983,-5.7099,-5.7176,-5.7176,-5.2549,-5.1972,0.0,0.0,0.0,0.0,0.0,0.0,0.0,0.0,0.0,0.0,0.0,0.0,0.0,0.0,0.0,-5.7627,-6.0589,-6.3358,-6.559,-6.7051,-6.8475,-6.9975,-7.186,-7.3322,-7.413,-7.5168,-7.6053,-7.6746,-7.7707,-7.8631,-7.9515,-8.04,-8.0939,-8.1093,-8.1093,-8.1093,-8.1093,-8.1093,-8.1093,-8.1093,0.0,0.0,-8.1093,-8.1093,-8.1093,-8.1093,-8.1093,-8.1093,-8.1093,-8.0939,-7.99,-7.8361,-7.6823,-7.613,-7.6015,-7.6015,-7.6015,-7.5976,-7.5822,-7.5207,-7.4322,-7.3514,-7.2668,-7.1822,-7.1091,-7.0898,0.0,-7.0898,-7.0898,-7.0898,-7.0898,-7.0898,-7.0898,-7.0898,-7.0898,-7.0437,-6.8783,-6.8385,-6.7898,-6.6244,-6.5897,-6.5897,-6.5897,-6.5897,-6.5897,-6.5897,-6.5897,-6.582,-6.5667,-6.4897,-6.4012,-6.3166,-6.232,-6.1562,-6.0858,-6.0012,-5.9165,-5.8357,-5.7308,-5.6549,-5.6011,-5.6703,-5.6819,-5.6291,-5.6973,-5.7203,-5.6983,-5.7703,-5.8396,-5.8973,-5.7357,-5.6549,0.0,0.0,0.0,0.0,0.0,0.0,0.0,0.0,0.0,0.0,0.0,-4.9586,0.0,0.0,-5.7857,-6.0396,-6.2935,-6.5205,-6.6898,-6.8244,-6.9513,-7.0744,-7.2437,-7.3822,-7.463,-7.5476,-7.6361,-7.7207,-7.8054,-7.8861,-7.9746,-8.0631,-8.1093,-8.1093,-8.1093,-8.1093,-8.1093,-8.1093,-8.1093,-8.1093,-8.1093,-8.1093,-8.1093,-8.1093,-8.1093,-8.1093,-8.1093,-8.1093,-8.1016,-8.0169,-7.9285,-7.8323,-7.663,-7.6015,-7.6015,-7.6015,-7.6015,-7.6015,-7.6015,-7.5438,-7.463,-7.4245,-7.3245,-7.2129,-7.1668,-7.1245,-7.0898,-7.0898,-7.0898,-7.0898,-7.0898,-7.0898,-7.0898,-7.0898,-7.0898,-7.0552,-6.9321,-6.8706,-6.8013,-6.6744,-6.6167,-6.5897,-6.5897,-6.5897,-6.5897,-6.5897,-6.5897,-6.5897,-6.5897,-6.5128,-6.4282,-6.3397,-6.2589,-6.1755,-6.0858,-6.0012,-5.9319,-5.8934,-5.8127,-5.7665,-5.7665,-5.8088,-5.828,-5.8242,-5.8665,-5.8896,-5.8907,-5.9319,-5.9742,-6.0127,-5.9742,-5.9319,0.0,0.0,0.0,0.0,0.0,0.0,0.0,0.0,-4.6355,-5.0125,-5.1702,-5.3444,-5.6868,-5.8319,-6.0089,-6.3281,-6.4974,-6.6551,-6.8398,-6.9244,-7.0052,-7.1052,-7.2552,-7.3822,-7.463,-7.5476,-7.6438,-7.7438,-7.813,-7.8938,-8.0015,-8.0708,-8.1093,-8.1093,-8.1093,-8.1093,-8.1093,-8.1093,-8.1093,-8.1093,-8.1093,-8.1093,-8.1093,-8.1093,-8.1093,-8.1093,-8.1093,-8.1093,-8.0977,-7.94,-7.8631,-7.8361,-7.6823,-7.613,-7.6015,-7.6015,-7.6015,-7.6015,-7.6015,-7.5553,-7.4938,-7.4784,-7.3668,-7.2399,-7.2245,-7.1591,-7.0898,-7.0898,-7.0898,-7.0898,-7.0898,-7.0898,-7.0898,-7.0898,-7.0898,-7.0667,-6.986,-6.9013,-6.8129,-6.7282,-6.6436,-6.5897,-6.5897,-6.5897,-6.5897,-6.5897,-6.5897,-6.5897,-6.5897,-6.5282,-6.4436,-6.3423,-6.2704,-6.1897,-6.0896,-6.0165,-5.9742,-5.9742,-5.9127,-5.8781,-5.8781,-5.8781,-5.9088,-5.9742,-5.9742,-6.0089,-6.0781,-6.0781,-6.0781,-6.0781,-6.0781,-6.0781,-4.04,-4.0585,-4.1962,-4.5115,-4.6047,-4.7778,0.0,0.0,-5.378,-5.5752,-5.7396,-5.8665,-5.9127,-6.055,-6.2563,-6.5166,-6.5782,-6.6744,-6.9206,-6.9629,-7.0283,-7.186,-7.2899,-7.3822,-7.463,-7.5476,-7.6669,-7.8246,-7.8438,-7.9208,-8.0862,-8.1054,-8.1093,-8.1093,-8.1093,-8.1093,-8.1093,-8.1093,-8.1093,-8.1093,-8.1093,-8.1093,-8.1093,-8.1093,-8.1093,-8.1093,-8.1093,-8.1093,-8.1016,-8.0054,-7.9208,-7.84,-7.7515,-7.6669,-7.6015,-7.6015,-7.6015,-7.6015,-7.6015,-7.5938,-7.5745,-7.4938,-7.4091,-7.3206,-7.2437,-7.1591,-7.0898,-7.0898,-7.0898,-7.0898,-7.0898,-7.0898,-7.0898,-7.0898,-7.0898,-7.0667,-6.986,-6.9013,-6.8129,-6.7282,-6.6436,-6.5897,-6.5897,-6.5897,-6.5897,-6.5897,-6.5897,-6.5897,-6.5897,-6.582,-6.5128,-6.3462,-6.3243,-6.2512,-6.0935,-6.0704,-6.0666,-6.0666,-6.055,-6.0512,-6.0512,-6.0512,-6.055,-6.0666,-6.0666,-6.0704,-6.0781,-6.0781,-6.0781,-6.0781,-6.0781,-6.0781,-4.4855,-4.6278,-4.7923,-4.8856,-5.0587,-5.2741,-5.5588,-5.6099,-5.6434,-5.8088,-5.9435,-6.0396,-6.0935,-6.1973,-6.3474,0.0,-6.6705,-6.7898,-6.9475,-6.9706,-6.9975,-7.0667,-7.1475,-7.2706,-7.4514,-7.5014,-7.6169,-7.8323,-7.8477,-7.9246,-8.1016,-8.1093,-8.1093,-8.1093,-8.1093,-8.1093,-8.1093,-8.1093,-8.1093,-8.1093,-8.1093,-8.1093,-8.1093,-8.1093,-8.1093,-8.1093,-8.1093,-8.1093,-8.0977,-7.9592,-7.8823,-7.8361,-7.7053,-7.6322,-7.6015,-7.6015,-7.6015,-7.6015,-7.6015,-7.6015,-7.5938,-7.5592,-7.4899,-7.4053,-7.3206,-7.236,-7.1552,-7.1052,-7.0898,-7.0898,-7.0898,-7.0898,-7.0898,-7.0898,-7.0898,-7.0821,-7.0475,-6.936,-6.8269,-6.7936,-6.6782,-6.5897,-6.5897,-6.5897,-6.5897,-6.5897,-6.5897,-6.5897,-6.5897,-6.5897,-6.5243,-6.3512,-6.2435,-6.155,-6.0858,-6.0781,-6.0781,-6.0781,-6.0781,-6.0781,-6.0781,-6.0781,-6.0781,-6.0781,-6.0781,-6.0781,-6.0781,-6.0781,-6.105,-6.1562,-6.1562,-6.182,-4.8048,-5.0154,-5.1923,-5.2049,-5.428,-5.6472,-5.6703,-5.7434,-5.8407,-5.9627,-6.0358,-6.105,-6.1947,-6.2743,-6.3935,-6.5897,-6.7436,-6.8783,-6.9898,-6.986,-6.9706,-6.9706,-7.0014,-7.1129,-7.3437,-7.4284,-7.5668,-7.7977,-7.8361,-7.9246,-8.1016,-8.1093,-8.1093,-8.1093,-8.1093,-8.1093,-8.1093,-8.1093,-8.1093,-8.1093,-8.1093,-8.1093,-8.1093,-8.1093,-8.1093,-8.1093,-8.1093,-8.1093,-8.0977,-7.9477,-7.8707,-7.8361,-7.6899,-7.6207,-7.6015,-7.6015,-7.6015,-7.6015,-7.6015,-7.6015,-7.6015,-7.6015,-7.5399,-7.4591,-7.4014,-7.3053,-7.2052,-7.1437,-7.1091,-7.0898,-7.0898,-7.0898,-7.0898,-7.0898,-7.0898,-7.0898,-7.0898,-6.9783,-6.8706,-6.8462,-6.7244,-6.6167,-6.5936,-6.5897,-6.5897,-6.5897,-6.5897,-6.5897,-6.5897,-6.5705,-6.4974,-6.3474,-6.2012,-6.105,-6.0819,-6.0781,-6.0781,-6.0781,-6.0781,-6.0781,-6.0781,-6.0781,-6.0781,-6.0781,-6.0781,-6.0781,-6.0781,-6.105,-6.1473,-6.2101,-6.232,-6.2858,-4.9125,-5.0587,-5.25,-5.4934,-5.6896,-5.8434,-5.9204,-6.005,-6.0704,-6.0742,-6.0781,-6.105,-6.1947,-6.2743,-6.4128,-6.6628,-6.7821,-6.8975,-7.0629,-7.0206,-6.9706,-6.9706,-6.8975,-6.9129,0.0,-7.3245,-7.5438,-7.7207,-7.8054,-7.9246,-8.1016,-8.1093,-8.1093,-8.1093,-8.1093,-8.1093,-8.1093,-8.1093,-8.1093,-8.1093,-8.1093,-8.1093,-8.1093,-8.1093,-8.1093,-8.1093,-8.1093,-8.1093,-8.1016,-8.0131,-7.9246,-7.84,-7.7592,-7.6746,-7.6015,-7.6015,-7.6015,-7.6015,-7.6015,-7.6015,-7.6015,-7.6015,-7.5399,-7.4707,-7.4668,-7.3514,-7.2168,-7.2168,-7.1552,-7.0898,-7.0898,-7.0898,-7.0898,-7.0898,-7.0898,-7.0898,-7.0898,-7.0244,-6.9398,-6.8538,-6.7667,-6.6821,-6.6013,-6.5897,-6.5897,-6.5897,-6.5897,-6.5897,-6.5897,-6.5166,-6.432,-6.3397,-6.2551,-6.1716,-6.0858,-6.0781,-6.0781,-6.0781,-6.0781,-6.0781,-6.0781,-6.0781,-6.0781,-6.0781,-6.0781,-6.0781,-6.0781,-6.1639,-6.2062,-6.2139,-6.2897,-6.3743,-5.0702,-5.3126,-5.5626,-5.7088,-5.8704,-6.0012,-6.0281,-6.0589,-6.0781,-6.0781,-6.0319,-6.0396,-6.1831,-6.1858,-6.282,-6.6513,-6.7359,-6.8321,-7.0591,-7.0667,-7.009,-6.8975,-6.9552,0.0,0.0,0.0,0.0,-7.6207,-7.7207,-7.8438,-8.0169,-8.0785,-8.1093,-8.1093,-8.1093,-8.1093,-8.1093,-8.1093,-8.1093,-8.1093,-8.1093,-8.1093,-8.1093,-8.1093,-8.1093,-8.1093,-8.1093,-8.1093,-8.1016,-8.0169,-7.9285,-7.84,-7.7592,-7.6784,-7.6015,-7.6015,-7.6015,-7.6015,-7.6015,-7.6015,-7.6015,-7.6015,-7.5784,-7.5438,-7.4899,-7.3937,-7.2937,-7.236,-7.1552,-7.0898,-7.0898,-7.0898,-7.0898,-7.0898,-7.0898,-7.0898,-7.0898,-7.0283,-6.9629,-6.9321,-6.809,-6.7013,-6.6744,-6.6244,-6.5897,-6.5897,-6.5897,-6.5897,-6.5897,-6.5128,-6.4474,-6.4205,-6.2935,-6.1985,-6.1678,-6.1127,-6.0781,-6.0781,-6.0781,-6.0781,-6.0781,-6.0781,-6.0781,-6.0781,-6.0781,-6.1089,-6.1678,-6.1947,-6.2678,-6.3782,-6.4051,-6.4628,-5.3087,-5.5318,-5.7368,-5.8819,-6.0012,-6.0781,-6.0781,-6.0781,-6.0627,-6.0012,-5.9473,-5.9204,-5.9704,-5.9627,-6.0742,-6.4666,-6.582,-6.7205,-7.0052,-7.0475,-7.0052,-6.9013,-6.9821,-7.0167,0.0,0.0,0.0,-7.5322,-7.6899,-7.8323,-7.9746,-8.0631,-8.1093,-8.1093,-8.1093,-8.1093,-8.1093,-8.1093,-8.1093,-8.1093,-8.1093,-8.1093,-8.1093,-8.1093,-8.1093,-8.1093,-8.1093,-8.1093,-8.1054,-8.0516,-7.9746,-7.8861,-7.8054,-7.7207,-7.6438,-7.6092,-7.6015,-7.6015,-7.6015,-7.6015,-7.6015,-7.6015,-7.6015,-7.5899,-7.5322,-7.4591,-7.3822,-7.3245,-7.2245,-7.136,-7.136,-7.1129,-7.0898,-7.0898,-7.0898,-7.0898,-7.0898,-7.0475,-7.0052,-6.9744,-6.8783,-6.7821,-6.7205,-6.6436,-6.5897,-6.5897,-6.5897,-6.5897,-6.5897,-6.5397,-6.4936,-6.4628,-6.3628,-6.2858,-6.2551,-6.2012,-6.155,-6.1281,-6.1243,-6.1127,-6.0819,-6.0781,-6.0781,-6.0781,-6.1089,-6.1562,-6.2101,-6.2716,-6.3551,-6.4628,-6.4936,-6.5359,-5.6165,-5.7137,-5.7791,-6.0242,-6.0819,-6.0781,-6.0781,-6.0742,-6.0204,-5.8588,-5.8127,-5.755,0.0,0.0,-5.805,-6.1485,-6.3512,-6.5859,-6.9283,-6.986,-6.9898,0.0,0.0,0.0,0.0,0.0,0.0,-7.463,0.0,-7.8823,-7.9746,-8.0631,-8.1093,-8.1093,-8.1093,-8.1093,-8.1093,-8.1093,-8.1093,-8.1093,-8.1093,-8.1093,-8.1093,-8.1093,-8.1093,-8.1093,-8.1093,-8.1093,-8.1093,-8.1093,-8.0592,-7.9708,-7.8823,-7.8015,-7.7169,-7.6322,-7.6015,-7.6015,-7.6015,-7.6015,-7.6015,-7.6015,-7.6015,-7.6015,-7.6015,-7.5399,-7.4707,-7.4707,-7.3514,-7.2245,-7.2206,-7.1591,-7.0975,-7.0898,-7.0898,-7.0898,-7.0898,-7.0898,-7.0667,-6.9898,-6.9744,-6.9167,-6.7398,-6.6474,-6.5936,-6.5897,-6.5897,-6.5897,-6.5897,-6.5897,-6.559,-6.4743,-6.4628,-6.4282,-6.3435,-6.332,-6.2974,-6.2216,-6.2178,-6.1793,-6.0973,-6.0935,-6.0935,-6.0935,-6.1755,-6.2178,-6.2216,-6.382,-6.4628,-6.4705,-6.5513,-6.5897,-5.755,-5.8896,-6.0139,-6.1447,-6.1293,-6.0781,-6.0781,-5.9819,-5.8627,-5.755,-5.5818,-5.4357,-5.3933,0.0,0.0,-6.0589,-6.3628,0.0,-7.0129,-7.1706,0.0,-7.1629,0.0,-7.3014,-7.1975,-7.3206,0.0,0.0,-7.6861,-7.8246,-7.9708,-8.0631,-8.1093,-8.1093,-8.1093,-8.1093,-8.1093,-8.1093,-8.1093,-8.1093,-8.1093,-8.1093,-8.1093,-8.1093,-8.1093,-8.1093,-8.1093,-8.1093,-8.1093,-8.1093,-8.0592,-7.9708,-7.8823,-7.8015,-7.7169,-7.6322,-7.6015,-7.6015,-7.6015,-7.6015,-7.6015,-7.6015,-7.6015,-7.6015,-7.6015,-7.5399,-7.4707,-7.4707,-7.3976,-7.3014,-7.236,-7.2052,-7.1706,-7.1052,-7.0898,-7.0898,-7.0898,-7.0898,-7.0821,-7.0629,-7.0129,-6.9167,-6.7398,-6.6936,-6.659,-6.5974,-6.5897,-6.5897,-6.5897,-6.5897,-6.582,-6.559,-6.4974,-6.4512,-6.4282,-6.3666,-6.3205,-6.3012,-6.2974,-6.2897,-6.2666,-6.2666,-6.2666,-6.2666,-6.2897,-6.332,-6.3974,-6.4397,-6.4936,-6.5551,-6.5782,-6.5897,-5.9627,-6.0896,-6.1935,-6.2062,-6.1716,-6.0973,-5.9484,-5.8396,-5.6973,-5.4241,-5.2818,-5.1625,-5.0125,-5.2164,-5.4895,0.0,0.0,0.0,-6.9321,-7.1629,-7.2899,0.0,-7.3899,0.0,-7.3399,-7.4822,-7.6207,0.0,-7.7553,-7.84,-7.9746,-8.0631,-8.1093,-8.1093,-8.1093,-8.1093,-8.1093,-8.1093,-8.1093,-8.1093,-8.1093,-8.1093,-8.1093,-8.1093,-8.1093,-8.1093,0.0,-8.1093,-8.1093,-8.1093,-8.0823,-8.0246,-7.8977,-7.8207,-7.7669,-7.6438,-7.6015,-7.6015,-7.6015,-7.6015,-7.6015,-7.6015,-7.6015,-7.6015,-7.6015,-7.5668,-7.5284,-7.5284,-7.4668,-7.3822,-7.2976,-7.2476,-7.1975,-7.1091,-7.0898,-7.0898,-7.0898,-7.0898,-7.0898,-7.0898,-7.0244,-6.9398,-6.8398,-6.759,-6.6936,-6.6474,-6.6128,-6.5897,-6.5897,-6.5897,-6.5897,-6.5897,-6.5474,-6.5166,-6.5166,-6.4705,-6.4282,-6.3897,-6.3858,-6.3705,-6.332,-6.3308,-6.3308,-6.3308,-6.3666,-6.4128,-6.4589,-6.4974,-6.5436,-6.5897,-6.5897,-6.5897,-6.1947,-6.2858,-6.3128,-6.2435,-6.2101,-6.1062,-5.7753,-5.6637,-5.4972,-5.0202,-4.9548,-4.8942,-4.5979,-4.8702,-5.2115,-5.4318,0.0,-6.4282,-6.8052,-7.0667,-7.2552,-7.3553,-7.4399,-7.4938,-7.5014,-7.6399,-7.7669,-7.8592,-7.8669,-7.9054,-7.9939,-8.0708,-8.1093,-8.1093,-8.1093,-8.1093,-8.1093,-8.1093,-8.1093,-8.1093,-8.1093,-8.1093,-8.1093,-8.1093,-8.1093,-8.1093,-8.1093,0.0,-8.1093,-8.1093,-8.1093,-8.0939,-7.9323,-7.8592,-7.8284,-7.6746,-7.6092,-7.6015,-7.6015,-7.6015,-7.6015,-7.6015,-7.6015,-7.6015,-7.6015,-7.6015,-7.6015,-7.6015,-7.5476,-7.4707,-7.386,-7.3014,-7.2129,-7.1283,-7.0975,-7.0898,-7.0898,-7.0898,-7.0898,-7.0898,-7.036,-6.9821,-6.9706,-6.8436,-6.7398,-6.7282,-6.659,-6.6051,-6.6051,-6.5974,-6.5897,-6.5897,-6.5897,-6.5897,-6.5897,-6.5897,-6.559,-6.482,-6.4782,-6.4436,-6.3666,-6.3666,-6.3666,-6.3666,-6.4397,-6.4782,-6.4782,-6.5513,-6.5897,-6.5897,-6.5897,-6.5897,-6.3705,-6.3743,-6.3281,-6.3128,-6.205,-6.0319,-5.7638,-5.4818,0.0,-4.8933,-4.6778,-4.524,-4.4624,-4.6855,-5.024,-5.4741,-5.8704,-6.3166,-6.8706,-7.1052,-7.2783,0.0,-7.5245,-7.6053,-7.6784,-7.713,0.0,0.0,0.0,-7.9939,-8.0823,-8.1016,-8.1093,-8.1093,-8.1093,-8.1093,-8.1093,-8.1093,-8.1093,-8.1093,-8.1093,-8.1093,-8.1093,-8.1093,-8.1093,-8.1093,-8.1093,0.0,-8.1093,-8.1093,-8.1093,-8.1016,-7.9977,-7.9131,-7.8361,-7.7438,-7.663,-7.6015,-7.6015,-7.6015,-7.6015,-7.6015,-7.6015,-7.6015,-7.6015,-7.6015,-7.6015,-7.6015,-7.5899,-7.5592,-7.4707,-7.3899,-7.3053,-7.2168,-7.1398,-7.0898,-7.0898,-7.0898,-7.0898,-7.0898,-7.0783,-7.0475,-6.9821,-6.9436,-6.9013,-6.8282,-6.7436,-6.6898,-6.6898,-6.632,-6.5897,-6.5897,-6.5897,-6.5897,-6.5897,-6.5897,-6.582,-6.5667,-6.5667,-6.559,-6.5474,-6.5436,-6.5436,-6.5436,-6.559,-6.5667,-6.5667,-6.582,-6.5897,-6.5897,-6.5897,-6.5897,-6.3705,-6.4282,-6.4436,-6.3551,-6.205,-5.9781,-5.5895,0.0,0.0,-4.6201,-4.4547,-4.3393,-4.2478,-4.547,-4.8894,-5.1356,-5.5357,-6.0242,-6.6205,-6.8475,-7.0821,-7.4284,-7.5476,-7.6322,0.0,-7.7669,-7.8438,0.0,0.0,-8.0669,-8.1093,-8.1093,-8.1093,-8.1093,-8.1093,-8.1093,-8.1093,-8.1093,-8.1093,-8.1093,-8.1093,-8.1093,-8.1093,-8.1093,-8.1093,-8.1093,-8.1093,0.0,-8.1093,-8.1093,-8.1093,-8.1016,-8.0131,-7.9285,-7.84,-7.7592,-7.6746,-7.6015,-7.6015,-7.6015,-7.6015,-7.6015,-7.6015,-7.6015,-7.6015,-7.6015,-7.6015,-7.6015,-7.6015,-7.5784,-7.4938,-7.4091,-7.3283,-7.2399,-7.1514,-7.0898,-7.0898,-7.0898,-7.0898,-7.0898,-7.0898,-7.0783,-7.0398,-6.9975,-6.9552,-6.9129,-6.8321,-6.7628,-6.7167,-6.6744,-6.6359,-6.5936,-6.5897,-6.5897,-6.5897,-6.5897,-6.5897,-6.5897,-6.5897,-6.5897,-6.5897,-6.5897,-6.5897,-6.5897,-6.5897,-6.5897,-6.5897,-6.5897,-6.5897,-6.5897,-6.632,-6.6513,-6.3538,-6.4589,-6.5243,-6.3705,-6.1781,-5.8973,-5.4049,-5.0818,-4.7702,-4.3662,-4.2662,-4.2162,-4.1016,-4.4047,-4.7124,-4.8202,-5.2049,-5.7011,-6.3205,-6.5974,-6.9052,0.0,-7.5245,0.0,-7.7438,-7.813,0.0,0.0,0.0,0.0,-8.1093,-8.1093,-8.1093,-8.1093,-8.1093,-8.1093,-8.1093,-8.1093,-8.1093,-8.1093,-8.1093,-8.1093,-8.1093,-8.1093,-8.1093,-8.1093,-8.1093,0.0,0.0,-8.1093,-8.1093,-8.1016,-8.0362,-7.9438,-7.84,-7.7784,-7.6899,-7.6015,-7.6015,-7.6015,-7.6015,-7.6015,-7.6015,-7.6015,-7.6015,-7.6015,-7.6015,-7.6015,-7.6015,-7.5822,-7.5168,-7.4361,-7.3476,-7.2437,-7.1514,-7.0898,-7.0898,-7.0898,-7.0898,-7.0898,-7.0898,-7.0898,-7.0898,-7.0398,-6.9975,-6.9975,-6.9244,-6.8436,-6.7744,-6.7475,-6.7128,-6.6513,-6.609,-6.5897,-6.5897,-6.5897,-6.5897,-6.5897,-6.5897,-6.5897,-6.5897,-6.5897,-6.5897,-6.5897,-6.5897,-6.5897,-6.5897,-6.6051,-6.6167,-6.6167,-6.7013,-6.7359,-6.4282,-6.4589,-6.4474,-6.3538,-6.0896,-5.7396,-5.3,0.0,-4.6154,-4.2654,-4.1277,-4.0939,-4.1546,-4.2038,-4.3893,-4.8548,-5.0971,-5.4626,-6.1358,-6.5743,-6.9321,-7.2091,0.0,0.0,-7.8207,-7.8453,0.0,0.0,0.0,0.0,-8.1093,-8.1093,-8.1093,-8.1093,-8.1093,-8.1093,-8.1093,-8.1093,-8.1093,-8.1093,-8.1093,-8.1093,-8.1093,-8.1093,-8.1093,-8.1093,-8.1093,0.0,0.0,-8.1093,-8.1093,-8.1093,-8.1016,-7.9939,-7.8477,-7.84,-7.7361,-7.6015,-7.6015,-7.6015,-7.6015,-7.6015,-7.6015,-7.6015,-7.6015,-7.6015,-7.6015,-7.6015,-7.6015,-7.5976,-7.5899,-7.5245,-7.4207,-7.2591,-7.1514,-7.0898,-7.0898,-7.0898,-7.0898,-7.0898,-7.0898,-7.0898,-7.0898,-7.0821,-7.0783,-7.0783,-7.009,-6.9552,-6.9475,-6.8783,-6.8244,-6.8205,-6.6821,-6.5897,-6.5897,-6.5897,-6.5897,-6.5897,-6.5897,-6.5897,-6.5897,-6.5897,-6.5897,-6.5897,-6.5897,-6.5897,-6.5897,-6.6628,-6.6974,-6.7013,-6.7898,-6.8282,-6.2589,-6.3435,-6.3628,-6.2781,-6.0012,-5.6511,-5.2769,-4.8894,-4.5316,-4.2393,-4.1123,-4.0593,-4.0931,-4.147,-4.2777,-4.5855,-4.6894,-4.9548,-5.5857,-5.9511,-6.3435,-6.8513,-7.1822,0.0,0.0,0.0,-7.9208,0.0,0.0,0.0,-8.1093,-8.1093,-8.1093,-8.1093,-8.1093,-8.1093,-8.1093,-8.1093,-8.1093,-8.1093,-8.1093,-8.1093,-8.1093,-8.1093,-8.1093,-8.1093,-8.1093,0.0,0.0,-8.1093,-8.1093,-8.1093,-8.1093,-8.0015,-7.8477,-7.8477,-7.7438,-7.6015,-7.6015,-7.6015,-7.6015,-7.6015,-7.6015,-7.6015,-7.6015,-7.6015,-7.6015,-7.6015,-7.6015,-7.6015,-7.6015,-7.5361,-7.4284,-7.2591,-7.1937,-7.1552,-7.1014,-7.0898,-7.0898,-7.0898,-7.0898,-7.0898,-7.0898,-7.0898,-7.0898,-7.0898,-7.0629,-7.0244,-6.9744,-6.9398,-6.8975,-6.8462,-6.7321,-6.6628,-6.6628,-6.6167,-6.5897,-6.5897,-6.5897,-6.5897,-6.5897,-6.5897,-6.6128,-6.659,-6.6628,-6.6859,-6.7398,-6.7744,-6.7898,-6.7898,-6.8783,-6.9167,-6.0781,-6.2127,-6.282,-6.2243,-5.9177,-5.5434,-5.2279,-4.824,-4.447,-4.1931,-4.0931,-4.0516,-4.0516,-4.12,-4.2277,-4.3701,-4.4586,-4.7048,-5.2779,-5.5972,-5.9985,-6.6013,0.0,-7.2437,0.0,-7.7823,-7.9515,0.0,0.0,0.0,-8.1093,-8.1093,-8.1093,-8.1093,-8.1093,-8.1093,-8.1093,-8.1093,-8.1093,-8.1093,-8.1093,-8.1093,-8.1093,-8.1093,-8.1093,-8.1093,-8.1093,0.0,0.0,-8.1093,-8.1093,-8.1093,-8.1093,-8.0015,-7.8477,-7.8477,-7.7438,-7.6015,-7.6015,-7.6015,-7.6015,-7.6015,-7.6015,-7.6015,-7.6015,-7.6015,-7.6015,-7.6015,-7.6015,-7.6015,-7.6015,-7.5361,-7.4399,-7.3206,-7.2745,-7.2437,-7.1783,-7.1668,-7.1591,-7.1321,-7.1283,-7.1206,-7.0937,-7.0898,-7.0898,-7.0898,-7.0898,-7.0706,-7.0129,-7.0052,-6.9821,-6.9206,-6.8398,-6.7744,-6.7513,-6.6974,-6.6628,-6.6628,-6.6628,-6.6628,-6.6628,-6.6628,-6.6898,-6.7475,-6.7475,-6.7782,-6.8385,-6.8667,-6.8783,-6.8821,-6.9667,-7.0052,-5.9319,-6.0781,-6.2101,-6.2101,-5.828,-5.3857,-5.1289,-4.7394,-4.3585,-4.1054,-4.0516,-4.0516,-4.0516,-4.12,-4.2085,-4.297,-4.524,-4.8663,-5.378,-5.7357,-6.1089,0.0,0.0,-6.9783,-7.3206,-7.7323,0.0,0.0,0.0,0.0,-8.1093,-8.1093,-8.1093,-8.1093,-8.1093,-8.1093,-8.1093,-8.1093,-8.1093,-8.1093,-8.1093,-8.1093,-8.1093,-8.1093,-8.1093,0.0,0.0,0.0,0.0,-8.1093,-8.1093,-8.1093,-8.1093,-8.0015,-7.8477,-7.8477,-7.7438,-7.6015,-7.6015,-7.6015,-7.6015,-7.6015,-7.6015,-7.6015,-7.6015,-7.6015,-7.6015,-7.6015,-7.6015,-7.6015,-7.6015,-7.5361,-7.4707,-7.4668,-7.4091,-7.3462,-7.3462,-7.3476,-7.3206,-7.236,-7.2168,-7.1898,-7.1052,-7.0898,-7.0898,-7.0898,-7.0898,-7.0898,-7.0898,-7.0898,-7.0898,-7.086,-7.0167,-6.9321,-6.8462,-6.8385,-6.8359,-6.8359,-6.8359,-6.8359,-6.8359,-6.8359,-6.8385,-6.8385,-6.8385,-6.8385,-6.8385,-6.9283,-6.9706,-6.9706,-7.0514,-7.0898,-5.4664,-5.6011,-5.6742,-5.6165,-5.3933,-5.1241,-4.8663,-4.6124,-4.3585,-4.1016,-4.0516,-4.0516,-4.0516,-4.0746,-4.197,-4.5201,-4.6385,-4.8471,-5.2972,-5.7011,0.0,-6.4589,-7.009,-7.4245,0.0,0.0,0.0,0.0,0.0,0.0,-8.1093,-8.1093,-8.1093,-8.1093,-8.1093,-8.1093,-8.1093,-8.1093,-8.1093,-8.1093,-8.1093,-8.1093,-8.1093,-8.1093,-8.1093,0.0,0.0,0.0,0.0,-8.1093,-8.1093,-8.1054,-8.0439,-7.9515,-7.8438,-7.7861,-7.6976,-7.6015,-7.6015,-7.6015,-7.6015,-7.6015,-7.6015,-7.6015,-7.6015,-7.6015,-7.6015,-7.6015,-7.6015,-7.6015,-7.6015,-7.5784,-7.5438,-7.4861,-7.4514,-7.4168,-7.363,-7.3514,-7.3437,-7.3129,-7.3091,-7.2822,-7.1937,-7.1783,-7.1591,-7.0975,-7.0898,-7.0898,-7.0898,-7.0898,-7.0898,-7.0898,-7.0667,-7.0206,-6.936,-6.8744,-6.8385,-6.8385,-6.8385,-6.8385,-6.8385,-6.8385,-6.8667,-6.9283,-6.9283,-6.9552,-7.0129,-7.0398,-7.0514,-7.0514,-7.0783,-7.0898,-5.0894,-5.2856,-5.3895,-5.3356,-5.1433,-4.9202,-4.7317,-4.5047,-4.2816,-4.09,-4.0516,-4.0516,-4.0516,-4.0785,-4.197,-4.497,-4.6009,-4.8009,-5.2549,0.0,0.0,-6.4974,0.0,0.0,0.0,-7.7169,0.0,0.0,0.0,0.0,-8.0131,-8.0131,-8.0285,-8.0592,-8.0939,-8.1093,-8.1093,-8.1093,-8.1093,-8.1093,-8.1093,-8.1093,-8.1093,-8.1093,-8.1093,0.0,0.0,0.0,0.0,-8.1093,-8.1093,-8.1016,-8.0131,-7.9285,-7.84,-7.7592,-7.6746,-7.6015,-7.6015,-7.6015,-7.6015,-7.6015,-7.6015,-7.6015,-7.6015,-7.6015,-7.6015,-7.6015,-7.6015,-7.6015,-7.6015,-7.6015,-7.5861,-7.5322,-7.5207,-7.5053,-7.4553,-7.4437,-7.4361,-7.4014,-7.3976,-7.3668,-7.2822,-7.2706,-7.2399,-7.1514,-7.1398,-7.1283,-7.0937,-7.0898,-7.0898,-7.0898,-7.0898,-7.0706,-7.0206,-6.9667,-6.936,-6.936,-6.936,-6.936,-6.936,-6.936,-6.959,-7.0129,-7.0167,-7.0398,-7.0898,-7.0898,-7.0898,-7.0898,-7.0898,-7.0898,0.0,-5.0625,-5.2549,-5.251,-5.0087,-4.7548,-4.6731,-4.4077,0.0,-4.0669,-4.0516,-4.0554,-4.0669,-4.1316,-4.22,-4.3355,-4.4893,-4.7711,0.0,-5.5972,0.0,0.0,-7.0437,0.0,-7.3591,-7.5861,0.0,0.0,0.0,0.0,-7.8477,-7.8477,-7.8861,-7.9669,-8.0477,-8.0977,-8.1093,-8.1093,-8.1093,-8.1093,-8.1093,-8.1093,-8.1093,-8.1093,-8.1093,0.0,0.0,0.0,0.0,-8.0939,-8.09,-8.0823,-7.9977,-7.9131,-7.8323,-7.7515,-7.6707,-7.6015,-7.6015,-7.6015,-7.6015,-7.6015,-7.6015,-7.6015,-7.6015,-7.6015,-7.6015,-7.6015,-7.6015,-7.6015,-7.6015,-7.6015,-7.6015,-7.6015,-7.6015,-7.6015,-7.6015,-7.6015,-7.5745,-7.4938,-7.4784,-7.4553,-7.3745,-7.3591,-7.3283,-7.2399,-7.2283,-7.1975,-7.1091,-7.0975,-7.0975,-7.0898,-7.0898,-7.0898,-7.0898,-7.0898,-7.0898,-7.0898,-7.0898,-7.0898,-7.0898,-7.0898,-7.0898,-7.0898,-7.0898,-7.0898,-7.0898,-7.0898,-7.0898,-7.0898,-7.0898,-7.0898,-4.2324,0.0,-4.624,-4.5624,-4.4855,-4.4047,0.0,-4.2385,-4.1546,-4.0669,0.0,-4.09,-4.2239,-4.2124,-4.3162,-4.724,-4.8817,-5.1058,-5.5483,-6.1666,0.0,-7.1514,-7.3822,-7.5207,-7.5399,-7.6553,0.0,0.0,0.0,-7.8477,-7.8477,-7.8477,-7.8592,-7.8784,-7.8977,-7.9746,-8.1093,-8.1093,-8.1093,-8.1093,-8.1093,-8.1093,-8.1093,-8.1093,-8.1093,0.0,0.0,0.0,-8.0054,-7.94,-7.9092,-7.9015,-7.8207,-7.7746,-7.7476,-7.663,-7.6169,-7.6015,-7.6015,-7.6015,-7.6015,-7.6015,-7.6015,-7.6015,-7.6015,-7.6015,-7.6015,-7.6015,-7.6015,-7.6015,-7.6015,-7.6015,-7.6015,-7.6015,-7.6015,-7.6015,-7.6015,-7.6015,-7.5938,-7.5745,-7.5707,-7.5438,-7.4591,-7.4437,-7.413,-7.3322,-7.3206,-7.2899,-7.2014,-7.1898,-7.1629,-7.0975,-7.0898,-7.0898,-7.0898,-7.0898,-7.0898,-7.0898,-7.0898,-7.0898,-7.0898,-7.0898,-7.0898,-7.0898,-7.0898,-7.0898,-7.0898,-7.0898,-7.0898,-7.0898,-7.0898,-7.0898,-3.9823,-4.2093,-4.4278,-4.4239,-4.3932,-4.3547,-4.3047,-4.2047,-4.1085,0.0,0.0,0.0,-4.2277,-4.2431,-4.3701,-4.7625,-4.9625,-5.2866,0.0,0.0,-6.9667,-7.3077,-7.4976,-7.6015,0.0,0.0,0.0,0.0,0.0,-7.7361,-7.7361,-7.7361,-7.7553,-7.7938,-7.7938,-7.8592,-7.99,-7.99,-7.99,-7.99,-7.99,-7.99,-7.99,-7.99,-7.99,0.0,0.0,0.0,-7.9169,-7.8669,-7.8477,-7.84,-7.7592,-7.7284,-7.7169,-7.6322,-7.6015,-7.6015,-7.6015,-7.6015,-7.6015,-7.6015,-7.6015,-7.6015,-7.6015,-7.6015,-7.6015,-7.6015,-7.6015,-7.6015,-7.6015,-7.6015,-7.6015,-7.6015,-7.6015,-7.6015,-7.6015,-7.6015,-7.6015,-7.6015,-7.6015,-7.5861,-7.5399,-7.5284,-7.5014,-7.4168,-7.4053,-7.3745,-7.2899,-7.2783,-7.2476,-7.1591,-7.1514,-7.1321,-7.0937,-7.0898,-7.0898,-7.0898,-7.0898,-7.0898,-7.0898,-7.0898,-7.0898,-7.0898,-7.0898,-7.0898,-7.0898,-7.1283,-7.1514,-7.1514,-7.1898,-7.2091,-3.9169,-4.1854,-4.4432,-4.4902,-4.4662,-4.4278,-4.4124,0.0,0.0,0.0,0.0,0.0,0.0,-4.3278,0.0,0.0,0.0,0.0,-6.2589,-6.6423,-6.9667,-7.3077,-7.4861,0.0,-7.5976,0.0,0.0,0.0,0.0,-7.6015,-7.6015,-7.6015,-7.6322,-7.7092,-7.7092,-7.7438,-7.8092,-7.8361,-7.8477,-7.8477,-7.8477,-7.8477,-7.8477,-7.8477,-7.8477,-7.8477,0.0,0.0,-7.8284,-7.8169,-7.813,-7.8054,-7.7361,-7.7092,-7.7015,-7.6284,-7.6015,-7.6015,-7.6015,-7.6015,-7.6015,-7.6015,-7.6015,-7.6015,-7.6015,-7.6015,-7.6015,-7.6015,-7.6015,-7.6015,-7.6015,-7.6015,-7.6015,-7.6015,-7.6015,-7.6015,-7.6015,-7.6015,-7.6015,-7.6015,-7.6015,-7.6015,-7.6015,-7.6015,-7.5745,-7.5014,-7.4899,-7.4591,-7.3783,-7.3668,-7.336,-7.2476,-7.2399,-7.2091,-7.136,-7.1283,-7.1283,-7.1283,-7.1052,-7.0898,-7.0898,-7.0898,-7.0898,-7.0898,-7.1014,-7.1091,-7.1091,-7.1975,-7.2399,-7.2399,-7.3168,-7.3514,-3.9708,-4.2285,-4.397,-4.2701,-4.3355,-4.4124,-4.3431,-4.297,0.0,0.0,0.0,0.0,0.0,-4.6778,-4.8163,0.0,0.0,-5.9088,0.0,0.0,-6.9667,-7.3077,0.0,-7.5207,-7.5938,0.0,0.0,0.0,0.0,-7.6015,-7.6015,-7.6015,-7.6053,-7.6207,-7.6207,-7.6245,-7.6361,-7.7784,-7.8477,-7.8477,-7.8477,-7.8477,-7.8477,-7.8477,-7.8477,-7.8453,0.0,-7.7476,-7.7438,-7.6669,-7.6361,-7.6361,-7.6245,-7.6207,-7.6169,-7.6053,-7.6015,-7.6015,-7.6015,-7.6015,-7.6015,-7.6015,-7.6015,-7.6015,-7.6015,-7.6015,-7.6015,-7.6015,-7.6015,-7.6015,-7.6015,-7.6015,-7.6015,-7.6015,-7.6015,-7.6015,-7.6015,-7.6015,-7.6015,-7.6015,-7.6015,-7.6015,-7.6015,-7.6015,-7.5938,-7.5822,-7.5784,-7.5476,-7.463,-7.4514,-7.4207,-7.3399,-7.3322,-7.3245,-7.3129,-7.3091,-7.3091,-7.3091,-7.1706,-7.0898,-7.0898,-7.0898,-7.0898,-7.0898,-7.1629,-7.2014,-7.2014,-7.2899,-7.3322,-7.3322,-7.3437,-7.3514,-3.8584,-4.1008,-4.3085,-4.3701,-4.547,-4.6971,-4.6586,-4.5432,0.0,0.0,0.0,0.0,0.0,0.0,-5.0933,-5.5318,0.0,-6.232,-6.6013,-6.8013,-7.0014,0.0,0.0,-7.4861,0.0,0.0,0.0,0.0,0.0,0.0,-7.6015,-7.6015,-7.6015,-7.6015,-7.6015,-7.6015,-7.6015,-7.6746,-7.713,-7.713,-7.713,-7.713,-7.713,-7.713,-7.713,-7.713,0.0,-7.6592,-7.6553,-7.6169,-7.6015,-7.6015,-7.6015,-7.6015,-7.6015,-7.6015,-7.6015,-7.6015,-7.6015,-7.6015,-7.6015,-7.6015,-7.6015,-7.6015,-7.6015,-7.6015,-7.6015,-7.6015,-7.6015,-7.6015,-7.6015,-7.6015,-7.6015,-7.6015,-7.6015,-7.6015,-7.6015,-7.6015,-7.6015,-7.6015,-7.6015,-7.6015,-7.6015,-7.6015,-7.6015,-7.6015,-7.6015,-7.5861,-7.5438,-7.5399,-7.5091,-7.4245,-7.4168,-7.3976,-7.3538,-7.3514,-7.3514,-7.3514,-7.2745,-7.2322,-7.2322,-7.2322,-7.2322,-7.2322,-7.2706,-7.2899,-7.2899,-7.3745,-7.4168,-7.4168,-7.463,-7.4861,-3.8392,-4.0469,-4.2662,-4.5017,-4.7201,-4.9009,-4.9817,-4.8163,0.0,0.0,0.0,0.0,0.0,-5.1048,0.0,-5.955,-6.2358,-6.4743,-6.7051,-6.8744,-7.0321,-7.2014,-7.3322,-7.4207,0.0,0.0,0.0,0.0,0.0,0.0,-7.5399,-7.5592,-7.5707,-7.5707,-7.5899,-7.6015,-7.6015,-7.6015,-7.6015,-7.6015,-7.6015,-7.6015,-7.6015,-7.6015,-7.6015,-7.6015,-7.6015,-7.6015,-7.6015,-7.6015,-7.6015,-7.6015,-7.6015,-7.6015,-7.6015,-7.6015,-7.6015,-7.6015,-7.6015,-7.6015,-7.6015,-7.6015,-7.6015,-7.6015,-7.6015,-7.6015,-7.6015,-7.6015,-7.6015,-7.6015,-7.6015,-7.6015,-7.6015,-7.6015,-7.6015,-7.6015,-7.6015,-7.6015,-7.6015,-7.6015,-7.6015,-7.6015,-7.6015,-7.6015,-7.6015,-7.6015,-7.6015,-7.6015,-7.6015,-7.6015,-7.5745,-7.5091,-7.5014,-7.4745,-7.413,-7.4091,-7.4091,-7.4091,-7.3707,-7.3514,-7.3514,-7.3514,-7.3514,-7.3514,-7.3707,-7.3783,-7.3783,-7.4591,-7.5014,-7.5014,-7.5707,-7.6015,-4.0846,-4.2239,-4.3431,-4.5171,-4.6355,-4.7885,-5.1,-5.0356,0.0,-5.2241,0.0,0.0,0.0,-5.5549,-5.8896,-6.2462,-6.4551,-6.632,-6.8052,0.0,-7.0321,-7.2014,-7.2322,-7.2706,0.0,0.0,0.0,0.0,0.0,0.0,-7.3668,-7.4399,-7.4784,-7.4784,-7.5592,-7.6015,-7.6015,-7.6015,-7.6015,-7.6015,-7.6015,-7.6015,-7.6015,-7.6015,-7.6015,-7.6015,-7.6015,-7.6015,-7.6015,-7.6015,-7.6015,-7.6015,-7.6015,-7.6015,-7.6015,-7.6015,-7.6015,-7.6015,-7.6015,-7.6015,-7.6015,-7.6015,-7.6015,-7.6015,-7.6015,-7.6015,-7.6015,-7.6015,-7.6015,-7.6015,-7.6015,-7.6015,-7.6015,-7.6015,-7.6015,-7.6015,-7.6015,-7.6015,-7.6015,-7.6015,-7.6015,-7.6015,-7.6015,-7.6015,-7.6015,-7.6015,-7.6015,-7.6015,-7.6015,-7.6015,-7.5976,-7.5899,-7.5899,-7.5861,-7.5822,-7.5822,-7.5822,-7.5822,-7.4361,-7.3514,-7.3514,-7.3514,-7.3514,-7.3514,-7.4245,-7.463,-7.463,-7.5476,-7.5899,-7.5899,-7.5976,-7.6015,-3.9046,-4.1239,-4.3508,-4.5171,-4.7441,0.0,0.0,-5.2241,-5.2626,-5.5742,-5.5511,0.0,0.0,0.0,-6.0627,-6.2923,-6.5166,-6.7051,-6.8244,-6.959,-7.0667,-7.1321,-7.186,0.0,0.0,0.0,0.0,0.0,0.0,0.0,-7.3514,-7.3783,-7.3976,-7.3976,-7.4284,-7.4707,-7.5207,-7.5207,-7.5476,-7.6015,-7.6015,-7.6015,-7.6015,-7.6015,-7.6015,-7.6015,-7.6015,-7.6015,-7.6015,-7.6015,-7.6015,-7.6015,-7.6015,-7.6015,-7.6015,-7.6015,-7.6015,-7.6015,-7.6015,-7.6015,-7.6015,-7.6015,-7.6015,-7.6015,-7.6015,-7.6015,-7.6015,-7.6015,-7.6015,-7.6015,-7.6015,-7.6015,-7.6015,-7.6015,-7.6015,-7.6015,-7.6015,-7.6015,-7.6015,-7.6015,-7.6015,-7.6015,-7.6015,-7.6015,-7.6015,-7.6015,-7.6015,-7.6015,-7.6015,-7.6015,-7.6015,-7.6015,-7.6015,-7.6015,-7.6015,-7.6015,-7.6015,-7.6015,-7.5399,-7.5053,-7.5053,-7.5053,-7.5053,-7.5053,-7.5361,-7.5515,-7.5515,-7.5822,-7.6015,-7.6015,-7.6015,-7.6015,-3.87,-4.0893,-4.3508,-4.5171,0.0,0.0,-5.3472,-5.4203,-5.5357,-5.8781,-5.8319,0.0,0.0,0.0,0.0,0.0,-6.5436,-6.7398,-6.8282,-6.9629,-7.0629,-7.086,-7.1437,0.0,0.0,0.0,0.0,0.0,0.0,0.0,0.0,-7.2937,-7.3091,-7.3091,-7.336,-7.3783,-7.4322,-7.4322,-7.463,-7.5207,-7.5207,-7.5476,-7.6015,-7.6015,-7.6015,-7.6015,-7.6015,-7.6015,-7.6015,-7.6015,-7.6015,-7.6015,-7.6015,-7.6015,-7.6015,-7.6015,-7.6015,-7.6015,-7.6015,-7.6015,-7.6015,-7.6015,-7.6015,-7.6015,-7.6015,-7.6015,-7.6015,-7.6015,-7.6015,-7.6015,-7.6015,-7.6015,-7.6015,-7.6015,-7.6015,-7.6015,-7.6015,-7.6015,-7.6015,-7.6015,-7.6015,-7.6015,-7.6015,-7.6015,-7.6015,-7.6015,-7.6015,-7.6015,-7.6015,-7.6015,-7.6015,-7.6015,-7.6015,-7.6015,-7.6015,-7.6015,-7.6015,-7.6015,-7.6015,-7.6015,-7.6015,-7.6015,-7.6015,-7.6015,-7.6015,-7.6015,-7.6015,-7.6015,-7.6015,-7.6015,-7.6015,-7.6015,-4.0746,-4.1777,-4.3547,-4.521,0.0,0.0,-5.4972,-5.6395,-5.8,-6.1408,-6.1435,-6.1089,-6.1947,0.0,0.0,-6.3166,-6.5436,-6.7398,-6.8282,-6.9129,-6.9975,-7.0783,-7.0898,0.0,0.0,0.0,0.0,0.0,0.0,0.0,0.0,-7.1706,-7.2168,-7.2168,-7.3014,-7.3462,-7.35,-7.35,-7.35,-7.3514,-7.3514,-7.4361,-7.5976,-7.5976,-7.5976,-7.6015,-7.6015,-7.6015,-7.6015,-7.6015,-7.6015,-7.6015,-7.6015,-7.6015,-7.6015,-7.6015,-7.6015,-7.6015,-7.6015,-7.6015,-7.6015,-7.6015,-7.6015,-7.6015,-7.6015,-7.6015,-7.6015,-7.6015,-7.6015,-7.6015,-7.6015,-7.6015,-7.6015,-7.6015,-7.6015,-7.6015,-7.6015,-7.6015,-7.6015,-7.6015,-7.6015,-7.6015,-7.6015,-7.6015,-7.6015,-7.6015,-7.6015,-7.6015,-7.6015,-7.6015,-7.6015,-7.6015,-7.6015,-7.6015,-7.6015,-7.6015,-7.6015,-7.6015,-7.6015,-7.6015,-7.6015,-7.6015,-7.6015,-7.6015,-7.6015,-7.6015,-7.6015,-7.6015,-7.6015,-7.6015,-7.6015,-7.6015,-3.99,-4.2209,0.0,-4.6932,0.0,0.0,0.0,-5.8165,0.0,0.0,-6.3243,-6.3358,-6.3012,0.0,0.0,-6.4089,-6.5359,-6.6551,-6.7359,-6.8244,-6.909,-6.9937,0.0,0.0,0.0,0.0,0.0,0.0,0.0,0.0,0.0,-7.1168,-7.1283,-7.1283,-7.1552,-7.1975,-7.2591,-7.2591,-7.2899,-7.3514,-7.3514,-7.4053,-7.5091,-7.5091,-7.5438,-7.6015,-7.6015,-7.6015,-7.6015,-7.6015,-7.6015,-7.6015,-7.6015,-7.6015,-7.6015,-7.6015,-7.6015,-7.6015,-7.6015,-7.6015,-7.6015,-7.6015,-7.6015,-7.6015,-7.6015,-7.6015,-7.6015,-7.6015,-7.6015,-7.6015,-7.6015,-7.6015,-7.6015,-7.6015,-7.6015,-7.6015,-7.6015,-7.6015,-7.6015,-7.6015,-7.6015,-7.6015,-7.6015,-7.6015,-7.6015,-7.6015,-7.6015,-7.6015,-7.6015,-7.6015,-7.6015,-7.6015,-7.6015,-7.6015,-7.6015,-7.6015,-7.6015,-7.6015,-7.6015,-7.6015,-7.6015,-7.6015,-7.6015,-7.6015,-7.6015,-7.6015,-7.6015,-7.6015,-7.6015,-7.6015,-7.6015,-7.6015,-4.1131,-4.3893,0.0,-4.9548,-5.2933,-5.6434,-5.9165,0.0,0.0,0.0,0.0,-6.4436,-6.3897,-6.382,0.0,-6.4512,-6.532,-6.6167,-6.6974,-6.7552,-6.8205,-6.909,0.0,0.0,0.0,0.0,0.0,0.0,0.0,0.0,0.0,-7.0898,-7.0898,-7.0898,-7.0898,-7.1168,-7.1668,-7.1668,-7.1937,-7.2476,-7.2476,-7.2899,-7.3707,-7.4091,-7.4514,-7.5014,-7.5014,-7.5014,-7.5014,-7.5014,-7.5014,-7.5014,-7.5014,-7.5014,-7.5014,-7.5014,-7.5014,-7.5014,-7.5014,-7.5014,-7.5053,-7.5399,-7.5476,-7.5553,-7.5899,-7.6015,-7.6015,-7.6015,-7.6015,-7.6015,-7.6015,-7.6015,-7.6015,-7.6015,-7.6015,-7.6015,-7.6015,-7.6015,-7.6015,-7.6015,-7.6015,-7.6015,-7.6015,-7.6015,-7.6015,-7.6015,-7.6015,-7.6015,-7.6015,-7.6015,-7.6015,-7.6015,-7.6015,-7.6015,-7.6015,-7.6015,-7.6015,-7.6015,-7.6015,-7.6015,-7.6015,-7.6015,-7.6015,-7.6015,-7.6015,-7.6015,-7.6015,-7.6015,-7.6015,-7.6015,-7.6015,-7.6015,-4.3508,-4.6163,0.0,-5.2549,-5.4818,0.0,-6.1177,-6.2666,-6.3666,-6.532,0.0,-6.4589,-6.4589,-6.4666,-6.4705,-6.4705,-6.5397,-6.6167,-6.6898,-6.6974,-6.7321,-6.8167,0.0,0.0,0.0,0.0,0.0,0.0,0.0,0.0,0.0,-7.0667,-7.0706,-7.0783,-7.0783,-7.0821,-7.0898,-7.0898,-7.0898,-7.0898,-7.0898,-7.1321,-7.2091,-7.2976,-7.3437,-7.3514,-7.3514,-7.3514,-7.3514,-7.3514,-7.3514,-7.3514,-7.3514,-7.3514,-7.3514,-7.3514,-7.3514,-7.3514,-7.3514,-7.3514,-7.363,-7.4361,-7.463,-7.4861,-7.563,-7.5938,-7.6015,-7.6015,-7.6015,-7.6015,-7.6015,-7.6015,-7.6015,-7.6015,-7.6015,-7.6015,-7.6015,-7.6015,-7.6015,-7.6015,-7.6015,-7.6015,-7.6015,-7.6015,-7.6015,-7.6015,-7.6015,-7.6015,-7.6015,-7.6015,-7.6015,-7.6015,-7.6015,-7.6015,-7.6015,-7.6015,-7.6015,-7.6015,-7.6015,-7.6015,-7.6015,-7.6015,-7.6015,-7.6015,-7.6015,-7.6015,-7.6015,-7.6015,-7.6015,-7.6015,-7.6015,-7.6015,-4.2854,-4.6163,0.0,0.0,-5.7434,-6.0127,-6.1716,-6.2216,-6.2627,-6.3666,-6.4243,-6.4589,-6.4589,-6.5166,-6.5628,-6.5628,-6.5782,-6.5974,-6.6128,-6.6167,-6.6474,0.0,0.0,0.0,0.0,0.0,0.0,0.0,0.0,0.0,-6.8936,-6.8936,-6.9244,-6.9937,-6.9975,-7.0244,-7.0898,-7.0898,-7.0898,0.0,-7.0898,-7.1014,-7.1206,-7.2091,-7.286,-7.3514,-7.3514,-7.3514,-7.3514,-7.3514,-7.3514,-7.3514,-7.3514,-7.3514,-7.3514,-7.3514,-7.3514,-7.3514,-7.3514,-7.3514,-7.3553,-7.3707,-7.4207,-7.4745,-7.4938,-7.5476,-7.6015,-7.6015,-7.6015,-7.6015,-7.6015,-7.6015,-7.6015,-7.6015,-7.6015,-7.6015,-7.6015,-7.6015,-7.6015,-7.6015,-7.6015,-7.6015,-7.6015,-7.6015,-7.6015,-7.6015,-7.6015,-7.6015,-7.6015,-7.6015,-7.6015,-7.6015,-7.6015,-7.6015,-7.6015,-7.6015,-7.6015,-7.6015,-7.6015,-7.6015,-7.6015,-7.6015,-7.6015,-7.6015,-7.6015,-7.6015,-7.6015,-7.6015,-7.6015,-7.6015,-7.6015,-7.6015,-4.3278,0.0,0.0,-5.6242,0.0,-6.0935,-6.1358,-6.1485,-6.1589,-6.2012,-6.3089,-6.3974,-6.3974,-6.4705,-6.5282,-6.5282,-6.5628,-6.5897,-6.5897,-6.5897,-6.6051,0.0,0.0,0.0,0.0,0.0,0.0,0.0,0.0,-6.8385,-6.8385,-6.8385,-6.8629,-6.9052,-6.909,-6.9283,-6.9706,-7.0129,-7.0321,-7.0321,-7.0706,-7.0898,-7.0937,-7.136,-7.1822,-7.2245,-7.2245,-7.2245,-7.2245,-7.2245,-7.2245,-7.2245,-7.2245,-7.2245,-7.2245,-7.2245,-7.2245,-7.2245,-7.2245,-7.2245,-7.2322,-7.2745,-7.3168,-7.3668,-7.4476,-7.5014,-7.5476,-7.5861,-7.6015,-7.6015,-7.6015,-7.6015,-7.6015,-7.6015,-7.6015,-7.6015,-7.6015,-7.6015,-7.6015,-7.6015,-7.6015,-7.6015,-7.6015,-7.6015,-7.6015,-7.6015,-7.6015,-7.6015,-7.6015,-7.6015,-7.6015,-7.6015,-7.6015,-7.6015,-7.6015,-7.6015,-7.6015,-7.6015,-7.6015,-7.6015,-7.6015,-7.6015,-7.6015,-7.6015,-7.6015,-7.6015,-7.6015,-7.6015,-7.6015,-7.6015,-7.6015,-7.6015,-4.2854,0.0,-5.2241,-5.7896,-6.005,0.0,-6.0781,-6.0781,-6.0781,-6.0781,-6.2012,-6.3089,-6.3089,-6.382,-6.4397,-6.4397,-6.5128,-6.5667,-6.5667,-6.582,-6.5897,0.0,0.0,0.0,0.0,0.0,0.0,0.0,0.0,-6.7975,-6.7975,-6.7975,-6.8052,-6.8167,-6.8167,-6.8244,-6.8385,-6.9129,-6.9475,-6.9475,-7.0283,-7.0706,-7.0706,-7.0821,-7.0898,-7.0898,-7.0898,-7.0898,-7.0898,-7.0898,-7.0898,-7.0898,-7.0898,-7.0898,-7.0898,-7.0898,-7.0898,-7.0898,-7.0898,-7.0898,-7.1014,-7.1745,-7.2091,-7.2437,-7.386,-7.4476,-7.4861,-7.5553,-7.5861,-7.6015,-7.6015,-7.6015,-7.6015,-7.6015,-7.6015,-7.6015,-7.6015,-7.6015,-7.6015,-7.6015,-7.6015,-7.6015,-7.6015,-7.6015,-7.6015,-7.6015,-7.6015,-7.6015,-7.6015,-7.6015,-7.6015,-7.6015,-7.6015,-7.6015,-7.6015,-7.6015,-7.6015,-7.6015,-7.6015,-7.6015,-7.6015,-7.6015,-7.6015,-7.6015,-7.6015,-7.6015,-7.6015,-7.6015,-7.6015,-7.6015,-7.6015,-7.6015,-3.8392,0.0,-5.2808,0.0,-5.9627,-6.0781,0.0,0.0,-6.0781,0.0,-6.1589,-6.2255,-6.2255,-6.2935,-6.3462,-6.3462,-6.4205,-6.4782,-6.4782,-6.5436,-6.5897,0.0,0.0,0.0,0.0,0.0,0.0,0.0,-6.6167,-6.6244,-6.6244,-6.6244,-6.6551,-6.7244,-6.7282,-6.7628,-6.8385,-6.8513,-6.8577,-6.859,-6.9436,-6.986,-6.9898,-7.0591,-7.0898,-7.0898,-7.0898,-7.0898,-7.0898,-7.0898,-7.0898,-7.0898,-7.0898,-7.0898,-7.0898,-7.0898,-7.0898,-7.0898,-7.0898,-7.0898,-7.0937,-7.1052,-7.1591,-7.2245,-7.2476,-7.3553,-7.4707,-7.4861,-7.5438,-7.6015,-7.6015,-7.6015,-7.6015,-7.6015,-7.6015,-7.6015,-7.6015,-7.6015,-7.6015,-7.6015,-7.6015,-7.6015,-7.6015,-7.6015,-7.6015,-7.6015,-7.6015,-7.6015,-7.6015,-7.6015,-7.6015,-7.6015,-7.6015,-7.6015,-7.6015,-7.6015,-7.6015,-7.6015,-7.6015,-7.6015,-7.6015,-7.6015,-7.6015,-7.6015,-7.6015,-7.6015,-7.6015,-7.6015,-7.6015,-7.6015,-7.6015,-7.6015,-4.0739,-4.6278,-5.1741,0.0,-5.8858,-5.9665,-6.0589,0.0,-6.0781,-6.0781,-6.1089,-6.1358,-6.1358,-6.205,-6.2627,-6.2627,-6.332,-6.3858,-6.3858,-6.4205,-6.4436,0.0,0.0,0.0,0.0,0.0,0.0,0.0,-6.5897,-6.5897,-6.5897,-6.5897,-6.6051,-6.6397,-6.6436,-6.659,-6.7013,-6.7436,-6.7936,-6.8385,-6.8783,-6.8975,-6.8975,-6.936,-7.0014,-7.0898,-7.0898,-7.0898,-7.0898,-7.0898,-7.0898,-7.0898,-7.0898,-7.0898,-7.0898,-7.0898,-7.0898,-7.0898,-7.0898,-7.0898,-7.0898,-7.0898,-7.1168,-7.1552,-7.2052,-7.2706,-7.3514,-7.4437,-7.4976,-7.5399,-7.5861,-7.6015,-7.6015,-7.6015,-7.6015,-7.6015,-7.6015,-7.6015,-7.6015,-7.6015,-7.6015,-7.6015,-7.6015,-7.6015,-7.6015,-7.6015,-7.6015,-7.6015,-7.6015,-7.6015,-7.6015,-7.6015,-7.6015,-7.6015,-7.6015,-7.6015,-7.6015,-7.6015,-7.6015,-7.6015,-7.6015,-7.6015,-7.6015,-7.6015,-7.6015,-7.6015,-7.6015,-7.6015,-7.6015,-7.6015,-7.6015,-7.6015,0.0,0.0,-4.8856,-5.4587,-5.6857,-5.8088,0.0,0.0,-6.0512,0.0,-6.0781,-6.0781,-6.0781,-6.132,-6.1793,-6.1793,-6.2474,-6.3012,-6.3012,-6.3166,0.0,0.0,0.0,0.0,0.0,0.0,0.0,0.0,-6.5243,-6.532,-6.5551,-6.5551,-6.5667,-6.5897,-6.5897,-6.5897,-6.5897,-6.6513,-6.7128,-6.7782,-6.7975,-6.809,-6.809,-6.8321,-6.909,-7.0283,-7.0514,-7.0706,-7.0898,-7.0898,-7.0898,-7.0898,-7.0898,-7.0898,-7.0898,-7.0898,-7.0898,-7.0898,-7.0898,-7.0898,-7.0898,-7.0898,-7.0898,-7.1014,-7.1668,-7.2014,-7.2514,-7.3976,-7.4553,-7.4899,-7.5784,-7.6015,-7.6015,-7.6015,-7.6015,-7.6015,-7.6015,-7.6015,-7.6015,-7.6015,-7.6015,-7.6015,-7.6015,-7.6015,-7.6015,-7.6015,-7.6015,-7.6015,-7.6015,-7.6015,-7.6015,-7.6015,-7.6015,-7.6015,-7.6015,-7.6015,-7.6015,-7.6015,-7.6015,-7.6015,-7.6015,-7.6015,-7.6015,-7.6015,-7.6015,-7.6015,-7.6015,-7.6015,-7.6015,-7.6015,-7.6015,-7.6015,0.0,-4.0277,0.0,-4.8586,-5.2856,0.0,0.0,0.0,-5.9819,-6.0627,-6.0781,-6.0781,-6.0781,-6.0819,-6.0858,-6.0858,-6.1589,-6.2178,-6.2178,-6.282,0.0,0.0,0.0,0.0,0.0,0.0,0.0,0.0,-6.3435,-6.382,-6.4628,-6.4666,-6.5051,-6.5859,-6.5897,-6.5897,-6.5897,-6.5936,-6.5974,-6.6051,-6.6782,-6.7167,-6.7205,-6.8013,-6.8462,-6.859,-6.9398,-7.0206,-7.0898,-7.0898,-7.0898,-7.0898,-7.0898,-7.0898,-7.0898,-7.0898,-7.0898,-7.0898,-7.0898,-7.0898,-7.0898,-7.0898,-7.0898,-7.0898,-7.0937,-7.1552,-7.2399,-7.3322,-7.413,-7.4899,-7.5784,-7.6015,-7.6015,-7.6015,-7.6015,-7.6015,-7.6015,-7.6015,-7.6015,-7.6015,-7.6015,-7.6015,-7.6015,-7.6015,-7.6015,-7.6015,-7.6015,-7.6015,-7.6015,-7.6015,-7.6015,-7.6015,-7.6015,-7.6015,-7.6015,-7.6015,-7.6015,-7.6015,-7.6015,-7.6015,-7.6015,-7.6015,-7.6015,-7.6015,-7.6015,-7.6015,-7.6015,-7.6015,-7.6015,-7.6015,-7.6015,-7.6015,0.0,0.0,0.0,-4.5825,-4.975,-5.2933,-5.4626,-5.7357,-5.9435,-5.9242,-6.005,-6.0781,-6.0781,-6.0781,-6.0781,-6.0781,-6.105,-6.1281,-6.1281,-6.1512,0.0,0.0,0.0,0.0,0.0,0.0,0.0,0.0,0.0,-6.3435,-6.3743,-6.3782,-6.4166,-6.5051,-6.5051,-6.532,-6.5897,-6.5897,-6.5897,-6.5897,-6.6205,-6.632,-6.632,-6.6667,-6.709,-6.759,-6.7898,-6.8821,-7.0129,-7.0129,-7.0437,-7.0898,-7.0898,-7.0898,-7.0898,-7.0898,-7.0898,-7.0898,-7.0898,-7.0898,-7.0898,-7.0898,-7.0898,-7.0898,-7.0898,-7.1129,-7.1668,-7.3091,-7.3707,-7.4245,-7.563,-7.6015,-7.6015,-7.6015,-7.6015,-7.6015,-7.6015,-7.6015,-7.6015,-7.6015,-7.6015,-7.6015,-7.6015,-7.6015,-7.6015,-7.6015,-7.6015,-7.6015,-7.6015,-7.6015,-7.6015,-7.6015,-7.6015,-7.6015,-7.6015,-7.6015,-7.6015,-7.6015,-7.6015,-7.6015,-7.6015,-7.6015,-7.6015,-7.6015,-7.6015,-7.6015,-7.6015,-7.6015,-7.6015,-7.6015,-7.6015,-7.6015,-3.3923,0.0,0.0,0.0,0.0,-4.8586,-5.201,0.0,-5.7049,-5.7357,-5.8973,-6.0358,-6.0358,-6.0589,-6.0781,-6.0781,-6.0781,-6.0781,-6.0781,-6.0781,0.0,0.0,0.0,0.0,0.0,0.0,0.0,0.0,0.0,0.0,-6.2897,-6.2897,-6.3281,-6.4128,-6.4166,-6.4589,-6.5474,-6.5474,-6.559,-6.5897,-6.5897,-6.5897,-6.5897,-6.5897,-6.6205,-6.6705,-6.6705,-6.7667,-6.9244,-6.9244,-6.9744,-7.0514,-7.0514,-7.0667,-7.0898,-7.0898,-7.0898,-7.0898,-7.0898,-7.0898,-7.0898,-7.0898,-7.0898,-7.0898,-7.0898,-7.0898,-7.1206,-7.2668,-7.3283,-7.3822,-7.5207,-7.5784,-7.6015,-7.6015,-7.6015,-7.6015,-7.6015,-7.6015,-7.6015,-7.6015,-7.6015,-7.6015,-7.6015,-7.6015,-7.6015,-7.6015,-7.6015,-7.6015,-7.6015,-7.6015,-7.6015,-7.6015,-7.6015,-7.6015,-7.6015,-7.6015,-7.6015,-7.6015,-7.6015,-7.6015,-7.6015,-7.6015,-7.6015,-7.6015,-7.6015,-7.6015,-7.6015,-7.6015,-7.6015,-7.6015,-7.6015,-7.6015,0.0,0.0,0.0,0.0,0.0,0.0,-5.0038,0.0,-5.2423,-5.5011,-5.755,-5.9358,-5.9396,-6.0165,-6.0742,-6.0742,-6.0781,-6.0781,-6.0781,-6.0793,0.0,0.0,0.0,0.0,0.0,0.0,0.0,0.0,-6.0871,-6.1166,-6.2024,-6.2101,-6.2474,-6.3243,-6.3269,-6.3705,-6.4551,-6.4551,-6.5013,-6.5859,-6.5859,-6.5859,-6.5897,-6.5897,-6.5897,-6.5897,-6.5897,-6.6821,-6.8308,-6.8359,-6.8898,-6.9667,-6.9706,-7.0167,-7.086,-7.0898,-7.0898,-7.0898,-7.0898,-7.0898,-7.0898,-7.0898,-7.0898,-7.0898,-7.0898,-7.0898,-7.1091,-7.1937,-7.2822,-7.3707,-7.4514,-7.5361,-7.6015,-7.6015,-7.6015,-7.6015,-7.6015,-7.6015,-7.6015,-7.6015,-7.6015,-7.6015,-7.6015,-7.6015,-7.6015,-7.6015,-7.6015,-7.6015,-7.6015,-7.6015,-7.6015,-7.6015,-7.6015,-7.6015,-7.6015,-7.6015,-7.6015,-7.6015,-7.6015,-7.6015,-7.6015,-7.6015,-7.6015,-7.6015,-7.6015,-7.6015,-7.6015,-7.6015,-7.6015,-7.6015,-7.6015,-7.6015,-3.2929,0.0,0.0,0.0,0.0,0.0,0.0,0.0,-4.824,-5.1443,-5.3626,-5.5511,-5.7368,-5.8896,-5.9858,-5.9858,-6.0396,-6.0781,-6.0781,-6.0892,0.0,0.0,0.0,0.0,0.0,0.0,0.0,0.0,-6.0827,-6.0896,-6.1127,-6.1755,-6.2216,-6.2397,-6.3012,-6.3423,-6.3666,-6.3666,-6.4089,-6.4974,-6.4974,-6.5282,-6.5897,-6.5897,-6.5897,-6.5897,-6.5897,-6.6167,-6.6628,-6.7205,-6.7975,-6.8821,-6.9436,-6.986,-7.009,-7.0706,-7.0898,-7.0898,-7.0898,-7.0898,-7.0898,-7.0898,-7.0898,-7.0898,-7.0898,-7.0898,-7.1091,-7.1937,-7.2822,-7.3822,-7.5284,-7.5822,-7.6015,-7.6015,-7.6015,-7.6015,-7.6015,-7.6015,-7.6015,-7.6015,-7.6015,-7.6015,-7.6015,-7.6015,-7.6015,-7.6015,-7.6015,-7.6015,-7.6015,-7.6015,-7.6015,-7.6015,-7.6015,-7.6015,-7.6015,-7.6015,-7.6015,-7.6015,-7.6015,-7.6015,-7.6015,-7.6015,-7.6015,-7.6015,-7.6015,-7.6015,-7.6015,-7.6015,-7.6015,-7.6015,-7.6015,-7.6015,-3.4853,-3.5231,-3.6115,0.0,0.0,0.0,-4.1208,-4.3085,-4.5086,0.0,-5.1241,-5.3241,-5.5049,-5.6511,-5.7627,-5.8319,-5.9204,-6.0012,-6.0704,-6.0915,0.0,0.0,0.0,0.0,0.0,-6.114,-6.112,-6.1081,-6.1036,-6.0974,-6.0902,-6.1355,-6.161,-6.1562,-6.2012,-6.2435,-6.2781,-6.2781,-6.3205,-6.4051,-6.4436,-6.4859,-6.5359,-6.5743,-6.5897,-6.5897,-6.5897,-6.5897,-6.5936,-6.6397,-6.709,-6.7898,-6.8436,-6.9052,-6.9744,-7.0244,-7.0591,-7.0898,-7.0898,-7.0898,-7.0898,-7.0898,-7.0898,-7.0898,-7.0898,-7.0898,-7.1014,-7.1514,-7.2552,-7.3822,-7.513,-7.5745,-7.6015,-7.6015,-7.6015,-7.6015,-7.6015,-7.6015,-7.6015,-7.6015,-7.6015,-7.6015,-7.6015,-7.6015,-7.6015,-7.6015,-7.6015,-7.6015,-7.6015,-7.6015,-7.6015,-7.6015,-7.6015,-7.6015,-7.6015,-7.6015,-7.6015,-7.6015,-7.6015,-7.6015,-7.6015,-7.6015,-7.6015,-7.6015,-7.6015,-7.6015,-7.6015,-7.6015,-7.6015,-7.6015,-7.6015,-7.6015,-3.7392,-3.7192,-3.7738,0.0,0.0,0.0,-4.2162,-4.2393,-4.2508,0.0,-4.9048,-5.1,-5.2125,-5.3203,-5.4434,-5.5906,-5.7198,-5.8671,-6.0453,-6.0887,0.0,0.0,0.0,0.0,-6.1498,-6.1383,-6.1359,-6.1485,-6.1359,-6.122,-6.1048,-6.1014,-6.0935,-6.085,-6.0804,-6.1166,-6.1947,-6.1947,-6.2358,-6.3166,-6.3935,-6.4436,-6.4628,-6.5397,-6.582,-6.5897,-6.5897,-6.5897,-6.5897,-6.5897,-6.632,-6.6974,-6.7051,-6.8052,-6.9436,-6.9629,-7.0167,-7.0783,-7.086,-7.0898,-7.0912,-7.0939,-7.0914,-7.0927,-7.0966,-7.0979,-7.0979,-7.1056,-7.2199,-7.3625,-7.4511,-7.532,-7.595,-7.6027,-7.6038,-7.6048,-7.6048,-7.6005,-7.6015,-7.6015,-7.6015,-7.6015,-7.6015,-7.6015,-7.6015,-7.6015,-7.6015,-7.6015,-7.6015,-7.6015,-7.6015,-7.6015,-7.6015,-7.6015,-7.6015,-7.6015,-7.6015,-7.6015,-7.6015,-7.6015,-7.6015,-7.6015,-7.6015,-7.6015,-7.6015,-7.6015,-7.6015,-7.6015,-7.6015,-7.6015,-7.6015,-7.6015,-4.0208,-4.0277,0.0,0.0,0.0,0.0,-3.8354,-3.8469,-3.9354,0.0,-4.2401,-4.3632,-4.6556,-4.8894,-5.051,-5.0818,-5.3955,-5.7211,-5.9657,-6.0701,0.0,0.0,0.0,0.0,-6.1507,-6.1488,-6.1413,-6.1339,-6.1301,-6.1271,-6.124,-6.1097,-6.0979,-6.0973,-6.0877,-6.0858,-6.105,-6.105,-6.1473,-6.232,-6.2512,-6.3281,-6.4628,-6.4782,-6.5243,-6.5897,-6.5897,-6.5897,-6.5897,-6.5897,-6.5974,-6.6205,-6.6859,-6.7321,-6.7782,-6.9167,-6.9821,-7.0014,-7.0667,-7.0898,-7.0952,-7.1097,-7.1137,-7.118,-7.1344,-7.1365,-7.152,-7.2172,-7.2599,-7.3221,-7.4775,-7.5318,-7.559,-7.6337,-7.6341,-7.6254,-7.6254,-7.6108,-7.6015,-7.6015,-7.6015,-7.6015,-7.6015,-7.6015,-7.6015,-7.6015,-7.6015,-7.6015,-7.6015,-7.6015,-7.6015,-7.6015,-7.6015,-7.6015,-7.6015,-7.6015,-7.6015,-7.6015,-7.6015,-7.6015,-7.6015,-7.6015,-7.6015,-7.6015,-7.6015,-7.6015,-7.6015,-7.6015,-7.6015,-7.6015,-7.6015,-7.6015,-4.2895,0.0,0.0,-4.1354,0.0,0.0,0.0,-3.8892,-3.8854,-4.1777,-4.1401,-4.1401,-4.4402,-4.6009,-4.7124,-4.8009,-5.1095,-5.3979,-5.5754,-5.8387,-6.0118,0.0,0.0,0.0,-6.0378,-6.0728,-6.1108,-6.1468,-6.1504,-6.1485,-6.1392,-6.1289,-6.1175,-6.1006,-6.0916,-6.086,-6.0781,-6.0781,-6.1012,-6.1447,-6.1908,-6.2563,-6.3358,-6.4205,-6.4859,-6.5282,-6.5705,-6.5897,-6.5897,-6.5897,-6.5897,-6.5936,-6.632,-6.6744,-6.7205,-6.809,-6.8936,-6.9744,-7.0167,-7.0552,-7.0914,-7.1126,-7.1221,-7.1233,-7.142,-7.1478,-7.1594,-7.1984,-7.2412,-7.291,-7.3766,-7.4668,-7.5408,-7.5836,-7.6233,-7.6457,-7.6457,-7.6351,-7.6289,-7.6172,-7.6135,-7.6108,-7.6005,-7.6015,-7.6015,-7.6015,-7.6015,-7.6015,-7.6015,-7.6015,-7.6015,-7.6015,-7.6015,-7.6015,-7.6015,-7.6015,-7.6015,-7.6015,-7.6015,-7.6015,-7.6015,-7.6015,-7.6015,-7.6015,-7.6015,-7.6015,-7.6015,-7.6015,-7.6015,-7.6015,-7.6015,-7.6015,0.0,0.0,0.0,0.0,0.0,-4.167,0.0,0.0,0.0,-4.247,-4.1431,0.0,0.0,0.0,0.0,0.0,0.0,0.0,0.0,-5.4338,0.0,0.0,0.0,0.0,-5.8672,-5.9101,-5.9882,-6.1133,-6.0898,-6.0853,-6.1252,-6.1434,-6.1392,-6.1097,-6.1089,-6.1018,-6.092,-6.092,-6.092,-6.091,-6.1615,-6.2039,-6.2232,-6.3571,-6.4381,-6.4729,-6.5423,-6.5847,-6.6013,-6.6013,-6.6013,-6.6001,-6.5909,-6.6282,-6.6898,-6.7051,-6.809,-6.9475,-6.9629,-7.0246,-7.0979,-7.1211,-7.1278,-7.1389,-7.1536,-7.1616,-7.1616,-7.1616,-7.2039,-7.2585,-7.278,-7.387,-7.4961,-7.5117,-7.58,-7.6404,-7.6398,-7.6494,-7.6537,-7.6381,-7.6379,-7.6261,-7.6048,-7.6015,-7.6015,-7.6015,-7.6015,-7.6015,-7.6015,-7.6015,-7.6015,-7.6015,-7.6015,-7.6015,-7.6015,-7.6015,-7.6015,-7.6015,-7.6015,-7.6015,-7.6015,-7.6015,-7.6015,-7.6015,-7.6015,-7.6015,-7.6015,-7.6015,-7.6015,-7.6015,-7.6015,-7.6015,0.0,0.0,0.0,0.0,-4.7441,0.0,0.0,0.0,-4.0854,-3.9084,0.0,0.0,0.0,0.0,0.0,0.0,0.0,0.0,-4.4511,-4.8167,-5.1839,-5.4101,0.0,0.0,0.0,-5.6163,-5.6745,-5.9297,-5.7921,-5.8034,-6.039,-6.1145,-6.1495,-6.1435,-6.1334,-6.1253,-6.1227,-6.1227,-6.1227,-6.1227,-6.1344,-6.1771,-6.2464,-6.2659,-6.3592,-6.5037,-6.5153,-6.562,-6.6327,-6.6327,-6.6327,-6.629,-6.6008,-6.5974,-6.6128,-6.6821,-6.7705,-6.8667,-6.9436,-7.0334,-7.1221,-7.1381,-7.1677,-7.1907,-7.1949,-7.1949,-7.1949,-7.1949,-7.2028,-7.2262,-7.3043,-7.3395,-7.3707,-7.4488,-7.5199,-7.569,-7.5725,-7.6181,-7.6575,-7.6552,-7.6583,-7.6448,-7.6066,-7.6015,-7.6015,-7.6015,-7.6015,-7.6015,-7.6015,-7.6015,-7.6015,-7.6015,-7.6015,-7.6015,-7.6015,-7.6015,-7.6015,-7.6015,-7.6015,-7.6015,-7.6015,-7.6015,-7.6015,-7.6015,-7.6015,-7.6015,-7.6015,-7.6015,-7.6015,-7.6015,-7.6015,-7.6015,0.0,0.0,0.0,0.0,0.0,0.0,-4.2735,0.0,-4.0404,0.0,0.0,0.0,0.0,0.0,0.0,0.0,-4.1369,0.0,0.0,0.0,-4.6215,0.0,0.0,0.0,0.0,0.0,0.0,0.0,-5.6209,-5.6911,-5.957,-6.0425,-6.1073,-6.1504,-6.1467,-6.1369,-6.1289,-6.1283,-6.1283,-6.1283,-6.1283,-6.1478,-6.1828,-6.2289,-6.319,-6.4357,-6.4863,-6.5602,-6.6387,-6.6387,-6.6387,-6.6374,-6.6243,-6.6212,-6.6251,-6.6552,-6.7211,-6.8055,-6.8917,-6.9834,-7.072,-7.1416,-7.1795,-7.1992,-7.1992,-7.1992,-7.1992,-7.1992,-7.1992,-7.207,-7.2461,-7.293,-7.3398,-7.375,-7.484,-7.5768,-7.5768,-7.6375,-7.6926,-7.6785,-7.6765,-7.6696,-7.6391,-7.6266,-7.6147,-7.6005,-7.6015,-7.6015,-7.6015,-7.6015,-7.6015,-7.6015,-7.6015,-7.6015,-7.6015,-7.6015,-7.6015,-7.6015,-7.6015,-7.6015,-7.6015,-7.6015,-7.6015,-7.6015,-7.6015,-7.6015,-7.6015,-7.6015,-7.6015,-7.6015,-7.6015,-7.6015,-5.2983,0.0,0.0,0.0,0.0,0.0,0.0,0.0,0.0,0.0,0.0,0.0,0.0,0.0,0.0,0.0,0.0,-4.048,0.0,0.0,0.0,0.0,0.0,0.0,0.0,0.0,0.0,0.0,0.0,-5.4608,-5.7969,-5.914,-6.0153,-6.118,-6.1414,-6.1507,-6.14,-6.14,-6.14,-6.14,-6.14,-6.14,-6.1439,-6.202,-6.276,-6.3618,-6.4514,-6.5372,-6.6195,-6.6429,-6.6546,-6.6546,-6.6546,-6.6546,-6.6537,-6.6423,-6.6932,-6.7703,-6.8333,-6.9292,-7.0442,-7.1462,-7.1864,-7.1992,-7.1992,-7.1992,-7.1992,-7.1992,-7.1992,-7.1992,-7.1992,-7.2461,-7.293,-7.293,-7.4297,-7.5547,-7.5547,-7.6406,-7.7147,-7.7002,-7.6993,-7.6926,-7.6721,-7.6535,-7.6316,-7.6108,-7.6093,-7.6052,-7.6029,-7.6015,-7.6015,-7.6015,-7.6015,-7.6015,-7.6015,-7.6015,-7.6015,-7.6015,-7.6015,-7.6015,-7.6015,-7.6015,-7.6015,-7.6015,-7.6015,-7.613,-7.6361,-7.6361,-7.6476,-7.6669,-7.6476,-7.6361,0.0,0.0,0.0,-5.0165,0.0,0.0,0.0,0.0,-4.5087,0.0,0.0,0.0,0.0,0.0,0.0,-3.9598,0.0,0.0,0.0,0.0,0.0,0.0,0.0,0.0,0.0,0.0,0.0,0.0,-4.9129,0.0,-5.5156,-5.7031,-5.8711,-6.039,-6.125,-6.1679,-6.1679,-6.1679,-6.1679,-6.1679,-6.1679,-6.1679,-6.1679,-6.1718,-6.2187,-6.3085,-6.3945,-6.4804,-6.5703,-6.6523,-6.6874,-6.6874,-6.6874,-6.6874,-6.6833,-6.6532,-6.6932,-6.7587,-6.7626,-6.8899,-7.0645,-7.1675,-7.1992,-7.1992,-7.1992,-7.1992,-7.1992,-7.1992,-7.1992,-7.1992,-7.1992,-7.2031,-7.2031,-7.2031,-7.3359,-7.4648,-7.4648,-7.5976,-7.7187,-7.7187,-7.7187,-7.7144,-7.6929,-7.6727,-7.6505,-7.6327,-7.6284,-7.6219,-7.602,-7.6015,-7.6015,-7.6015,-7.6015,-7.6015,-7.6015,-7.6015,-7.6015,-7.6015,-7.6015,-7.6015,-7.6015,-7.6015,-7.6015,-7.6015,-7.6015,-7.6399,-7.7246,-7.7246,-7.7669,-7.84,-7.763,-7.7246,0.0,0.0,-5.8609,-5.3418,0.0,0.0,0.0,0.0,0.0,0.0,0.0,0.0,0.0,0.0,-4.1817,-4.1246,-4.0397,0.0,0.0,0.0,0.0,0.0,0.0,0.0,0.0,0.0,0.0,0.0,-4.7884,0.0,0.0,-5.6328,-5.8437,-5.957,-6.0976,-6.1719,-6.1719,-6.1719,-6.1719,-6.1719,-6.1719,-6.1719,-6.1719,-6.1719,-6.2187,-6.3047,-6.3906,-6.4805,-6.5664,-6.6523,-6.6914,-6.6914,-6.6914,-6.6914,-6.6875,-6.6781,-6.6885,-6.7234,-6.7783,-6.9161,-7.0697,-7.1015,-7.1523,-7.1992,-7.1992,-7.1992,-7.1992,-7.1992,-7.1992,-7.1992,-7.1992,-7.1992,-7.1992,-7.1992,-7.289,-7.3906,-7.4492,-7.5508,-7.6523,-7.7109,-7.7187,-7.7187,-7.7103,-7.705,-7.6847,-7.6351,-7.6295,-7.6231,-7.602,-7.6015,-7.6015,-7.6015,-7.6015,-7.6015,-7.6015,-7.6015,-7.6015,-7.6015,-7.6015,-7.6015,-7.6015,-7.6015,-7.6284,-7.6861,-7.6861,-7.7284,-7.8092,-7.8092,-7.8207,-7.8515,-7.8823,-7.8631,-5.9375,-5.9805,0.0,-5.5469,-5.359,0.0,-4.6953,0.0,-4.7721,0.0,0.0,0.0,0.0,0.0,0.0,-4.3379,-4.1087,0.0,0.0,-3.5161,0.0,0.0,0.0,0.0,0.0,0.0,-4.3351,-4.526,-4.5858,0.0,0.0,0.0,-5.6875,-5.8672,-6.0351,-6.1406,-6.1719,-6.1719,-6.1719,-6.1719,-6.1719,-6.1719,-6.1719,-6.1719,-6.1992,-6.2617,-6.3789,-6.4609,-6.5234,-6.6406,-6.6914,-6.6914,-6.6914,-6.6914,-6.6914,-6.6914,-6.6914,-6.7031,-6.789,-6.9101,-7.0273,-7.0586,-7.1289,-7.1992,-7.1992,-7.1992,-7.1992,-7.1992,-7.1992,-7.1992,-7.1992,-7.1992,-7.1992,-7.1992,-7.2656,-7.3555,-7.4414,-7.5273,-7.6172,-7.7031,-7.7187,-7.7187,-7.7187,-7.7187,-7.705,-7.6567,-7.6457,-7.6348,-7.6147,-7.6024,-7.6015,-7.6015,-7.6015,-7.6015,-7.6015,-7.6015,-7.6015,-7.6015,-7.6015,-7.6015,-7.6015,-7.6284,-7.6746,-7.7284,-7.7592,-7.813,-7.8977,-7.8977,-7.9131,-7.9438,-8.0015,-7.9977]},{"header":{"parameterUnit":"m.s-1","parameterCategory":1,"la1":30.6,"la2":29.2853,"lo1":-89.7004,"lo2":-87.6739,"dy":0.0162,"dx":0.0183,"nx":112,"ny":82,"refTime":"2024-05-16T06:00:00:Z","depth":0,"parameterNumber":3,"parameterNumberName":"V-component_of_WINDS"},"data":[0.0,0.0,0.0,0.0,0.0,0.0,0.0,0.0,0.0,0.0,0.0,0.0,0.0,0.0,0.0,0.0,0.0,0.0,0.0,0.0,0.0,0.0,0.0,0.0,0.0,0.0,0.0,0.0,0.0,0.0,0.0,0.0,0.0,0.0,0.0,0.0,0.0,0.0,0.0,0.0,0.0,0.0,0.0,0.0,0.0,0.0,0.0,0.0,0.0,0.0,0.0,0.0,0.0,0.0,0.0,0.0,0.0,0.0,0.0,0.0,0.0,0.0,0.0,0.0,0.0,0.0,0.0,0.0,0.0,0.0,0.0,0.0,0.0,0.0,0.0,0.0,0.0,0.0,0.0,0.0,0.0,0.0,0.0,0.0,0.0,0.0,0.0,0.0,0.0,0.0,-0.9578,-1.0765,-1.1857,-1.2454,-1.2332,-1.2121,-1.145,-1.0105,0.0,0.0,0.0,0.0,0.0,0.0,0.0,0.0,0.0,0.0,0.0,0.0,0.0,0.0,0.0,0.0,0.0,0.0,0.0,0.0,0.0,0.0,0.0,0.0,0.0,0.0,0.0,0.0,0.0,0.0,0.0,0.0,0.0,0.0,0.0,0.0,0.0,0.0,0.0,0.0,0.0,0.0,0.0,0.0,0.0,0.0,0.0,0.0,0.0,0.0,0.0,0.0,0.0,0.0,0.0,0.0,0.0,0.0,0.0,0.0,0.0,0.0,0.0,0.0,0.0,0.0,0.0,0.0,0.0,0.0,0.0,0.0,0.0,0.0,0.0,0.0,0.0,0.0,0.0,0.0,0.0,0.0,0.0,0.0,0.0,0.0,0.0,0.0,0.0,0.0,0.0,0.0,0.0,0.0,0.0,0.0,0.0,0.0,0.0,0.0,0.0,0.0,0.0,0.0,-0.9659,-1.147,-1.2169,-1.2494,-1.2474,-1.1986,-1.1274,-1.0304,0.0,0.0,0.0,0.0,0.0,0.0,0.0,0.0,0.0,0.0,0.0,0.0,0.0,0.0,0.0,0.0,0.0,0.0,0.0,0.0,0.0,0.0,0.0,0.0,0.0,0.0,0.0,0.0,0.0,0.0,0.0,0.0,0.0,0.0,0.0,0.0,0.0,0.0,0.0,0.0,0.0,0.0,0.0,0.0,0.0,0.0,0.0,0.0,0.0,0.0,0.0,0.0,0.0,0.0,0.0,0.0,0.0,0.0,0.0,0.0,0.0,0.0,0.0,0.0,0.0,0.0,0.0,0.0,0.0,0.0,0.0,0.0,0.0,0.0,0.0,0.0,0.0,0.0,0.0,0.0,0.0,0.0,0.0,0.0,0.0,0.0,0.0,0.0,0.0,0.0,0.0,0.0,0.0,0.0,0.0,0.0,0.0,0.0,0.0,0.0,0.0,0.0,0.0,-0.9639,-1.046,-1.1925,-1.2332,-1.2467,-1.2393,-1.1918,-1.1199,-1.0215,-0.9435,0.0,0.0,0.0,0.0,0.0,0.0,0.0,0.0,0.0,0.0,0.0,0.0,0.0,0.0,0.0,0.0,0.0,0.0,0.0,0.0,0.0,0.0,0.0,0.0,0.0,0.0,0.0,0.0,0.0,0.0,0.0,0.0,0.0,0.0,0.0,0.0,0.0,0.0,0.0,0.0,0.0,0.0,0.0,0.0,0.0,0.0,0.0,0.0,0.0,0.0,0.0,0.0,0.0,0.0,0.0,0.0,0.0,0.0,0.0,0.0,0.0,0.0,0.0,0.0,0.0,0.0,0.0,0.0,0.0,0.0,0.0,0.0,0.0,0.0,0.0,0.0,0.0,0.0,0.0,0.0,0.0,0.0,0.0,0.0,0.0,0.0,0.0,0.0,0.0,0.0,0.0,0.0,0.0,0.0,0.0,0.0,0.0,0.0,0.0,0.0,0.0,0.0,-1.0683,-1.128,-1.2196,-1.242,-1.244,-1.2305,-1.1782,-1.0988,-1.0044,-0.9076,0.0,0.0,0.0,0.0,0.0,0.0,0.0,0.0,0.0,0.0,0.0,0.0,0.0,0.0,0.0,0.0,0.0,0.0,0.0,0.0,0.0,0.0,0.0,0.0,0.0,0.0,0.0,0.0,0.0,0.0,0.0,0.0,0.0,0.0,0.0,0.0,0.0,0.0,0.0,0.0,0.0,0.0,0.0,0.0,0.0,0.0,0.0,0.0,0.0,0.0,0.0,0.0,0.0,0.0,0.0,0.0,0.0,0.0,0.0,0.0,0.0,0.0,0.0,0.0,0.0,0.0,0.0,0.0,0.0,0.0,0.0,0.0,0.0,0.0,0.0,0.0,0.0,0.0,0.0,0.0,0.0,0.0,0.0,0.0,0.0,0.0,0.0,0.0,0.0,0.0,0.0,0.0,0.0,0.0,0.0,0.0,0.0,0.0,0.0,0.0,0.0,0.0,-1.0853,-1.1742,-1.2237,-1.242,-1.244,-1.2305,-1.1491,-1.0658,-1.0024,-0.8682,0.0,0.0,0.0,0.0,0.0,0.0,0.0,0.0,0.0,0.0,0.0,0.0,0.0,0.0,0.0,0.0,0.0,0.0,0.0,0.0,0.0,0.0,0.0,0.0,0.0,0.0,0.0,0.0,0.0,0.0,0.0,0.0,0.0,0.0,0.0,0.0,0.0,0.0,0.0,0.0,0.0,0.0,0.0,0.0,0.0,0.0,0.0,0.0,0.0,0.0,0.0,0.0,0.0,0.0,0.0,0.0,0.0,0.0,0.0,0.0,0.0,0.0,0.0,0.0,0.0,0.0,0.0,0.0,0.0,0.0,0.0,0.0,0.0,0.0,0.0,0.0,0.0,0.0,0.0,0.0,0.0,0.0,0.0,0.0,0.0,0.0,0.0,0.0,0.0,0.0,0.0,0.0,0.0,0.0,0.0,0.0,0.0,0.0,0.0,0.0,0.0,0.0,-1.0624,-1.1518,0.0,-1.2467,-1.2406,-1.2169,-1.1667,-1.0914,-0.9842,0.0,0.0,0.0,0.0,0.0,0.0,0.0,0.0,0.0,0.0,0.0,0.0,0.0,0.0,0.0,0.0,0.0,0.0,0.0,0.0,0.0,0.0,0.0,0.0,0.0,0.0,0.0,0.0,0.0,0.0,0.0,0.0,0.0,0.0,0.0,0.0,0.0,0.0,0.0,0.0,0.0,0.0,0.0,0.0,0.0,0.0,0.0,0.0,0.0,0.0,0.0,0.0,0.0,0.0,0.0,0.0,0.0,0.0,0.0,0.0,0.0,0.0,0.0,0.0,0.0,0.0,0.0,0.0,0.0,0.0,0.0,0.0,0.0,0.0,0.0,0.0,0.0,0.0,0.0,0.0,0.0,0.0,0.0,0.0,0.0,0.0,0.0,0.0,0.0,0.0,0.0,0.0,0.0,0.0,0.0,0.0,0.0,0.0,0.0,0.0,0.0,0.0,-0.9937,-1.0731,-1.1504,0.0,-1.2501,-1.2379,-1.2088,-1.166,-1.0894,-0.9686,0.0,0.0,0.0,0.0,0.0,0.0,0.0,0.0,0.0,0.0,0.0,0.0,0.0,0.0,0.0,0.0,0.0,0.0,0.0,0.0,0.0,0.0,0.0,0.0,0.0,0.0,0.0,0.0,0.0,0.0,0.0,0.0,0.0,0.0,0.0,0.0,0.0,0.0,0.0,0.0,0.0,0.0,0.0,0.0,0.0,0.0,0.0,0.0,0.0,0.0,0.0,0.0,0.0,0.0,0.0,0.0,0.0,0.0,0.0,0.0,0.0,0.0,0.0,0.0,0.0,0.0,0.0,0.0,0.0,0.0,0.0,0.0,0.0,0.0,0.0,0.0,0.0,0.0,0.0,0.0,0.0,0.0,0.0,0.0,0.0,0.0,0.0,0.0,0.0,0.0,0.0,0.0,0.0,0.0,0.0,0.0,0.0,0.0,0.0,0.0,0.0,0.0,-1.0107,-1.1063,-1.1843,-1.2433,-1.2501,-1.2379,-1.2088,-1.1382,-1.0503,0.0,0.0,0.0,0.0,0.0,0.0,0.0,0.0,0.0,0.0,0.0,0.0,0.0,0.0,0.0,0.0,0.0,0.0,0.0,0.0,0.0,0.0,0.0,0.0,0.0,0.0,0.0,0.0,0.0,0.0,0.0,0.0,0.0,0.0,0.0,0.0,0.0,0.0,0.0,0.0,0.0,0.0,0.0,0.0,0.0,0.0,0.0,0.0,0.0,0.0,0.0,0.0,0.0,0.0,0.0,0.0,0.0,0.0,0.0,0.0,0.0,0.0,0.0,0.0,0.0,0.0,0.0,0.0,0.0,0.0,0.0,0.0,0.0,0.0,0.0,0.0,0.0,0.0,0.0,0.0,0.0,0.0,0.0,0.0,0.0,0.0,0.0,0.0,0.0,0.0,0.0,0.0,0.0,0.0,0.0,0.0,0.0,0.0,0.0,0.0,0.0,0.0,0.0,-1.0019,-1.0995,-1.1809,-1.2298,-1.2352,-1.2271,-1.2081,-1.147,-1.0629,-0.9517,0.0,0.0,0.0,0.0,0.0,0.0,0.0,0.0,0.0,0.0,0.0,0.0,0.0,0.0,0.0,0.0,0.0,0.0,0.0,0.0,0.0,0.0,0.0,0.0,0.0,0.0,0.0,0.0,0.0,0.0,0.0,0.0,0.0,0.0,0.0,0.0,0.0,0.0,0.0,0.0,0.0,0.0,0.0,0.0,0.0,0.0,0.0,0.0,0.0,0.0,0.0,0.0,0.0,0.0,0.0,0.0,0.0,0.0,0.0,0.0,0.0,0.0,0.0,0.0,0.0,0.0,0.0,0.0,0.0,0.0,0.0,0.0,0.0,0.0,0.0,0.0,0.0,0.0,0.0,0.0,0.0,0.0,0.0,0.0,0.0,0.0,0.0,0.0,0.0,0.0,0.0,0.0,0.0,0.0,0.0,0.0,0.0,0.0,0.0,0.0,0.0,0.0,-0.989,-1.0914,-1.1701,-1.2149,-1.2196,-1.2135,-1.1986,-1.1531,-1.0744,-0.9551,0.0,0.0,0.0,0.0,0.0,0.0,0.0,0.0,0.0,0.0,0.0,0.0,0.0,0.0,0.0,0.0,0.0,0.0,0.0,0.0,0.0,0.0,0.0,0.0,0.0,0.0,0.0,0.0,0.0,0.0,0.0,0.0,0.0,0.0,0.0,0.0,0.0,0.0,0.0,0.0,0.0,0.0,0.0,0.0,0.0,0.0,0.0,0.0,0.0,0.0,0.0,0.0,0.0,0.0,0.0,0.0,0.0,0.0,0.0,0.0,0.0,0.0,0.0,0.0,0.0,0.0,0.0,0.0,0.0,0.0,0.0,0.0,0.0,0.0,0.0,0.0,0.0,0.0,0.0,0.0,0.0,0.0,0.0,0.0,0.0,0.0,0.0,0.0,0.0,0.0,0.0,0.0,0.0,0.0,0.0,0.0,0.0,0.0,0.0,0.0,0.0,0.0,-0.9795,-1.0826,-1.1558,-1.1993,-1.204,-1.1986,-1.1843,-1.1538,-1.0867,-0.972,0.0,0.0,0.0,0.0,0.0,0.0,0.0,0.0,0.0,0.0,0.0,0.0,0.0,0.0,0.0,0.0,0.0,0.0,0.0,0.0,0.0,0.0,0.0,0.0,0.0,0.0,0.0,0.0,0.0,0.0,0.0,0.0,0.0,0.0,0.0,0.0,0.0,0.0,0.0,0.0,0.0,0.0,0.0,0.0,0.0,0.0,0.0,0.0,0.0,0.0,0.0,0.0,0.0,0.0,0.0,0.0,0.0,0.0,0.0,0.0,-0.837,0.0,0.0,0.0,0.0,0.0,0.0,0.0,0.0,0.0,0.0,0.0,0.0,0.0,0.0,0.0,0.0,0.0,0.0,0.0,0.0,0.0,0.0,0.0,0.0,0.0,0.0,0.0,0.0,0.0,0.0,0.0,0.0,0.0,0.0,0.0,0.0,0.0,0.0,0.0,0.0,0.0,-0.9727,-1.0758,-1.1518,-1.1843,-1.1877,-1.1864,-1.1837,-1.1278,-1.0731,-1.0067,-0.9001,0.0,0.0,0.0,0.0,0.0,0.0,0.0,0.0,0.0,0.0,0.0,0.0,0.0,0.0,0.0,0.0,0.0,0.0,0.0,0.0,0.0,0.0,0.0,0.0,0.0,0.0,0.0,0.0,0.0,0.0,0.0,0.0,0.0,0.0,0.0,0.0,0.0,0.0,0.0,0.0,0.0,0.0,0.0,0.0,0.0,0.0,0.0,0.0,0.0,0.0,0.0,0.0,0.0,0.0,0.0,0.0,0.0,0.0,0.0,0.0,-0.8879,0.0,0.0,0.0,0.0,0.0,0.0,0.0,0.0,0.0,0.0,0.0,0.0,0.0,0.0,0.0,0.0,0.0,0.0,0.0,0.0,0.0,0.0,0.0,0.0,0.0,0.0,0.0,0.0,0.0,0.0,0.0,0.0,0.0,0.0,0.0,0.0,0.0,0.0,0.0,0.0,-0.9693,-1.0677,-1.1396,-1.1694,-1.1728,-1.1728,-1.1728,-1.1314,-1.0826,-1.0297,-0.9415,0.0,0.0,0.0,0.0,0.0,0.0,0.0,0.0,0.0,0.0,0.0,0.0,0.0,0.0,0.0,0.0,0.0,0.0,0.0,0.0,0.0,0.0,0.0,0.0,0.0,0.0,0.0,0.0,0.0,0.0,0.0,0.0,0.0,0.0,0.0,0.0,0.0,0.0,0.0,0.0,0.0,0.0,0.0,0.0,0.0,0.0,0.0,0.0,0.0,0.0,0.0,0.0,0.0,-1.0222,-1.0439,-1.0595,-1.0711,-1.0846,-1.0955,-1.0209,-0.9978,-1.0004,-0.9327,0.0,0.0,0.0,0.0,0.0,0.0,0.0,0.0,0.0,0.0,0.0,0.0,0.0,0.0,0.0,0.0,0.0,0.0,0.0,0.0,0.0,0.0,0.0,0.0,-1.0127,-1.0086,0.0,0.0,0.0,0.0,0.0,0.0,0.0,0.0,0.0,0.0,0.0,0.0,-0.9788,-1.0643,-1.128,-1.1586,-1.1619,-1.1606,-1.1586,-1.1321,-1.0982,-1.0561,-0.9883,-0.9184,0.0,0.0,0.0,0.0,0.0,0.0,0.0,0.0,0.0,0.0,0.0,0.0,0.0,0.0,0.0,0.0,0.0,0.0,0.0,0.0,0.0,0.0,0.0,0.0,0.0,0.0,0.0,0.0,0.0,0.0,0.0,0.0,-0.7021,-0.7258,0.0,0.0,0.0,0.0,0.0,0.0,0.0,0.0,0.0,0.0,0.0,0.0,0.0,-0.9686,-1.01,-1.0527,-1.088,-1.1158,-1.1457,-1.1681,-1.183,-1.1843,-1.1938,-1.2074,-1.1959,0.0,-1.0426,-1.0304,0.0,0.0,0.0,0.0,0.0,0.0,0.0,0.0,0.0,0.0,0.0,0.0,0.0,0.0,0.0,0.0,0.0,0.0,0.0,0.0,0.0,0.0,-1.0678,-1.0698,-1.0752,-1.0712,0.0,-0.9564,-0.8622,-0.8187,-0.778,0.0,0.0,0.0,0.0,0.0,0.0,0.0,-1.0107,-1.0772,-1.128,-1.1586,-1.1619,-1.1565,-1.1436,-1.126,-1.1029,-1.0711,-1.0236,-0.9808,-0.9252,-0.856,0.0,0.0,0.0,0.0,0.0,0.0,0.0,0.0,0.0,0.0,0.0,0.0,0.0,0.0,0.0,0.0,0.0,0.0,0.0,0.0,0.0,0.0,0.0,0.0,0.0,0.0,0.0,0.0,0.0,-0.7,-0.7624,-0.774,-0.7821,-0.7753,0.0,0.0,0.0,0.0,0.0,0.0,0.0,0.0,0.0,-1.0365,-1.0527,-1.0826,-1.128,-1.1558,-1.1809,-1.202,-1.223,-1.242,-1.2647,-1.2647,-1.2603,-1.2671,-1.2671,-1.2318,-1.1714,-1.1206,-1.067,-1.012,0.0,0.0,0.0,0.0,-0.9659,-0.9666,-1.0148,-1.0209,0.0,-0.9774,0.0,0.0,0.0,0.0,0.0,0.0,0.0,0.0,0.0,0.0,0.0,-1.1158,-1.126,-1.1287,-1.1131,-1.0616,-0.9958,0.0,-0.8866,-0.8499,-0.7725,0.0,0.0,0.0,0.0,-0.9578,-1.0304,-1.0846,-1.128,-1.1586,-1.1545,-1.1463,-1.1396,-1.1179,-1.0989,-1.0793,-1.05,-1.0175,-0.9897,-0.9245,-0.854,0.0,0.0,0.0,0.0,0.0,0.0,0.0,0.0,0.0,0.0,0.0,0.0,0.0,0.0,0.0,0.0,0.0,0.0,0.0,0.0,0.0,0.0,0.0,0.0,0.0,0.0,0.0,0.0,-0.7678,-0.8204,-0.8164,-0.8452,-0.8425,0.0,0.0,0.0,0.0,0.0,0.0,-0.9992,-1.0399,-1.088,-1.1436,-1.1599,-1.1877,-1.2367,-1.244,-1.261,-1.2793,-1.2901,-1.3037,-1.3186,-1.3186,-1.3186,-1.3186,-1.3146,-1.3064,-1.2895,-1.2033,-1.1497,-1.1179,-1.059,-1.0358,-1.0263,-1.0602,-1.0656,-1.0649,-1.124,-1.1307,-1.107,-1.0772,0.0,-0.9992,-0.9361,0.0,0.0,0.0,0.0,-1.0161,-1.0656,-1.0948,-1.1116,-1.1443,-1.1592,-1.1633,-1.1484,-1.1328,-1.0968,0.0,-0.9863,-0.9517,-0.8642,0.0,0.0,0.0,0.0,-0.9937,-1.0534,-1.0934,-1.1267,-1.1531,-1.1457,-1.1362,-1.1287,-1.1008,-1.086,-1.0826,-1.0677,-1.0487,-1.0337,-0.9829,-0.9218,-0.8565,0.0,0.0,0.0,0.0,0.0,0.0,0.0,0.0,0.0,0.0,0.0,0.0,0.0,0.0,0.0,0.0,0.0,0.0,0.0,0.0,0.0,0.0,0.0,0.0,0.0,0.0,0.0,0.0,0.0,-0.8696,-0.9191,0.0,0.0,0.0,0.0,-0.9517,-1.0086,-1.0616,-1.1132,-1.1382,-1.1762,-1.2216,-1.2372,-1.2596,-1.2915,-1.3057,-1.3275,-1.3573,-1.358,-1.3661,-1.3797,-1.3797,-1.3797,-1.379,-1.3654,-1.3593,-1.3526,-1.2759,-1.2271,-1.1972,-1.166,-1.145,-1.1314,-1.1341,-1.1341,-1.1362,-1.1545,-1.1599,-1.1606,-1.1714,-1.1362,-1.0766,-1.05,-1.0209,0.0,0.0,-1.0555,-1.0812,-1.1409,-1.1572,-1.1619,-1.1775,-1.1816,-1.1782,-1.164,-1.1491,-1.128,0.0,-1.0534,-1.0181,-0.9923,0.0,-0.9598,-0.9727,-0.9842,-1.0179,-1.0779,-1.1063,-1.1226,-1.1389,-1.1396,-1.128,-1.0927,-1.0887,-1.082,-1.0744,-1.0717,-1.0643,-1.0487,-1.0181,-0.9727,-0.918,-0.837,0.0,0.0,0.0,0.0,0.0,0.0,0.0,0.0,0.0,0.0,0.0,0.0,0.0,0.0,0.0,0.0,0.0,0.0,0.0,0.0,0.0,0.0,0.0,0.0,0.0,0.0,0.0,0.0,-0.9422,-0.9869,0.0,-0.9476,-0.9829,-1.0202,-1.0453,-1.1023,-1.1552,-1.1999,-1.2223,-1.2542,-1.299,-1.3051,-1.3227,-1.3526,-1.358,-1.3654,-1.3763,-1.3763,-1.379,-1.3838,-1.3838,-1.3838,-1.3838,-1.379,-1.3715,-1.3607,-1.3336,-1.2996,-1.2623,-1.2413,-1.2244,-1.2115,-1.2216,-1.225,-1.2264,-1.2318,-1.2271,-1.2149,-1.1911,-1.1626,-1.1362,-1.1253,-1.1145,-1.1104,-1.1301,-1.1389,-1.1504,-1.1823,-1.1904,-1.1918,-1.1965,-1.1904,-1.1816,-1.1769,-1.164,-1.1504,-1.1402,-1.109,-1.0711,-1.027,-1.027,-1.0243,-1.0005,-1.0175,-1.0514,-1.1023,-1.105,-1.1118,-1.1362,-1.1219,-1.1063,-1.0887,-1.0793,-1.0738,-1.0582,-1.0575,-1.0507,-1.0365,-1.0161,-0.9815,-0.9364,-0.8757,-0.7909,0.0,0.0,0.0,0.0,0.0,0.0,0.0,0.0,0.0,0.0,0.0,0.0,0.0,0.0,0.0,0.0,0.0,0.0,0.0,0.0,0.0,0.0,0.0,0.0,0.0,0.0,-0.9869,-0.9964,-1.046,-1.0643,-1.0243,-1.0697,-1.1124,-1.1382,-1.1857,-1.2332,-1.2779,-1.2901,-1.3139,-1.3539,-1.3546,-1.3668,-1.3912,-1.3919,-1.3946,-1.3994,-1.3994,-1.3994,-1.3994,-1.3994,-1.3994,-1.3994,-1.3939,-1.3865,-1.377,-1.3668,-1.3458,-1.3166,-1.2963,-1.282,-1.2732,-1.2786,-1.2807,-1.28,-1.2745,-1.2664,-1.2515,-1.2115,-1.1925,-1.1837,-1.1782,-1.1769,-1.1789,-1.1884,-1.1911,-1.1945,-1.2101,-1.2142,-1.2142,-1.2142,-1.206,-1.1959,-1.185,-1.1755,-1.1674,-1.1626,-1.1416,-1.1118,-1.0724,-1.0772,-1.0772,-1.0538,-1.0595,-1.0826,-1.1193,-1.1077,-1.1077,-1.1226,-1.0995,-1.086,-1.0806,-1.0731,-1.0602,-1.05,-1.0399,-1.0304,-1.0209,-0.9958,-0.9659,-0.9313,-0.8716,-0.8018,-0.7179,0.0,0.0,0.0,0.0,0.0,0.0,0.0,0.0,0.0,0.0,0.0,0.0,0.0,0.0,0.0,0.0,0.0,0.0,0.0,0.0,0.0,0.0,0.0,-0.8905,-0.9741,-1.0304,-1.0324,-1.0968,-1.1307,-1.0948,-1.1653,-1.2149,-1.2298,-1.2583,-1.2942,-1.3383,-1.341,-1.3546,-1.3838,-1.3844,-1.3919,-1.4075,-1.4082,-1.415,-1.4299,-1.4299,-1.4299,-1.4299,-1.4299,-1.4299,-1.4292,-1.4143,-1.4075,-1.4048,-1.3763,-1.3641,-1.36,-1.3295,-1.318,-1.3166,-1.3024,-1.2969,-1.2949,-1.2793,-1.2739,-1.2684,-1.24,-1.2298,-1.2271,-1.2121,-1.2074,-1.2074,-1.2074,-1.2074,-1.2108,-1.2257,-1.2298,-1.2298,-1.2298,-1.2291,-1.221,-1.1904,-1.1837,-1.1789,-1.1647,-1.1497,-1.1396,-1.1389,-1.1267,-1.1165,-1.1234,-1.1234,0.0,-1.1241,-1.1227,-1.1104,-1.09,-1.088,-1.0813,-1.0731,-1.0582,-1.0487,-1.048,-1.0202,-0.9977,-0.997,-0.9618,-0.9313,-0.9221,-0.8289,-0.7834,-0.7828,0.0,0.0,0.0,0.0,0.0,0.0,0.0,0.0,0.0,0.0,0.0,0.0,0.0,0.0,0.0,0.0,0.0,0.0,0.0,0.0,0.0,0.0,-0.9734,-0.989,-1.0405,-1.0887,-1.1212,-1.1721,-1.2013,-1.1932,-1.2298,-1.261,-1.2766,-1.3051,-1.3322,-1.3553,-1.3661,-1.381,-1.4,-1.4007,-1.4082,-1.4238,-1.4238,-1.4258,-1.4299,-1.4299,-1.4299,-1.4299,-1.4299,-1.4299,-1.4299,-1.4258,-1.4177,-1.4061,-1.398,-1.3824,-1.3607,-1.3417,-1.3336,-1.3336,-1.3295,-1.3207,-1.3112,-1.3064,-1.2908,-1.2718,-1.2637,-1.2535,-1.2433,-1.2393,-1.2379,-1.2379,-1.2379,-1.2379,-1.2393,-1.2433,-1.244,-1.244,-1.244,-1.2366,-1.2237,-1.204,-1.1911,-1.1789,-1.1647,-1.1586,-1.1518,-1.1409,-1.1355,-1.1294,-1.1179,-1.1234,0.0,-1.1314,-1.1138,-1.1029,-1.1097,-1.0914,-1.0765,-1.0724,-1.0582,-1.0399,-1.0118,-0.9992,-0.9836,-0.9734,-0.9612,-0.9476,-0.932,-0.8757,-0.8357,0.0,0.0,0.0,0.0,0.0,0.0,0.0,0.0,0.0,0.0,0.0,0.0,0.0,0.0,0.0,0.0,0.0,0.0,0.0,0.0,0.0,0.0,-0.9754,-1.0378,-1.0785,-1.1063,-1.1348,-1.1667,-1.2108,-1.2406,-1.2467,-1.2739,-1.2956,-1.3044,-1.3329,-1.3559,-1.3709,-1.3858,-1.4007,-1.4163,-1.4163,-1.4211,-1.4299,-1.4299,-1.4299,-1.4299,-1.4299,-1.4299,-1.4299,-1.4299,-1.4299,-1.4299,-1.4299,-1.4251,-1.4163,-1.4095,-1.3933,0.0,0.0,0.0,0.0,0.0,-1.3342,-1.3261,-1.3193,-1.3024,-1.2813,-1.2752,-1.2623,-1.2501,-1.2501,-1.2501,-1.2501,-1.2501,-1.2501,-1.2501,-1.2501,-1.2501,-1.2501,-1.2501,-1.244,-1.2318,-1.2108,-1.1993,-1.1864,-1.166,-1.1619,0.0,-1.1504,-1.1484,-1.1457,-1.1369,-1.1355,-1.1362,-1.1389,-1.1185,-1.105,-1.107,-1.086,-1.0717,-1.0717,-1.0582,0.0,0.0,0.0,-0.97,-0.9429,-0.9415,0.0,0.0,0.0,0.0,0.0,0.0,0.0,0.0,-0.8628,-0.8621,0.0,0.0,0.0,0.0,0.0,0.0,0.0,0.0,0.0,0.0,0.0,0.0,0.0,0.0,0.0,0.0,-1.0351,-1.0812,-1.1518,-1.1647,-1.1728,-1.1884,-1.2291,-1.261,-1.2766,-1.3037,-1.3207,-1.322,-1.3492,-1.3715,-1.3858,0.0,0.0,0.0,0.0,-1.4299,-1.4299,-1.4299,-1.4299,-1.4299,-1.4299,-1.4299,-1.4299,-1.4299,-1.4299,-1.4299,-1.4299,-1.4299,-1.4292,-1.4156,-1.3994,-1.3824,-1.3668,-1.3519,-1.3403,-1.3403,-1.3403,-1.3383,-1.3247,0.0,0.0,-1.2807,-1.2651,-1.2522,-1.2508,-1.2501,-1.2501,-1.2501,-1.2501,-1.2501,-1.2501,-1.2501,-1.2501,-1.2501,-1.2501,-1.242,-1.2128,-1.2135,-1.1972,-1.1681,-1.1619,-1.1619,-1.1619,-1.1619,-1.1619,-1.1619,-1.1619,-1.1572,-1.1436,-1.1287,-1.1131,-1.0921,0.0,0.0,-1.0724,-1.0582,-1.0432,-1.029,-1.0005,-0.9666,-0.933,-0.933,-0.9391,-0.9456,-0.9476,-0.9673,-0.9984,-1.0004,-1.0017,-1.0017,-0.9266,-0.9164,0.0,0.0,0.0,0.0,0.0,0.0,0.0,0.0,0.0,0.0,0.0,0.0,0.0,0.0,0.0,-1.0161,-1.0683,-1.1172,-1.1565,-1.1823,-1.2074,-1.2338,-1.2671,-1.2929,-1.3071,-1.3254,-1.341,-1.3532,-1.3702,-1.3865,-1.4021,-1.4177,-1.4272,-1.4299,-1.4299,-1.4299,-1.4299,-1.4299,-1.4299,-1.4299,0.0,0.0,-1.4299,-1.4299,-1.4299,-1.4299,-1.4299,-1.4299,-1.4299,-1.4272,-1.4089,-1.3817,-1.3546,-1.3424,-1.3403,-1.3403,-1.3403,-1.3397,-1.337,-1.3261,-1.3105,-1.2963,-1.2813,-1.2664,-1.2535,-1.2501,0.0,-1.2501,-1.2501,-1.2501,-1.2501,-1.2501,-1.2501,-1.2501,-1.2501,-1.242,-1.2128,-1.2135,-1.1972,-1.1681,-1.1619,-1.1619,-1.1619,-1.1619,-1.1619,-1.1619,-1.1619,-1.1606,-1.1579,-1.1443,-1.1287,-1.1138,-1.0989,-1.0786,-1.0731,-1.0582,-1.0432,-1.029,-1.0169,-0.9971,-0.9876,-0.9998,-1.0019,-0.9862,-1.0046,-1.0086,-0.9984,-1.0175,-1.0297,-1.0399,-1.0114,-0.9971,0.0,0.0,0.0,0.0,0.0,0.0,0.0,0.0,0.0,0.0,0.0,-0.8743,0.0,0.0,-1.0202,-1.0649,-1.1097,-1.1497,-1.1796,-1.2033,-1.2257,-1.2474,-1.2773,-1.3017,-1.3159,-1.3308,-1.3464,-1.3614,-1.3763,-1.3905,-1.4061,-1.4217,-1.4299,-1.4299,-1.4299,-1.4299,-1.4299,-1.4299,-1.4299,-1.4299,-1.4299,-1.4299,-1.4299,-1.4299,-1.4299,-1.4299,-1.4299,-1.4299,-1.4285,-1.4136,-1.398,-1.381,-1.3512,-1.3403,-1.3403,-1.3403,-1.3403,-1.3403,-1.3403,-1.3302,-1.3159,-1.3091,-1.2915,-1.2718,-1.2637,-1.2562,-1.2501,-1.2501,-1.2501,-1.2501,-1.2501,-1.2501,-1.2501,-1.2501,-1.2501,-1.244,-1.2223,-1.2115,-1.1993,-1.1769,-1.1667,-1.1619,-1.1619,-1.1619,-1.1619,-1.1619,-1.1619,-1.1619,-1.1619,-1.1484,-1.1335,-1.1179,-1.1036,-1.082,-1.0731,-1.0582,-1.046,-1.0392,-1.0249,-1.0168,-1.0168,-1.0243,-1.0276,-1.027,-1.0344,-1.0385,-1.0321,-1.046,-1.0534,-1.0602,-1.0534,-1.046,0.0,0.0,0.0,0.0,0.0,0.0,0.0,0.0,-0.8174,-0.8838,-0.9117,-0.9363,-0.9963,-1.0283,-1.0595,-1.1158,-1.1457,-1.1735,-1.206,-1.221,-1.2352,-1.2528,-1.2793,-1.3017,-1.3159,-1.3308,-1.3478,-1.3654,-1.3777,-1.3919,-1.4109,-1.4231,-1.4299,-1.4299,-1.4299,-1.4299,-1.4299,-1.4299,-1.4299,-1.4299,-1.4299,-1.4299,-1.4299,-1.4299,-1.4299,-1.4299,-1.4299,-1.4299,-1.4278,-1.4,-1.3865,-1.3817,-1.3546,-1.3424,-1.3403,-1.3403,-1.3403,-1.3403,-1.3403,-1.3322,-1.3214,-1.3186,-1.299,-1.2766,-1.2739,-1.2623,-1.2501,-1.2501,-1.2501,-1.2501,-1.2501,-1.2501,-1.2501,-1.2501,-1.2501,-1.2461,-1.2318,-1.2169,-1.2013,-1.1864,-1.1714,-1.1619,-1.1619,-1.1619,-1.1619,-1.1619,-1.1619,-1.1619,-1.1619,-1.1511,-1.1362,-1.1255,-1.1056,-1.0914,-1.0738,-1.0609,-1.0534,-1.0534,-1.0426,-1.0365,-1.0365,-1.0365,-1.0419,-1.0534,-1.0534,-1.0595,-1.0717,-1.0717,-1.0717,-1.0717,-1.0717,-1.0717,-0.7078,-0.7156,-0.7446,-0.8006,-0.8119,-0.8425,0.0,0.0,-0.9483,-0.9768,-1.012,-1.0344,-1.0426,-1.0677,-1.0961,-1.1491,-1.1599,-1.1769,-1.2203,-1.2277,-1.2393,-1.2671,-1.2854,-1.3017,-1.3159,-1.3308,-1.3519,-1.3797,-1.3831,-1.3966,-1.4258,-1.4292,-1.4299,-1.4299,-1.4299,-1.4299,-1.4299,-1.4299,-1.4299,-1.4299,-1.4299,-1.4299,-1.4299,-1.4299,-1.4299,-1.4299,-1.4299,-1.4299,-1.4285,-1.4116,-1.3966,-1.3824,-1.3668,-1.3519,-1.3403,-1.3403,-1.3403,-1.3403,-1.3403,-1.339,-1.3356,-1.3214,-1.3064,-1.2908,-1.2773,-1.2623,-1.2501,-1.2501,-1.2501,-1.2501,-1.2501,-1.2501,-1.2501,-1.2501,-1.2501,-1.2461,-1.2318,-1.2169,-1.2013,-1.1864,-1.1714,-1.1619,-1.1619,-1.1619,-1.1619,-1.1619,-1.1619,-1.1619,-1.1619,-1.1606,-1.1484,-1.1261,-1.1151,-1.1023,-1.0744,-1.0704,-1.0697,-1.0697,-1.0677,-1.067,-1.067,-1.067,-1.0677,-1.0697,-1.0697,-1.0704,-1.0717,-1.0717,-1.0717,-1.0717,-1.0717,-1.0717,-0.7909,-0.816,-0.8504,-0.8615,-0.892,-0.93,-0.9802,-0.9829,-0.9951,-1.0243,-1.048,-1.0649,-1.0744,-1.0928,-1.1192,0.0,-1.1762,-1.1972,-1.225,-1.2291,-1.2338,-1.2461,-1.2603,-1.282,-1.3139,-1.3227,-1.3431,-1.381,-1.3838,-1.3973,-1.4285,-1.4299,-1.4299,-1.4299,-1.4299,-1.4299,-1.4299,-1.4299,-1.4299,-1.4299,-1.4299,-1.4299,-1.4299,-1.4299,-1.4299,-1.4299,-1.4299,-1.4299,-1.4278,-1.4034,-1.3899,-1.3817,-1.3587,-1.3458,-1.3403,-1.3403,-1.3403,-1.3403,-1.3403,-1.3403,-1.339,-1.3329,-1.3207,-1.3057,-1.2908,-1.2759,-1.2617,-1.2528,-1.2501,-1.2501,-1.2501,-1.2501,-1.2501,-1.2501,-1.2501,-1.2488,-1.2427,-1.223,-1.2115,-1.1979,-1.1775,-1.1619,-1.1619,-1.1619,-1.1619,-1.1619,-1.1619,-1.1619,-1.1619,-1.1619,-1.1504,-1.1199,-1.1009,-1.0853,-1.0731,-1.0717,-1.0717,-1.0717,-1.0717,-1.0717,-1.0717,-1.0717,-1.0717,-1.0717,-1.0717,-1.0717,-1.0717,-1.0717,-1.0765,-1.0786,-1.0786,-1.09,-0.8472,-0.89,-0.9214,-0.9178,-0.9571,-0.9958,-0.9998,-1.0127,-1.0233,-1.0514,-1.0643,-1.0765,-1.0853,-1.1063,-1.1274,-1.1619,-1.1891,-1.2128,-1.2325,-1.2318,-1.2291,-1.2291,-1.2345,-1.2542,-1.2949,-1.3098,-1.3342,-1.3749,-1.3817,-1.3973,-1.4285,-1.4299,-1.4299,-1.4299,-1.4299,-1.4299,-1.4299,-1.4299,-1.4299,-1.4299,-1.4299,-1.4299,-1.4299,-1.4299,-1.4299,-1.4299,-1.4299,-1.4299,-1.4278,-1.4014,-1.3878,-1.3817,-1.3559,-1.3437,-1.3403,-1.3403,-1.3403,-1.3403,-1.3403,-1.3403,-1.3403,-1.3403,-1.3295,-1.3152,-1.3051,-1.2881,-1.2705,-1.2596,-1.2535,-1.2501,-1.2501,-1.2501,-1.2501,-1.2501,-1.2501,-1.2501,-1.2501,-1.2305,-1.2115,-1.2149,-1.1857,-1.1667,-1.1626,-1.1619,-1.1619,-1.1619,-1.1619,-1.1619,-1.1619,-1.1586,-1.1457,-1.1192,-1.0934,-1.0765,-1.0724,-1.0717,-1.0717,-1.0717,-1.0717,-1.0717,-1.0717,-1.0717,-1.0717,-1.0717,-1.0717,-1.0717,-1.0717,-1.0765,-1.0839,-1.088,-1.0989,-1.1084,-0.8662,-0.892,-0.9316,-0.9686,-1.0032,-1.0304,-1.0439,-1.0588,-1.0704,-1.0711,-1.0717,-1.0765,-1.0853,-1.1063,-1.1307,-1.1748,-1.1959,-1.2162,-1.2454,-1.2379,-1.2291,-1.2291,-1.2162,-1.2189,0.0,-1.2915,-1.3302,-1.3614,-1.3763,-1.3973,-1.4285,-1.4299,-1.4299,-1.4299,-1.4299,-1.4299,-1.4299,-1.4299,-1.4299,-1.4299,-1.4299,-1.4299,-1.4299,-1.4299,-1.4299,-1.4299,-1.4299,-1.4299,-1.4285,-1.4129,-1.3973,-1.3824,-1.3682,-1.3532,-1.3403,-1.3403,-1.3403,-1.3403,-1.3403,-1.3403,-1.3403,-1.3403,-1.3295,-1.3173,-1.3166,-1.2963,-1.2725,-1.2725,-1.2617,-1.2501,-1.2501,-1.2501,-1.2501,-1.2501,-1.2501,-1.2501,-1.2501,-1.2386,-1.2237,-1.2162,-1.1932,-1.1782,-1.164,-1.1619,-1.1619,-1.1619,-1.1619,-1.1619,-1.1619,-1.1491,-1.1341,-1.1179,-1.1029,-1.0813,-1.0731,-1.0717,-1.0717,-1.0717,-1.0717,-1.0717,-1.0717,-1.0717,-1.0717,-1.0717,-1.0717,-1.0717,-1.0717,-1.0799,-1.0873,-1.0887,-1.109,-1.124,-0.894,-0.9367,-0.9808,-1.0066,-1.0351,-1.0582,-1.0629,-1.0683,-1.0717,-1.0717,-1.0636,-1.0649,-1.0833,-1.0907,-1.1077,-1.1728,-1.1877,-1.2047,-1.2447,-1.2461,-1.2359,-1.2162,-1.2264,0.0,0.0,0.0,0.0,-1.3437,-1.3614,-1.3831,-1.4136,-1.4245,-1.4299,-1.4299,-1.4299,-1.4299,-1.4299,-1.4299,-1.4299,-1.4299,-1.4299,-1.4299,-1.4299,-1.4299,-1.4299,-1.4299,-1.4299,-1.4299,-1.4285,-1.4136,-1.398,-1.3824,-1.3682,-1.3539,-1.3403,-1.3403,-1.3403,-1.3403,-1.3403,-1.3403,-1.3403,-1.3403,-1.3363,-1.3302,-1.3207,-1.3037,-1.2861,-1.2759,-1.2617,-1.2501,-1.2501,-1.2501,-1.2501,-1.2501,-1.2501,-1.2501,-1.2501,-1.2393,-1.2277,-1.2223,-1.2006,-1.1816,-1.1769,-1.1681,-1.1619,-1.1619,-1.1619,-1.1619,-1.1619,-1.1484,-1.1369,-1.1321,-1.1097,-1.086,-1.0806,-1.0778,-1.0717,-1.0717,-1.0717,-1.0717,-1.0717,-1.0717,-1.0717,-1.0717,-1.0717,-1.0772,-1.0806,-1.0853,-1.0981,-1.1246,-1.1294,-1.1396,-0.9361,-0.9754,-1.0051,-1.0371,-1.0582,-1.0717,-1.0717,-1.0717,-1.069,-1.0582,-1.0487,-1.0439,-1.0527,-1.0514,-1.0711,-1.1402,-1.1606,-1.185,-1.2352,-1.2427,-1.2352,-1.2169,-1.2311,-1.2372,0.0,0.0,0.0,-1.3281,-1.3559,-1.381,-1.4061,-1.4217,-1.4299,-1.4299,-1.4299,-1.4299,-1.4299,-1.4299,-1.4299,-1.4299,-1.4299,-1.4299,-1.4299,-1.4299,-1.4299,-1.4299,-1.4299,-1.4299,-1.4292,-1.4197,-1.4061,-1.3905,-1.3763,-1.3614,-1.3478,-1.3417,-1.3403,-1.3403,-1.3403,-1.3403,-1.3403,-1.3403,-1.3403,-1.3383,-1.3281,-1.3152,-1.3017,-1.2915,-1.2739,-1.2583,-1.2583,-1.2542,-1.2501,-1.2501,-1.2501,-1.2501,-1.2501,-1.2427,-1.2352,-1.2298,-1.2128,-1.1959,-1.185,-1.1714,-1.1619,-1.1619,-1.1619,-1.1619,-1.1619,-1.1531,-1.145,-1.1396,-1.1219,-1.1084,-1.1029,-1.0934,-1.0853,-1.0806,-1.0799,-1.0778,-1.0724,-1.0717,-1.0717,-1.0717,-1.0772,-1.0786,-1.088,-1.0988,-1.1206,-1.1396,-1.145,-1.1525,-0.9903,-1.0011,-1.0125,-1.0622,-1.0724,-1.0717,-1.0717,-1.0711,-1.0616,-1.0331,-1.0249,-1.0148,0.0,0.0,-1.0236,-1.0772,-1.1199,-1.1613,-1.2216,-1.2318,-1.2325,0.0,0.0,0.0,0.0,0.0,0.0,-1.3159,0.0,-1.3899,-1.4061,-1.4217,-1.4299,-1.4299,-1.4299,-1.4299,-1.4299,-1.4299,-1.4299,-1.4299,-1.4299,-1.4299,-1.4299,-1.4299,-1.4299,-1.4299,-1.4299,-1.4299,-1.4299,-1.4299,-1.4211,-1.4055,-1.3899,-1.3756,-1.3607,-1.3458,-1.3403,-1.3403,-1.3403,-1.3403,-1.3403,-1.3403,-1.3403,-1.3403,-1.3403,-1.3295,-1.3173,-1.3173,-1.2963,-1.2739,-1.2732,-1.2623,-1.2515,-1.2501,-1.2501,-1.2501,-1.2501,-1.2501,-1.2461,-1.2325,-1.2298,-1.2196,-1.1884,-1.1721,-1.1626,-1.1619,-1.1619,-1.1619,-1.1619,-1.1619,-1.1565,-1.1416,-1.1396,-1.1335,-1.1185,-1.1165,-1.1104,-1.09,-1.0894,-1.0826,-1.0751,-1.0744,-1.0744,-1.0744,-1.082,-1.0894,-1.09,-1.1253,-1.1396,-1.1409,-1.1552,-1.1619,-1.0148,-1.0385,-1.0536,-1.0766,-1.0739,-1.0717,-1.0717,-1.0548,-1.0337,-1.0148,-0.9842,-0.9585,-0.951,0.0,0.0,-1.0683,-1.1219,0.0,-1.2366,-1.2644,0.0,-1.263,0.0,-1.2874,-1.2691,-1.2908,0.0,0.0,-1.3553,-1.3797,-1.4055,-1.4217,-1.4299,-1.4299,-1.4299,-1.4299,-1.4299,-1.4299,-1.4299,-1.4299,-1.4299,-1.4299,-1.4299,-1.4299,-1.4299,-1.4299,-1.4299,-1.4299,-1.4299,-1.4299,-1.4211,-1.4055,-1.3899,-1.3756,-1.3607,-1.3458,-1.3403,-1.3403,-1.3403,-1.3403,-1.3403,-1.3403,-1.3403,-1.3403,-1.3403,-1.3295,-1.3173,-1.3173,-1.3044,-1.2874,-1.2759,-1.2705,-1.2644,-1.2528,-1.2501,-1.2501,-1.2501,-1.2501,-1.2488,-1.2454,-1.2366,-1.2196,-1.1884,-1.1803,-1.1742,-1.1633,-1.1619,-1.1619,-1.1619,-1.1619,-1.1606,-1.1565,-1.1457,-1.1375,-1.1335,-1.1226,-1.1145,-1.1111,-1.1104,-1.109,-1.105,-1.105,-1.105,-1.105,-1.109,-1.1165,-1.128,-1.1355,-1.145,-1.1558,-1.1599,-1.1619,-1.0514,-1.0738,-1.0921,-1.0873,-1.0813,-1.0751,-1.0422,-1.0297,-1.0046,-0.9564,-0.9313,-0.9103,-0.8838,-0.9198,-0.968,0.0,0.0,0.0,-1.2223,-1.263,-1.2854,0.0,-1.303,0.0,-1.2942,-1.3193,-1.3437,0.0,-1.3675,-1.3824,-1.4061,-1.4217,-1.4299,-1.4299,-1.4299,-1.4299,-1.4299,-1.4299,-1.4299,-1.4299,-1.4299,-1.4299,-1.4299,-1.4299,-1.4299,-1.4299,0.0,-1.4299,-1.4299,-1.4299,-1.4251,-1.415,-1.3926,-1.379,-1.3695,-1.3478,-1.3403,-1.3403,-1.3403,-1.3403,-1.3403,-1.3403,-1.3403,-1.3403,-1.3403,-1.3342,-1.3275,-1.3275,-1.3166,-1.3017,-1.2868,-1.2779,-1.2691,-1.2535,-1.2501,-1.2501,-1.2501,-1.2501,-1.2501,-1.2501,-1.2386,-1.2237,-1.206,-1.1918,-1.1803,-1.1721,-1.166,-1.1619,-1.1619,-1.1619,-1.1619,-1.1619,-1.1545,-1.1491,-1.1491,-1.1409,-1.1335,-1.1267,-1.126,-1.1233,-1.1165,-1.1234,-1.1234,-1.1234,-1.1226,-1.1307,-1.1389,-1.1457,-1.1538,-1.1619,-1.1619,-1.1619,-1.0853,-1.1084,-1.1131,-1.1009,-1.088,-1.0698,-1.0118,-0.9923,-0.9693,-0.8852,-0.8737,-0.8575,-0.8056,-0.8587,-0.9248,-0.9578,0.0,-1.1335,-1.1999,-1.2461,-1.2793,-1.2969,-1.3119,-1.3214,-1.3227,-1.3471,-1.3695,-1.3858,-1.3871,-1.3939,-1.4095,-1.4231,-1.4299,-1.4299,-1.4299,-1.4299,-1.4299,-1.4299,-1.4299,-1.4299,-1.4299,-1.4299,-1.4299,-1.4299,-1.4299,-1.4299,-1.4299,0.0,-1.4299,-1.4299,-1.4299,-1.4272,-1.3987,-1.3858,-1.3804,-1.3532,-1.3417,-1.3403,-1.3403,-1.3403,-1.3403,-1.3403,-1.3403,-1.3403,-1.3403,-1.3403,-1.3403,-1.3403,-1.3308,-1.3173,-1.3024,-1.2874,-1.2718,-1.2569,-1.2515,-1.2501,-1.2501,-1.2501,-1.2501,-1.2501,-1.2406,-1.2311,-1.2291,-1.2067,-1.1884,-1.1864,-1.1742,-1.1647,-1.1647,-1.1633,-1.1619,-1.1619,-1.1619,-1.1619,-1.1619,-1.1619,-1.1565,-1.143,-1.1423,-1.1362,-1.1226,-1.1226,-1.1226,-1.1226,-1.1355,-1.1423,-1.1423,-1.1552,-1.1619,-1.1619,-1.1619,-1.1619,-1.1233,-1.124,-1.1158,-1.1131,-1.0941,-1.0636,-1.0098,-0.9666,0.0,-0.8628,-0.8248,-0.7977,-0.7868,-0.8262,-0.8859,-0.9652,-1.0351,-1.1138,-1.2115,-1.2528,-1.2834,0.0,-1.3268,-1.341,-1.3539,-1.36,0.0,0.0,0.0,-1.4095,-1.4251,-1.4285,-1.4299,-1.4299,-1.4299,-1.4299,-1.4299,-1.4299,-1.4299,-1.4299,-1.4299,-1.4299,-1.4299,-1.4299,-1.4299,-1.4299,-1.4299,0.0,-1.4299,-1.4299,-1.4299,-1.4285,-1.4102,-1.3953,-1.3817,-1.3654,-1.3512,-1.3403,-1.3403,-1.3403,-1.3403,-1.3403,-1.3403,-1.3403,-1.3403,-1.3403,-1.3403,-1.3403,-1.3383,-1.3329,-1.3173,-1.303,-1.2881,-1.2725,-1.2589,-1.2501,-1.2501,-1.2501,-1.2501,-1.2501,-1.2481,-1.2427,-1.2311,-1.2244,-1.2169,-1.204,-1.1891,-1.1796,-1.1796,-1.1694,-1.1619,-1.1619,-1.1619,-1.1619,-1.1619,-1.1619,-1.1606,-1.1579,-1.1579,-1.1565,-1.1545,-1.1538,-1.1538,-1.1538,-1.1565,-1.1579,-1.1579,-1.1606,-1.1619,-1.1619,-1.1619,-1.1619,-1.1233,-1.1335,-1.1362,-1.1206,-1.0941,-1.0541,-0.9856,0.0,0.0,-0.8147,-0.7855,-0.7651,-0.7442,-0.8018,-0.8621,-0.9055,-0.9761,-1.0622,-1.1674,-1.2074,-1.2488,-1.3098,-1.3308,-1.3458,0.0,-1.3695,-1.3831,0.0,0.0,-1.4224,-1.4299,-1.4299,-1.4299,-1.4299,-1.4299,-1.4299,-1.4299,-1.4299,-1.4299,-1.4299,-1.4299,-1.4299,-1.4299,-1.4299,-1.4299,-1.4299,-1.4299,0.0,-1.4299,-1.4299,-1.4299,-1.4285,-1.4129,-1.398,-1.3824,-1.3682,-1.3532,-1.3403,-1.3403,-1.3403,-1.3403,-1.3403,-1.3403,-1.3403,-1.3403,-1.3403,-1.3403,-1.3403,-1.3403,-1.3363,-1.3214,-1.3064,-1.2922,-1.2766,-1.261,-1.2501,-1.2501,-1.2501,-1.2501,-1.2501,-1.2501,-1.2481,-1.2413,-1.2338,-1.2264,-1.2189,-1.2047,-1.1925,-1.1843,-1.1769,-1.1701,-1.1626,-1.1619,-1.1619,-1.1619,-1.1619,-1.1619,-1.1619,-1.1619,-1.1619,-1.1619,-1.1619,-1.1619,-1.1619,-1.1619,-1.1619,-1.1619,-1.1619,-1.1619,-1.1619,-1.1694,-1.1728,-1.1275,-1.1389,-1.1504,-1.1233,-1.0894,-1.0399,-0.953,-0.896,-0.8411,-0.7699,-0.7522,-0.7434,-0.7186,-0.7767,-0.8309,-0.8499,-0.9178,-1.0053,-1.1145,-1.1633,-1.2176,0.0,-1.3268,0.0,-1.3654,-1.3777,0.0,0.0,0.0,0.0,-1.4299,-1.4299,-1.4299,-1.4299,-1.4299,-1.4299,-1.4299,-1.4299,-1.4299,-1.4299,-1.4299,-1.4299,-1.4299,-1.4299,-1.4299,-1.4299,-1.4299,0.0,0.0,-1.4299,-1.4299,-1.4285,-1.417,-1.4007,-1.3824,-1.3715,-1.3559,-1.3403,-1.3403,-1.3403,-1.3403,-1.3403,-1.3403,-1.3403,-1.3403,-1.3403,-1.3403,-1.3403,-1.3403,-1.337,-1.3254,-1.3112,-1.2956,-1.2773,-1.261,-1.2501,-1.2501,-1.2501,-1.2501,-1.2501,-1.2501,-1.2501,-1.2501,-1.2413,-1.2338,-1.2338,-1.221,-1.2067,-1.1945,-1.1898,-1.1837,-1.1728,-1.1653,-1.1619,-1.1619,-1.1619,-1.1619,-1.1619,-1.1619,-1.1619,-1.1619,-1.1619,-1.1619,-1.1619,-1.1619,-1.1619,-1.1619,-1.1647,-1.1667,-1.1667,-1.1816,-1.1877,-1.1335,-1.1389,-1.1369,-1.1275,-1.0738,-1.012,-0.9405,0.0,-0.819,-0.7569,-0.7278,-0.7173,-0.7326,-0.746,-0.774,-0.856,-0.8988,-0.9632,-1.0819,-1.1592,-1.2223,-1.2712,0.0,0.0,-1.379,-1.3745,0.0,0.0,0.0,0.0,-1.4299,-1.4299,-1.4299,-1.4299,-1.4299,-1.4299,-1.4299,-1.4299,-1.4299,-1.4299,-1.4299,-1.4299,-1.4299,-1.4299,-1.4299,-1.4299,-1.4299,0.0,0.0,-1.4299,-1.4299,-1.4299,-1.4285,-1.4095,-1.3838,-1.3824,-1.3641,-1.3403,-1.3403,-1.3403,-1.3403,-1.3403,-1.3403,-1.3403,-1.3403,-1.3403,-1.3403,-1.3403,-1.3403,-1.3397,-1.3383,-1.3268,-1.3085,-1.28,-1.261,-1.2501,-1.2501,-1.2501,-1.2501,-1.2501,-1.2501,-1.2501,-1.2501,-1.2488,-1.2481,-1.2481,-1.2359,-1.2264,-1.225,-1.2128,-1.2033,-1.2026,-1.1782,-1.1619,-1.1619,-1.1619,-1.1619,-1.1619,-1.1619,-1.1619,-1.1619,-1.1619,-1.1619,-1.1619,-1.1619,-1.1619,-1.1619,-1.1748,-1.1809,-1.1816,-1.1972,-1.204,-1.1036,-1.1185,-1.1219,-1.107,-1.0582,-0.9964,-0.9364,-0.8621,-0.7991,-0.7475,-0.7251,-0.7112,-0.7217,-0.7312,-0.7543,-0.8085,-0.8269,-0.8737,-0.9849,-1.0493,-1.1185,-1.2081,-1.2664,0.0,0.0,0.0,-1.3966,0.0,0.0,0.0,-1.4299,-1.4299,-1.4299,-1.4299,-1.4299,-1.4299,-1.4299,-1.4299,-1.4299,-1.4299,-1.4299,-1.4299,-1.4299,-1.4299,-1.4299,-1.4299,-1.4299,0.0,0.0,-1.4299,-1.4299,-1.4299,-1.4299,-1.4109,-1.3838,-1.3838,-1.3654,-1.3403,-1.3403,-1.3403,-1.3403,-1.3403,-1.3403,-1.3403,-1.3403,-1.3403,-1.3403,-1.3403,-1.3403,-1.3403,-1.3403,-1.3288,-1.3098,-1.28,-1.2684,-1.2617,-1.2522,-1.2501,-1.2501,-1.2501,-1.2501,-1.2501,-1.2501,-1.2501,-1.2501,-1.2501,-1.2454,-1.2386,-1.2298,-1.2237,-1.2162,-1.2149,-1.187,-1.1748,-1.1748,-1.1667,-1.1619,-1.1619,-1.1619,-1.1619,-1.1619,-1.1619,-1.166,-1.1742,-1.1748,-1.1789,-1.1884,-1.1945,-1.1972,-1.1972,-1.2128,-1.2196,-1.0717,-1.0955,-1.1077,-1.0975,-1.0368,-0.9774,-0.9218,-0.8506,-0.7841,-0.7394,-0.7217,-0.7098,-0.7098,-0.7265,-0.7455,-0.7706,-0.7862,-0.8296,-0.9306,-0.9869,-1.0509,-1.164,0.0,-1.2773,0.0,-1.3722,-1.4021,0.0,0.0,0.0,-1.4299,-1.4299,-1.4299,-1.4299,-1.4299,-1.4299,-1.4299,-1.4299,-1.4299,-1.4299,-1.4299,-1.4299,-1.4299,-1.4299,-1.4299,-1.4299,-1.4299,0.0,0.0,-1.4299,-1.4299,-1.4299,-1.4299,-1.4109,-1.3838,-1.3838,-1.3654,-1.3403,-1.3403,-1.3403,-1.3403,-1.3403,-1.3403,-1.3403,-1.3403,-1.3403,-1.3403,-1.3403,-1.3403,-1.3403,-1.3403,-1.3288,-1.3119,-1.2908,-1.2827,-1.2773,-1.2657,-1.2637,-1.2623,-1.2576,-1.2569,-1.2556,-1.2508,-1.2501,-1.2501,-1.2501,-1.2501,-1.2467,-1.2366,-1.2352,-1.2311,-1.2203,-1.206,-1.1945,-1.1904,-1.1809,-1.1748,-1.1748,-1.1748,-1.1748,-1.1748,-1.1748,-1.1796,-1.1898,-1.1898,-1.1952,-1.2135,-1.2108,-1.2128,-1.2135,-1.2284,-1.2352,-1.046,-1.0717,-1.088,-1.088,-1.0276,-0.9496,-0.8986,-0.8357,-0.7685,-0.7193,-0.7098,-0.7098,-0.7098,-0.7265,-0.7421,-0.7577,-0.7977,-0.8581,-0.9483,-1.0114,-1.0772,0.0,0.0,-1.2305,-1.2908,-1.3634,0.0,0.0,0.0,0.0,-1.4299,-1.4299,-1.4299,-1.4299,-1.4299,-1.4299,-1.4299,-1.4299,-1.4299,-1.4299,-1.4299,-1.4299,-1.4299,-1.4299,-1.4299,0.0,0.0,0.0,0.0,-1.4299,-1.4299,-1.4299,-1.4299,-1.4109,-1.3838,-1.3838,-1.3654,-1.3403,-1.3403,-1.3403,-1.3403,-1.3403,-1.3403,-1.3403,-1.3403,-1.3403,-1.3403,-1.3403,-1.3403,-1.3403,-1.3403,-1.3288,-1.3173,-1.3166,-1.3064,-1.3036,-1.3036,-1.2956,-1.2908,-1.2759,-1.2725,-1.2678,-1.2528,-1.2501,-1.2501,-1.2501,-1.2501,-1.2501,-1.2501,-1.2501,-1.2501,-1.2494,-1.2372,-1.2223,-1.2149,-1.2135,-1.2054,-1.2054,-1.2054,-1.2054,-1.2054,-1.2054,-1.2135,-1.2135,-1.2135,-1.2135,-1.2135,-1.2216,-1.2291,-1.2291,-1.2433,-1.2501,-0.9639,-0.9876,-1.0005,-0.9903,-0.951,-0.9035,-0.8581,-0.8133,-0.7685,-0.7186,-0.7098,-0.7098,-0.7098,-0.7139,-0.74,-0.797,-0.8231,-0.8547,-0.934,-1.0053,0.0,-1.1389,-1.2359,-1.3091,0.0,0.0,0.0,0.0,0.0,0.0,-1.4299,-1.4299,-1.4299,-1.4299,-1.4299,-1.4299,-1.4299,-1.4299,-1.4299,-1.4299,-1.4299,-1.4299,-1.4299,-1.4299,-1.4299,0.0,0.0,0.0,0.0,-1.4299,-1.4299,-1.4292,-1.4183,-1.4021,-1.3831,-1.3729,-1.3573,-1.3403,-1.3403,-1.3403,-1.3403,-1.3403,-1.3403,-1.3403,-1.3403,-1.3403,-1.3403,-1.3403,-1.3403,-1.3403,-1.3403,-1.3363,-1.3302,-1.32,-1.3139,-1.3078,-1.2983,-1.2963,-1.2949,-1.2895,-1.2888,-1.284,-1.2684,-1.2657,-1.2623,-1.2515,-1.2501,-1.2501,-1.2501,-1.2501,-1.2501,-1.2501,-1.2461,-1.2379,-1.223,-1.2121,-1.2135,-1.2135,-1.2135,-1.2135,-1.2135,-1.2135,-1.2108,-1.2216,-1.2216,-1.2264,-1.2366,-1.2413,-1.2433,-1.2433,-1.2481,-1.2501,-0.8974,-0.932,-0.9503,-0.9408,-0.9069,-0.8676,-0.8343,-0.7943,-0.755,-0.7166,-0.7098,-0.7098,-0.7098,-0.7146,-0.74,-0.7929,-0.8113,-0.8465,-0.9266,0.0,0.0,-1.1457,0.0,0.0,0.0,-1.3607,0.0,0.0,0.0,0.0,-1.4129,-1.4129,-1.4156,-1.4211,-1.4272,-1.4299,-1.4299,-1.4299,-1.4299,-1.4299,-1.4299,-1.4299,-1.4299,-1.4299,-1.4299,0.0,0.0,0.0,0.0,-1.4299,-1.4299,-1.4285,-1.4129,-1.398,-1.3824,-1.3682,-1.3532,-1.3403,-1.3403,-1.3403,-1.3403,-1.3403,-1.3403,-1.3403,-1.3403,-1.3403,-1.3403,-1.3403,-1.3403,-1.3403,-1.3403,-1.3403,-1.3376,-1.3281,-1.3261,-1.3234,-1.3146,-1.3125,-1.3112,-1.3051,-1.3044,-1.299,-1.284,-1.282,-1.2766,-1.261,-1.2589,-1.2569,-1.2508,-1.2501,-1.2501,-1.2501,-1.2501,-1.2467,-1.2379,-1.2284,-1.223,-1.223,-1.223,-1.223,-1.223,-1.223,-1.2271,-1.2366,-1.2372,-1.2413,-1.2501,-1.2501,-1.2501,-1.2501,-1.2501,-1.2501,0.0,-0.8927,-0.9266,-0.9259,-0.8832,-0.8384,-0.8292,-0.7822,0.0,-0.7125,-0.7098,-0.7105,-0.7125,-0.7285,-0.7441,-0.7645,-0.7916,-0.8359,0.0,-0.9869,0.0,0.0,-1.242,0.0,-1.2976,-1.3376,0.0,0.0,0.0,0.0,-1.3838,-1.3838,-1.3905,-1.4048,-1.419,-1.4278,-1.4299,-1.4299,-1.4299,-1.4299,-1.4299,-1.4299,-1.4299,-1.4299,-1.4299,0.0,0.0,0.0,0.0,-1.4272,-1.4265,-1.4251,-1.4102,-1.3953,-1.381,-1.3668,-1.3526,-1.3403,-1.3403,-1.3403,-1.3403,-1.3403,-1.3403,-1.3403,-1.3403,-1.3403,-1.3403,-1.3403,-1.3403,-1.3403,-1.3403,-1.3403,-1.3403,-1.3403,-1.3403,-1.3403,-1.3403,-1.3403,-1.3356,-1.3214,-1.3186,-1.3146,-1.3003,-1.2976,-1.2922,-1.2766,-1.2745,-1.2691,-1.2535,-1.2515,-1.2515,-1.2501,-1.2501,-1.2501,-1.2501,-1.2501,-1.2501,-1.2501,-1.2501,-1.2501,-1.2501,-1.2501,-1.2501,-1.2501,-1.2501,-1.2501,-1.2501,-1.2501,-1.2501,-1.2501,-1.2501,-1.2501,-0.7415,0.0,-0.8153,-0.8045,-0.7909,-0.7767,0.0,-0.7521,-0.7326,-0.7125,0.0,-0.7166,-0.7448,-0.7428,-0.7611,-0.833,-0.8608,-0.8946,-0.9721,-1.0873,0.0,-1.261,-1.3017,-1.3261,-1.3295,-1.3498,0.0,0.0,0.0,-1.3838,-1.3838,-1.3838,-1.3858,-1.3892,-1.3926,-1.4061,-1.4299,-1.4299,-1.4299,-1.4299,-1.4299,-1.4299,-1.4299,-1.4299,-1.4299,0.0,0.0,0.0,-1.4116,-1.4,-1.3946,-1.3933,-1.379,-1.3709,-1.3661,-1.3512,-1.3431,-1.3403,-1.3403,-1.3403,-1.3403,-1.3403,-1.3403,-1.3403,-1.3403,-1.3403,-1.3403,-1.3403,-1.3403,-1.3403,-1.3403,-1.3403,-1.3403,-1.3403,-1.3403,-1.3403,-1.3403,-1.3403,-1.339,-1.3356,-1.3349,-1.3302,-1.3152,-1.3125,-1.3071,-1.2929,-1.2908,-1.2854,-1.2698,-1.2678,-1.263,-1.2515,-1.2501,-1.2501,-1.2501,-1.2501,-1.2501,-1.2501,-1.2501,-1.2501,-1.2501,-1.2501,-1.2501,-1.2501,-1.2501,-1.2501,-1.2501,-1.2501,-1.2501,-1.2501,-1.2501,-1.2501,-0.6977,-0.7375,-0.7807,-0.7801,-0.7746,-0.7678,-0.759,-0.7414,-0.7244,0.0,0.0,0.0,-0.7455,-0.7482,-0.7706,-0.8397,-0.875,-0.9262,0.0,0.0,-1.2284,-1.2968,-1.322,-1.3403,0.0,0.0,0.0,0.0,0.0,-1.3641,-1.3641,-1.3641,-1.3675,-1.3743,-1.3743,-1.3858,-1.4089,-1.4089,-1.4089,-1.4089,-1.4089,-1.4089,-1.4089,-1.4089,-1.4089,0.0,0.0,0.0,-1.396,-1.3871,-1.3838,-1.3824,-1.3682,-1.3627,-1.3607,-1.3458,-1.3403,-1.3403,-1.3403,-1.3403,-1.3403,-1.3403,-1.3403,-1.3403,-1.3403,-1.3403,-1.3403,-1.3403,-1.3403,-1.3403,-1.3403,-1.3403,-1.3403,-1.3403,-1.3403,-1.3403,-1.3403,-1.3403,-1.3403,-1.3403,-1.3403,-1.3376,-1.3295,-1.3275,-1.3227,-1.3078,-1.3057,-1.3003,-1.2854,-1.2834,-1.2779,-1.2623,-1.261,-1.2576,-1.2508,-1.2501,-1.2501,-1.2501,-1.2501,-1.2501,-1.2501,-1.2501,-1.2501,-1.2501,-1.2501,-1.2501,-1.2501,-1.2569,-1.261,-1.261,-1.2678,-1.2712,-0.6862,-0.738,-0.7834,-0.7867,-0.7875,-0.7807,-0.778,0.0,0.0,0.0,0.0,0.0,0.0,-0.7631,0.0,0.0,0.0,0.0,-1.1036,-1.1787,-1.2284,-1.2968,-1.32,0.0,-1.3397,0.0,0.0,0.0,0.0,-1.3403,-1.3403,-1.3403,-1.3458,-1.3593,-1.3593,-1.3654,-1.377,-1.3817,-1.3838,-1.3838,-1.3838,-1.3838,-1.3838,-1.3838,-1.3838,-1.3838,0.0,0.0,-1.3804,-1.3783,-1.3777,-1.3763,-1.3641,-1.3593,-1.358,-1.3451,-1.3403,-1.3403,-1.3403,-1.3403,-1.3403,-1.3403,-1.3403,-1.3403,-1.3403,-1.3403,-1.3403,-1.3403,-1.3403,-1.3403,-1.3403,-1.3403,-1.3403,-1.3403,-1.3403,-1.3403,-1.3403,-1.3403,-1.3403,-1.3403,-1.3403,-1.3403,-1.3403,-1.3403,-1.3356,-1.3227,-1.3207,-1.3152,-1.301,-1.299,-1.2935,-1.2779,-1.2766,-1.2712,-1.2583,-1.2569,-1.2569,-1.2569,-1.2528,-1.2501,-1.2501,-1.2501,-1.2501,-1.2501,-1.2522,-1.2535,-1.2535,-1.2691,-1.2766,-1.2766,-1.2901,-1.2963,-0.6957,-0.7409,-0.7753,-0.7529,-0.7645,-0.778,-0.7658,-0.7577,0.0,0.0,0.0,0.0,0.0,-0.8248,-0.8492,0.0,0.0,-1.0419,0.0,0.0,-1.2284,-1.2968,0.0,-1.3261,-1.339,0.0,0.0,0.0,0.0,-1.3403,-1.3403,-1.3403,-1.341,-1.3437,-1.3437,-1.3444,-1.3464,-1.3715,-1.3838,-1.3838,-1.3838,-1.3838,-1.3838,-1.3838,-1.3838,-1.3745,0.0,-1.3661,-1.3654,-1.3519,-1.3464,-1.3464,-1.3444,-1.3437,-1.3431,-1.341,-1.3403,-1.3403,-1.3403,-1.3403,-1.3403,-1.3403,-1.3403,-1.3403,-1.3403,-1.3403,-1.3403,-1.3403,-1.3403,-1.3403,-1.3403,-1.3403,-1.3403,-1.3403,-1.3403,-1.3403,-1.3403,-1.3403,-1.3403,-1.3403,-1.3403,-1.3403,-1.3403,-1.3403,-1.339,-1.337,-1.3363,-1.3308,-1.3159,-1.3139,-1.3085,-1.2942,-1.2929,-1.2915,-1.2895,-1.2888,-1.2888,-1.2888,-1.2644,-1.2501,-1.2501,-1.2501,-1.2501,-1.2501,-1.263,-1.2698,-1.2698,-1.2854,-1.2929,-1.2929,-1.2949,-1.2963,-0.6803,-0.7231,-0.7597,-0.7706,-0.8018,-0.8282,-0.8214,-0.8011,0.0,0.0,0.0,0.0,0.0,0.0,-0.8981,-0.9754,0.0,-1.0989,-1.164,-1.1993,-1.2345,0.0,0.0,-1.32,0.0,0.0,0.0,0.0,0.0,0.0,-1.3403,-1.3403,-1.3403,-1.3403,-1.3403,-1.3403,-1.3403,-1.3532,-1.36,-1.36,-1.36,-1.36,-1.36,-1.36,-1.36,-1.36,0.0,-1.3505,-1.3498,-1.3431,-1.3403,-1.3403,-1.3403,-1.3403,-1.3403,-1.3403,-1.3403,-1.3403,-1.3403,-1.3403,-1.3403,-1.3403,-1.3403,-1.3403,-1.3403,-1.3403,-1.3403,-1.3403,-1.3403,-1.3403,-1.3403,-1.3403,-1.3403,-1.3403,-1.3403,-1.3403,-1.3403,-1.3403,-1.3403,-1.3403,-1.3403,-1.3403,-1.3403,-1.3403,-1.3403,-1.3403,-1.3403,-1.3376,-1.3302,-1.3295,-1.3241,-1.3091,-1.3078,-1.3044,-1.305,-1.2963,-1.2963,-1.2963,-1.2827,-1.2752,-1.2752,-1.2752,-1.2752,-1.2752,-1.282,-1.2854,-1.2854,-1.3003,-1.3078,-1.3078,-1.3159,-1.32,-0.677,-0.7136,-0.7522,-0.7887,-0.8323,-0.8642,-0.8784,-0.8492,0.0,0.0,0.0,0.0,0.0,-0.9001,0.0,-1.05,-1.0995,-1.1416,-1.1823,-1.2121,-1.24,-1.2698,-1.2929,-1.3085,0.0,0.0,0.0,0.0,0.0,0.0,-1.3295,-1.3329,-1.3349,-1.3349,-1.3383,-1.3403,-1.3403,-1.3403,-1.3403,-1.3403,-1.3403,-1.3403,-1.3403,-1.3403,-1.3403,-1.3403,-1.3403,-1.3403,-1.3403,-1.3403,-1.3403,-1.3403,-1.3403,-1.3403,-1.3403,-1.3403,-1.3403,-1.3403,-1.3403,-1.3403,-1.3403,-1.3403,-1.3403,-1.3403,-1.3403,-1.3403,-1.3403,-1.3403,-1.3403,-1.3403,-1.3403,-1.3403,-1.3403,-1.3403,-1.3403,-1.3403,-1.3403,-1.3403,-1.3403,-1.3403,-1.3403,-1.3403,-1.3403,-1.3403,-1.3403,-1.3403,-1.3403,-1.3403,-1.3403,-1.3403,-1.3356,-1.3241,-1.3227,-1.318,-1.3071,-1.3064,-1.3064,-1.3064,-1.2996,-1.2963,-1.2963,-1.2963,-1.2963,-1.2963,-1.2996,-1.301,-1.301,-1.3152,-1.3227,-1.3227,-1.3349,-1.3403,-0.7248,-0.7448,-0.7658,-0.7914,-0.8174,-0.8497,-0.905,-0.8879,0.0,-0.9211,0.0,0.0,0.0,-0.9795,-1.0385,-1.1084,-1.1382,-1.1694,-1.1999,0.0,-1.24,-1.2698,-1.2752,-1.282,0.0,0.0,0.0,0.0,0.0,0.0,-1.299,-1.3119,-1.3186,-1.3186,-1.3329,-1.3403,-1.3403,-1.3403,-1.3403,-1.3403,-1.3403,-1.3403,-1.3403,-1.3403,-1.3403,-1.3403,-1.3403,-1.3403,-1.3403,-1.3403,-1.3403,-1.3403,-1.3403,-1.3403,-1.3403,-1.3403,-1.3403,-1.3403,-1.3403,-1.3403,-1.3403,-1.3403,-1.3403,-1.3403,-1.3403,-1.3403,-1.3403,-1.3403,-1.3403,-1.3403,-1.3403,-1.3403,-1.3403,-1.3403,-1.3403,-1.3403,-1.3403,-1.3403,-1.3403,-1.3403,-1.3403,-1.3403,-1.3403,-1.3403,-1.3403,-1.3403,-1.3403,-1.3403,-1.3403,-1.3403,-1.3397,-1.3383,-1.3383,-1.3376,-1.337,-1.337,-1.337,-1.337,-1.3112,-1.2963,-1.2963,-1.2963,-1.2963,-1.2963,-1.3091,-1.3159,-1.3159,-1.3308,-1.3383,-1.3383,-1.3397,-1.3403,-0.6885,-0.7272,-0.7672,-0.7914,-0.8312,0.0,0.0,-0.9211,-0.9279,-0.9829,-0.9788,0.0,0.0,0.0,-1.069,-1.1166,-1.1491,-1.1823,-1.2033,-1.2271,-1.2461,-1.2576,-1.2671,0.0,0.0,0.0,0.0,0.0,0.0,0.0,-1.2963,-1.301,-1.3044,-1.3044,-1.3098,-1.3173,-1.3261,-1.3261,-1.3308,-1.3403,-1.3403,-1.3403,-1.3403,-1.3403,-1.3403,-1.3403,-1.3403,-1.3403,-1.3403,-1.3403,-1.3403,-1.3403,-1.3403,-1.3403,-1.3403,-1.3403,-1.3403,-1.3403,-1.3403,-1.3403,-1.3403,-1.3403,-1.3403,-1.3403,-1.3403,-1.3403,-1.3403,-1.3403,-1.3403,-1.3403,-1.3403,-1.3403,-1.3403,-1.3403,-1.3403,-1.3403,-1.3403,-1.3403,-1.3403,-1.3403,-1.3403,-1.3403,-1.3403,-1.3403,-1.3403,-1.3403,-1.3403,-1.3403,-1.3403,-1.3403,-1.3403,-1.3403,-1.3403,-1.3403,-1.3403,-1.3403,-1.3403,-1.3403,-1.3295,-1.3234,-1.3234,-1.3234,-1.3234,-1.3234,-1.3288,-1.3315,-1.3315,-1.337,-1.3403,-1.3403,-1.3403,-1.3403,-0.6824,-0.721,-0.7672,-0.7914,0.0,0.0,-0.9429,-0.9557,-0.9761,-1.0365,-1.0283,0.0,0.0,0.0,0.0,0.0,-1.1538,-1.1884,-1.204,-1.2277,-1.2454,-1.2494,-1.2596,0.0,0.0,0.0,0.0,0.0,0.0,0.0,0.0,-1.2861,-1.2888,-1.2888,-1.2935,-1.301,-1.3105,-1.3105,-1.3159,-1.3261,-1.3261,-1.3308,-1.3403,-1.3403,-1.3403,-1.3403,-1.3403,-1.3403,-1.3403,-1.3403,-1.3403,-1.3403,-1.3403,-1.3403,-1.3403,-1.3403,-1.3403,-1.3403,-1.3403,-1.3403,-1.3403,-1.3403,-1.3403,-1.3403,-1.3403,-1.3403,-1.3403,-1.3403,-1.3403,-1.3403,-1.3403,-1.3403,-1.3403,-1.3403,-1.3403,-1.3403,-1.3403,-1.3403,-1.3403,-1.3403,-1.3403,-1.3403,-1.3403,-1.3403,-1.3403,-1.3403,-1.3403,-1.3403,-1.3403,-1.3403,-1.3403,-1.3403,-1.3403,-1.3403,-1.3403,-1.3403,-1.3403,-1.3403,-1.3403,-1.3403,-1.3403,-1.3403,-1.3403,-1.3403,-1.3403,-1.3403,-1.3403,-1.3403,-1.3403,-1.3403,-1.3403,-1.3403,-0.7139,-0.7366,-0.7678,-0.7921,0.0,0.0,-0.9693,-0.9944,-1.0292,-1.0759,-1.0833,-1.0772,-1.0853,0.0,0.0,-1.1138,-1.1538,-1.1884,-1.204,-1.2189,-1.2338,-1.2481,-1.2501,0.0,0.0,0.0,0.0,0.0,0.0,0.0,0.0,-1.2644,-1.2725,-1.2725,-1.2874,-1.3036,-1.3043,-1.3043,-1.3043,-1.2963,-1.2963,-1.3112,-1.3397,-1.3397,-1.3397,-1.3403,-1.3403,-1.3403,-1.3403,-1.3403,-1.3403,-1.3403,-1.3403,-1.3403,-1.3403,-1.3403,-1.3403,-1.3403,-1.3403,-1.3403,-1.3403,-1.3403,-1.3403,-1.3403,-1.3403,-1.3403,-1.3403,-1.3403,-1.3403,-1.3403,-1.3403,-1.3403,-1.3403,-1.3403,-1.3403,-1.3403,-1.3403,-1.3403,-1.3403,-1.3403,-1.3403,-1.3403,-1.3403,-1.3403,-1.3403,-1.3403,-1.3403,-1.3403,-1.3403,-1.3403,-1.3403,-1.3403,-1.3403,-1.3403,-1.3403,-1.3403,-1.3403,-1.3403,-1.3403,-1.3403,-1.3403,-1.3403,-1.3403,-1.3403,-1.3403,-1.3403,-1.3403,-1.3403,-1.3403,-1.3403,-1.3403,-1.3403,-0.6991,-0.7395,0.0,-0.8275,0.0,0.0,0.0,-1.0256,0.0,0.0,-1.1151,-1.1172,-1.1111,0.0,0.0,-1.1301,-1.1525,-1.1735,-1.1877,-1.2033,-1.2182,-1.2332,0.0,0.0,0.0,0.0,0.0,0.0,0.0,0.0,0.0,-1.2549,-1.2569,-1.2569,-1.2617,-1.2691,-1.28,-1.28,-1.2854,-1.2963,-1.2963,-1.3057,-1.3241,-1.3241,-1.3302,-1.3403,-1.3403,-1.3403,-1.3403,-1.3403,-1.3403,-1.3403,-1.3403,-1.3403,-1.3403,-1.3403,-1.3403,-1.3403,-1.3403,-1.3403,-1.3403,-1.3403,-1.3403,-1.3403,-1.3403,-1.3403,-1.3403,-1.3403,-1.3403,-1.3403,-1.3403,-1.3403,-1.3403,-1.3403,-1.3403,-1.3403,-1.3403,-1.3403,-1.3403,-1.3403,-1.3403,-1.3403,-1.3403,-1.3403,-1.3403,-1.3403,-1.3403,-1.3403,-1.3403,-1.3403,-1.3403,-1.3403,-1.3403,-1.3403,-1.3403,-1.3403,-1.3403,-1.3403,-1.3403,-1.3403,-1.3403,-1.3403,-1.3403,-1.3403,-1.3403,-1.3403,-1.3403,-1.3403,-1.3403,-1.3403,-1.3403,-1.3403,-0.7206,-0.774,0.0,-0.8737,-0.9334,-0.9951,-1.0432,0.0,0.0,0.0,0.0,-1.1362,-1.1267,-1.1253,0.0,-1.1375,-1.1518,-1.1667,-1.1809,-1.1911,-1.2026,-1.2182,0.0,0.0,0.0,0.0,0.0,0.0,0.0,0.0,0.0,-1.2501,-1.2501,-1.2501,-1.2501,-1.2549,-1.2637,-1.2637,-1.2684,-1.2779,-1.2779,-1.2854,-1.2996,-1.3064,-1.3139,-1.3227,-1.3227,-1.3227,-1.3227,-1.3227,-1.3227,-1.3227,-1.3227,-1.3227,-1.3227,-1.3227,-1.3227,-1.3227,-1.3227,-1.3227,-1.3234,-1.3295,-1.3308,-1.3322,-1.3383,-1.3403,-1.3403,-1.3403,-1.3403,-1.3403,-1.3403,-1.3403,-1.3403,-1.3403,-1.3403,-1.3403,-1.3403,-1.3403,-1.3403,-1.3403,-1.3403,-1.3403,-1.3403,-1.3403,-1.3403,-1.3403,-1.3403,-1.3403,-1.3403,-1.3403,-1.3403,-1.3403,-1.3403,-1.3403,-1.3403,-1.3403,-1.3403,-1.3403,-1.3403,-1.3403,-1.3403,-1.3403,-1.3403,-1.3403,-1.3403,-1.3403,-1.3403,-1.3403,-1.3403,-1.3403,-1.3403,-1.3403,-0.7672,-0.814,0.0,-0.9266,-0.9666,0.0,-1.0718,-1.105,-1.1226,-1.1518,0.0,-1.1389,-1.1389,-1.1402,-1.1409,-1.1409,-1.1531,-1.1667,-1.1796,-1.1809,-1.187,-1.202,0.0,0.0,0.0,0.0,0.0,0.0,0.0,0.0,0.0,-1.2461,-1.2467,-1.2481,-1.2481,-1.2488,-1.2501,-1.2501,-1.2501,-1.2501,-1.2501,-1.2576,-1.2712,-1.2868,-1.2949,-1.2963,-1.2963,-1.2963,-1.2963,-1.2963,-1.2963,-1.2963,-1.2963,-1.2963,-1.2963,-1.2963,-1.2963,-1.2963,-1.2963,-1.2963,-1.2983,-1.3112,-1.3159,-1.32,-1.3336,-1.339,-1.3403,-1.3403,-1.3403,-1.3403,-1.3403,-1.3403,-1.3403,-1.3403,-1.3403,-1.3403,-1.3403,-1.3403,-1.3403,-1.3403,-1.3403,-1.3403,-1.3403,-1.3403,-1.3403,-1.3403,-1.3403,-1.3403,-1.3403,-1.3403,-1.3403,-1.3403,-1.3403,-1.3403,-1.3403,-1.3403,-1.3403,-1.3403,-1.3403,-1.3403,-1.3403,-1.3403,-1.3403,-1.3403,-1.3403,-1.3403,-1.3403,-1.3403,-1.3403,-1.3403,-1.3403,-1.3403,-0.7556,-0.814,0.0,0.0,-1.0127,-1.0602,-1.0813,-1.09,-1.1043,-1.1226,-1.1328,-1.1389,-1.1389,-1.1491,-1.1572,-1.1572,-1.1599,-1.1633,-1.166,-1.1667,-1.1721,0.0,0.0,0.0,0.0,0.0,0.0,0.0,0.0,0.0,-1.2155,-1.2155,-1.221,-1.2332,-1.2338,-1.2386,-1.2501,-1.2501,-1.2501,0.0,-1.2501,-1.2522,-1.2556,-1.2712,-1.2847,-1.2963,-1.2963,-1.2963,-1.2963,-1.2963,-1.2963,-1.2963,-1.2963,-1.2963,-1.2963,-1.2963,-1.2963,-1.2963,-1.2963,-1.2963,-1.2969,-1.2996,-1.3085,-1.318,-1.3214,-1.3308,-1.3403,-1.3403,-1.3403,-1.3403,-1.3403,-1.3403,-1.3403,-1.3403,-1.3403,-1.3403,-1.3403,-1.3403,-1.3403,-1.3403,-1.3403,-1.3403,-1.3403,-1.3403,-1.3403,-1.3403,-1.3403,-1.3403,-1.3403,-1.3403,-1.3403,-1.3403,-1.3403,-1.3403,-1.3403,-1.3403,-1.3403,-1.3403,-1.3403,-1.3403,-1.3403,-1.3403,-1.3403,-1.3403,-1.3403,-1.3403,-1.3403,-1.3403,-1.3403,-1.3403,-1.3403,-1.3403,-0.7631,0.0,0.0,-0.9917,0.0,-1.0744,-1.0819,-1.0772,-1.086,-1.0934,-1.1124,-1.128,-1.128,-1.1409,-1.1511,-1.1511,-1.1572,-1.1619,-1.1619,-1.1619,-1.1647,0.0,0.0,0.0,0.0,0.0,0.0,0.0,0.0,-1.2135,-1.2135,-1.2135,-1.2101,-1.2176,-1.2182,-1.2216,-1.2291,-1.2366,-1.24,-1.24,-1.2467,-1.2501,-1.2508,-1.2583,-1.2664,-1.2739,-1.2739,-1.2739,-1.2739,-1.2739,-1.2739,-1.2739,-1.2739,-1.2739,-1.2739,-1.2739,-1.2739,-1.2739,-1.2739,-1.2739,-1.2752,-1.2827,-1.2901,-1.299,-1.3132,-1.3227,-1.3308,-1.3376,-1.3403,-1.3403,-1.3403,-1.3403,-1.3403,-1.3403,-1.3403,-1.3403,-1.3403,-1.3403,-1.3403,-1.3403,-1.3403,-1.3403,-1.3403,-1.3403,-1.3403,-1.3403,-1.3403,-1.3403,-1.3403,-1.3403,-1.3403,-1.3403,-1.3403,-1.3403,-1.3403,-1.3403,-1.3403,-1.3403,-1.3403,-1.3403,-1.3403,-1.3403,-1.3403,-1.3403,-1.3403,-1.3403,-1.3403,-1.3403,-1.3403,-1.3403,-1.3403,-1.3403,-0.7556,0.0,-0.9211,-1.0209,-1.0588,0.0,-1.0717,-1.0717,-1.0717,-1.0717,-1.0934,-1.1124,-1.1124,-1.1253,-1.1355,-1.1355,-1.1484,-1.1579,-1.1579,-1.1606,-1.1619,0.0,0.0,0.0,0.0,0.0,0.0,0.0,0.0,-1.1986,-1.1986,-1.1986,-1.1999,-1.202,-1.202,-1.2033,-1.2135,-1.2189,-1.225,-1.225,-1.2393,-1.2467,-1.2467,-1.2488,-1.2501,-1.2501,-1.2501,-1.2501,-1.2501,-1.2501,-1.2501,-1.2501,-1.2501,-1.2501,-1.2501,-1.2501,-1.2501,-1.2501,-1.2501,-1.2501,-1.2522,-1.2651,-1.2712,-1.2773,-1.3024,-1.3132,-1.32,-1.3322,-1.3376,-1.3403,-1.3403,-1.3403,-1.3403,-1.3403,-1.3403,-1.3403,-1.3403,-1.3403,-1.3403,-1.3403,-1.3403,-1.3403,-1.3403,-1.3403,-1.3403,-1.3403,-1.3403,-1.3403,-1.3403,-1.3403,-1.3403,-1.3403,-1.3403,-1.3403,-1.3403,-1.3403,-1.3403,-1.3403,-1.3403,-1.3403,-1.3403,-1.3403,-1.3403,-1.3403,-1.3403,-1.3403,-1.3403,-1.3403,-1.3403,-1.3403,-1.3403,-1.3403,-0.677,0.0,-0.9371,0.0,-1.0514,-1.0717,0.0,0.0,-1.0717,0.0,-1.086,-1.0907,-1.0907,-1.1097,-1.1261,-1.1261,-1.1321,-1.1423,-1.1423,-1.1538,-1.1619,0.0,0.0,0.0,0.0,0.0,0.0,0.0,-1.1667,-1.1681,-1.1681,-1.1681,-1.1735,-1.1857,-1.1864,-1.1925,-1.2135,-1.2081,-1.2169,-1.2094,-1.2244,-1.2318,-1.2325,-1.2447,-1.2501,-1.2501,-1.2501,-1.2501,-1.2501,-1.2501,-1.2501,-1.2501,-1.2501,-1.2501,-1.2501,-1.2501,-1.2501,-1.2501,-1.2501,-1.2501,-1.2508,-1.2528,-1.2623,-1.2739,-1.2779,-1.2969,-1.3173,-1.32,-1.3302,-1.3403,-1.3403,-1.3403,-1.3403,-1.3403,-1.3403,-1.3403,-1.3403,-1.3403,-1.3403,-1.3403,-1.3403,-1.3403,-1.3403,-1.3403,-1.3403,-1.3403,-1.3403,-1.3403,-1.3403,-1.3403,-1.3403,-1.3403,-1.3403,-1.3403,-1.3403,-1.3403,-1.3403,-1.3403,-1.3403,-1.3403,-1.3403,-1.3403,-1.3403,-1.3403,-1.3403,-1.3403,-1.3403,-1.3403,-1.3403,-1.3403,-1.3403,-1.3403,-0.7183,-0.816,-0.9123,0.0,-1.0378,-1.0521,-1.0683,0.0,-1.0717,-1.0717,-1.0772,-1.0819,-1.0819,-1.0941,-1.1043,-1.1043,-1.1165,-1.126,-1.126,-1.1321,-1.1362,0.0,0.0,0.0,0.0,0.0,0.0,0.0,-1.1619,-1.1619,-1.1619,-1.1619,-1.1647,-1.1708,-1.1714,-1.1742,-1.1816,-1.1891,-1.1979,-1.2135,-1.2128,-1.2162,-1.2162,-1.223,-1.2345,-1.2501,-1.2501,-1.2501,-1.2501,-1.2501,-1.2501,-1.2501,-1.2501,-1.2501,-1.2501,-1.2501,-1.2501,-1.2501,-1.2501,-1.2501,-1.2501,-1.2501,-1.2549,-1.2617,-1.2705,-1.282,-1.2963,-1.3125,-1.322,-1.3295,-1.3376,-1.3403,-1.3403,-1.3403,-1.3403,-1.3403,-1.3403,-1.3403,-1.3403,-1.3403,-1.3403,-1.3403,-1.3403,-1.3403,-1.3403,-1.3403,-1.3403,-1.3403,-1.3403,-1.3403,-1.3403,-1.3403,-1.3403,-1.3403,-1.3403,-1.3403,-1.3403,-1.3403,-1.3403,-1.3403,-1.3403,-1.3403,-1.3403,-1.3403,-1.3403,-1.3403,-1.3403,-1.3403,-1.3403,-1.3403,-1.3403,-1.3403,0.0,0.0,-0.8615,-0.9625,-1.0025,-1.0243,0.0,0.0,-1.067,0.0,-1.0717,-1.0717,-1.0717,-1.0812,-1.0826,-1.0826,-1.1016,-1.1111,-1.1111,-1.1138,0.0,0.0,0.0,0.0,0.0,0.0,0.0,0.0,-1.1504,-1.1518,-1.1558,-1.1558,-1.1579,-1.1619,-1.1619,-1.1619,-1.1619,-1.1728,-1.1837,-1.1952,-1.1986,-1.2006,-1.2006,-1.2047,-1.2182,-1.2393,-1.2433,-1.2467,-1.2501,-1.2501,-1.2501,-1.2501,-1.2501,-1.2501,-1.2501,-1.2501,-1.2501,-1.2501,-1.2501,-1.2501,-1.2501,-1.2501,-1.2501,-1.2522,-1.2637,-1.2698,-1.2786,-1.3044,-1.3146,-1.3207,-1.3363,-1.3403,-1.3403,-1.3403,-1.3403,-1.3403,-1.3403,-1.3403,-1.3403,-1.3403,-1.3403,-1.3403,-1.3403,-1.3403,-1.3403,-1.3403,-1.3403,-1.3403,-1.3403,-1.3403,-1.3403,-1.3403,-1.3403,-1.3403,-1.3403,-1.3403,-1.3403,-1.3403,-1.3403,-1.3403,-1.3403,-1.3403,-1.3403,-1.3403,-1.3403,-1.3403,-1.3403,-1.3403,-1.3403,-1.3403,-1.3403,-1.3403,0.0,-0.7102,0.0,-0.8567,-0.932,0.0,0.0,0.0,-1.0548,-1.069,-1.0717,-1.0717,-1.0717,-1.0724,-1.0731,-1.0731,-1.086,-1.0894,-1.0894,-1.1077,0.0,0.0,0.0,0.0,0.0,0.0,0.0,0.0,-1.1185,-1.1253,-1.1396,-1.1402,-1.147,-1.1613,-1.1619,-1.1619,-1.1619,-1.1626,-1.1633,-1.1647,-1.1775,-1.1843,-1.185,-1.1993,-1.2149,-1.2094,-1.2237,-1.2379,-1.2501,-1.2501,-1.2501,-1.2501,-1.2501,-1.2501,-1.2501,-1.2501,-1.2501,-1.2501,-1.2501,-1.2501,-1.2501,-1.2501,-1.2501,-1.2501,-1.2508,-1.2617,-1.2766,-1.2929,-1.3071,-1.3207,-1.3363,-1.3403,-1.3403,-1.3403,-1.3403,-1.3403,-1.3403,-1.3403,-1.3403,-1.3403,-1.3403,-1.3403,-1.3403,-1.3403,-1.3403,-1.3403,-1.3403,-1.3403,-1.3403,-1.3403,-1.3403,-1.3403,-1.3403,-1.3403,-1.3403,-1.3403,-1.3403,-1.3403,-1.3403,-1.3403,-1.3403,-1.3403,-1.3403,-1.3403,-1.3403,-1.3403,-1.3403,-1.3403,-1.3403,-1.3403,-1.3403,-1.3403,0.0,0.0,0.0,-0.8029,-0.8716,-0.9334,-0.9632,-1.0114,-1.048,-1.0446,-1.0588,-1.0717,-1.0717,-1.0717,-1.0717,-1.0717,-1.0765,-1.0806,-1.0806,-1.0846,0.0,0.0,0.0,0.0,0.0,0.0,0.0,0.0,0.0,-1.1185,-1.124,-1.1246,-1.1314,-1.147,-1.147,-1.1518,-1.1619,-1.1619,-1.1619,-1.1619,-1.1674,-1.1694,-1.1694,-1.1755,-1.183,-1.1918,-1.1972,-1.2135,-1.2366,-1.2366,-1.242,-1.2501,-1.2501,-1.2501,-1.2501,-1.2501,-1.2501,-1.2501,-1.2501,-1.2501,-1.2501,-1.2501,-1.2501,-1.2501,-1.2501,-1.2542,-1.2637,-1.2888,-1.2996,-1.3091,-1.3336,-1.3403,-1.3403,-1.3403,-1.3403,-1.3403,-1.3403,-1.3403,-1.3403,-1.3403,-1.3403,-1.3403,-1.3403,-1.3403,-1.3403,-1.3403,-1.3403,-1.3403,-1.3403,-1.3403,-1.3403,-1.3403,-1.3403,-1.3403,-1.3403,-1.3403,-1.3403,-1.3403,-1.3403,-1.3403,-1.3403,-1.3403,-1.3403,-1.3403,-1.3403,-1.3403,-1.3403,-1.3403,-1.3403,-1.3403,-1.3403,-1.3403,-0.602,0.0,0.0,0.0,0.0,-0.8567,-0.9171,0.0,-1.0059,-1.0114,-1.0399,-1.0643,-1.0643,-1.0683,-1.0717,-1.0717,-1.0717,-1.0717,-1.0717,-1.0717,0.0,0.0,0.0,0.0,0.0,0.0,0.0,0.0,0.0,0.0,-1.109,-1.109,-1.1158,-1.1307,-1.1314,-1.1389,-1.1545,-1.1545,-1.1565,-1.1619,-1.1619,-1.1619,-1.1619,-1.1619,-1.1674,-1.1762,-1.1762,-1.1932,-1.221,-1.221,-1.2298,-1.2433,-1.2433,-1.2461,-1.2501,-1.2501,-1.2501,-1.2501,-1.2501,-1.2501,-1.2501,-1.2501,-1.2501,-1.2501,-1.2501,-1.2501,-1.2556,-1.2813,-1.2922,-1.3017,-1.3261,-1.3363,-1.3403,-1.3403,-1.3403,-1.3403,-1.3403,-1.3403,-1.3403,-1.3403,-1.3403,-1.3403,-1.3403,-1.3403,-1.3403,-1.3403,-1.3403,-1.3403,-1.3403,-1.3403,-1.3403,-1.3403,-1.3403,-1.3403,-1.3403,-1.3403,-1.3403,-1.3403,-1.3403,-1.3403,-1.3403,-1.3403,-1.3403,-1.3403,-1.3403,-1.3403,-1.3403,-1.3403,-1.3403,-1.3403,-1.3403,-1.3403,0.0,0.0,0.0,0.0,0.0,0.0,-0.8879,0.0,-0.9303,-0.97,-1.0148,-1.0466,-1.0473,-1.0609,-1.0711,-1.0711,-1.0717,-1.0717,-1.0717,-1.0651,0.0,0.0,0.0,0.0,0.0,0.0,0.0,0.0,-0.9709,-1.0785,-1.0867,-1.088,-1.1016,-1.1151,-1.1227,-1.1233,-1.1382,-1.1382,-1.1463,-1.1613,-1.1613,-1.1613,-1.1619,-1.1619,-1.1619,-1.1619,-1.1619,-1.1782,-1.2121,-1.2054,-1.2149,-1.2284,-1.2291,-1.2372,-1.2494,-1.2501,-1.2501,-1.2501,-1.2501,-1.2501,-1.2501,-1.2501,-1.2501,-1.2501,-1.2501,-1.2501,-1.2535,-1.2684,-1.284,-1.2996,-1.3139,-1.3288,-1.3403,-1.3403,-1.3403,-1.3403,-1.3403,-1.3403,-1.3403,-1.3403,-1.3403,-1.3403,-1.3403,-1.3403,-1.3403,-1.3403,-1.3403,-1.3403,-1.3403,-1.3403,-1.3403,-1.3403,-1.3403,-1.3403,-1.3403,-1.3403,-1.3403,-1.3403,-1.3403,-1.3403,-1.3403,-1.3403,-1.3403,-1.3403,-1.3403,-1.3403,-1.3403,-1.3403,-1.3403,-1.3403,-1.3403,-1.3403,-0.5806,0.0,0.0,0.0,0.0,0.0,0.0,0.0,-0.8506,-0.9013,-0.9456,-0.9788,-1.0051,-1.0385,-1.0555,-1.0555,-1.0649,-1.0717,-1.0717,-0.9576,0.0,0.0,0.0,0.0,0.0,0.0,0.0,0.0,-1.0452,-1.0738,-1.0778,-1.082,-1.09,-1.1002,-1.1111,-1.1255,-1.1226,-1.1226,-1.1301,-1.1457,-1.1457,-1.1511,-1.1619,-1.1619,-1.1619,-1.1619,-1.1619,-1.1667,-1.1748,-1.185,-1.1986,-1.2135,-1.2244,-1.2318,-1.2359,-1.2467,-1.2501,-1.2501,-1.2501,-1.2501,-1.2501,-1.2501,-1.2501,-1.2501,-1.2501,-1.2501,-1.2535,-1.2684,-1.284,-1.3017,-1.3275,-1.337,-1.3403,-1.3403,-1.3403,-1.3403,-1.3403,-1.3403,-1.3403,-1.3403,-1.3403,-1.3403,-1.3403,-1.3403,-1.3403,-1.3403,-1.3403,-1.3403,-1.3403,-1.3403,-1.3403,-1.3403,-1.3403,-1.3403,-1.3403,-1.3403,-1.3403,-1.3403,-1.3403,-1.3403,-1.3403,-1.3403,-1.3403,-1.3403,-1.3403,-1.3403,-1.3403,-1.3403,-1.3403,-1.3403,-1.3403,-1.3403,-0.6146,-0.6252,-0.6409,0.0,0.0,0.0,-0.722,-0.7597,-0.795,0.0,-0.9035,-0.9388,-0.9707,-0.9964,-1.0161,-1.0283,-1.0439,-1.0582,-1.0704,-0.9172,0.0,0.0,0.0,0.0,0.0,-0.6494,-0.7031,-0.7365,-0.8035,-0.8773,-0.951,-0.9649,-1.0034,-1.0786,-1.0934,-1.1009,-1.107,-1.107,-1.1145,-1.1294,-1.1362,-1.1436,-1.1525,-1.1592,-1.1619,-1.1619,-1.1619,-1.1619,-1.1626,-1.1708,-1.183,-1.1972,-1.2067,-1.2176,-1.2298,-1.2386,-1.2447,-1.2501,-1.2501,-1.2501,-1.2501,-1.2501,-1.2501,-1.2501,-1.2501,-1.2501,-1.2522,-1.261,-1.2793,-1.3017,-1.3247,-1.3356,-1.3403,-1.3403,-1.3403,-1.3403,-1.3403,-1.3403,-1.3403,-1.3403,-1.3403,-1.3403,-1.3403,-1.3403,-1.3403,-1.3403,-1.3403,-1.3403,-1.3403,-1.3403,-1.3403,-1.3403,-1.3403,-1.3403,-1.3403,-1.3403,-1.3403,-1.3403,-1.3403,-1.3403,-1.3403,-1.3403,-1.3403,-1.3403,-1.3403,-1.3403,-1.3403,-1.3403,-1.3403,-1.3403,-1.3403,-1.3403,-0.6593,-0.66,-0.6654,0.0,0.0,0.0,-0.7434,-0.7475,-0.7495,0.0,-0.8648,-0.905,-0.9191,-0.9381,-0.9598,-0.9795,-0.9893,-1.0082,-1.032,-0.8828,0.0,0.0,0.0,0.0,-0.2819,-0.4158,-0.4492,-0.3088,-0.4492,-0.6097,-0.7631,-0.7897,-0.8767,-1.0319,-1.0585,-1.0785,-1.0853,-1.0853,-1.0995,-1.1138,-1.1274,-1.1362,-1.1396,-1.1531,-1.1606,-1.1619,-1.1619,-1.1619,-1.1619,-1.1619,-1.1694,-1.1809,-1.1823,-1.1999,-1.2244,-1.2277,-1.2372,-1.2481,-1.2494,-1.2501,-1.2424,-1.2269,-1.2185,-1.2108,-1.1876,-1.1798,-1.1798,-1.1811,-1.2082,-1.2321,-1.2469,-1.2604,-1.2625,-1.2637,-1.281,-1.2982,-1.2982,-1.3231,-1.3403,-1.3403,-1.3403,-1.3403,-1.3403,-1.3403,-1.3403,-1.3403,-1.3403,-1.3403,-1.3403,-1.3403,-1.3403,-1.3403,-1.3403,-1.3403,-1.3403,-1.3403,-1.3403,-1.3403,-1.3403,-1.3403,-1.3403,-1.3403,-1.3403,-1.3403,-1.3403,-1.3403,-1.3403,-1.3403,-1.3403,-1.3403,-1.3403,-1.3403,-0.7045,-0.7102,0.0,0.0,0.0,0.0,-0.6763,-0.6783,-0.6939,0.0,-0.7429,-0.7644,-0.8157,-0.8621,-0.8906,-0.896,-0.8425,-0.804,-0.8318,-0.6916,0.0,0.0,0.0,0.0,-0.2618,-0.3021,-0.3689,-0.476,-0.5228,-0.5563,-0.5897,-0.7231,-0.8163,-0.8501,-0.9915,-1.0731,-1.0765,-1.0765,-1.0839,-1.0989,-1.1023,-1.1158,-1.1396,-1.1423,-1.1504,-1.1619,-1.1619,-1.1619,-1.1619,-1.1619,-1.1633,-1.1674,-1.1789,-1.187,-1.1952,-1.2196,-1.2311,-1.2345,-1.2461,-1.2501,-1.2192,-1.0546,-0.9998,-0.9687,-0.805,-0.7501,-0.7517,-0.7665,-0.7711,-0.7777,-0.7942,-0.7999,-0.8028,-0.8023,-0.9373,-1.0632,-1.0632,-1.2139,-1.3403,-1.3403,-1.3403,-1.3403,-1.3403,-1.3403,-1.3403,-1.3403,-1.3403,-1.3403,-1.3403,-1.3403,-1.3403,-1.3403,-1.3403,-1.3403,-1.3403,-1.3403,-1.3403,-1.3403,-1.3403,-1.3403,-1.3403,-1.3403,-1.3403,-1.3403,-1.3403,-1.3403,-1.3403,-1.3403,-1.3403,-1.3403,-1.3403,-1.3403,-0.7323,0.0,0.0,-0.7292,0.0,0.0,0.0,-0.6858,-0.6851,-0.7366,-0.7253,-0.7253,-0.7779,-0.8113,-0.8309,-0.8465,-0.775,-0.7166,-0.7155,-0.5365,-0.3743,0.0,0.0,0.0,-0.1252,-0.1325,-0.1734,-0.2617,-0.2685,-0.3088,-0.4024,-0.4891,-0.616,-0.7964,-0.89,-0.9775,-1.0717,-1.0717,-1.0758,-1.0766,-1.0847,-1.0961,-1.1172,-1.1321,-1.1436,-1.1511,-1.1586,-1.1619,-1.1619,-1.1619,-1.1619,-1.1626,-1.1694,-1.1769,-1.185,-1.2006,-1.2155,-1.2298,-1.2372,-1.244,-1.2185,-1.0075,-0.9376,-0.8983,-0.6956,-0.6332,-0.6342,-0.6377,-0.6415,-0.6539,-0.6616,-0.6615,-0.668,-0.6718,-0.7508,-0.8373,-0.8373,-0.929,-1.0382,-1.1469,-1.1718,-1.2139,-1.3231,-1.3403,-1.3403,-1.3403,-1.3403,-1.3403,-1.3403,-1.3403,-1.3403,-1.3403,-1.3403,-1.3403,-1.3403,-1.3403,-1.3403,-1.3403,-1.3403,-1.3403,-1.3403,-1.3403,-1.3403,-1.3403,-1.3403,-1.3403,-1.3403,-1.3403,-1.3403,-1.3403,-1.3403,-1.3403,0.0,0.0,0.0,0.0,0.0,-0.7301,0.0,0.0,0.0,-0.7489,-0.7305,0.0,0.0,0.0,0.0,0.0,0.0,0.0,0.0,-0.4098,0.0,0.0,0.0,0.0,0.0,-0.0193,-0.0261,0.0,-0.0199,-0.0863,-0.2139,-0.2481,-0.4024,-0.6894,-0.7298,-0.8169,-0.9649,-0.9649,-0.9649,-0.9715,-0.9759,-0.9826,-0.9857,-1.014,-1.0269,-1.0324,-1.0435,-1.0503,-1.0455,-1.0455,-1.0455,-1.0527,-1.1325,-1.1687,-1.1796,-1.1823,-1.2006,-1.225,-1.2277,-1.2149,-1.156,-0.9454,-0.8279,-0.7267,-0.563,-0.5086,-0.5086,-0.5086,-0.5195,-0.5235,-0.5249,-0.5327,-0.5406,-0.5417,-0.5716,-0.6013,-0.6096,-0.6356,-0.7201,-0.904,-0.9378,-1.0294,-1.2982,-1.3403,-1.3403,-1.3403,-1.3403,-1.3403,-1.3403,-1.3403,-1.3403,-1.3403,-1.3403,-1.3403,-1.3403,-1.3403,-1.3403,-1.3403,-1.3403,-1.3403,-1.3403,-1.3403,-1.3403,-1.3403,-1.3403,-1.3403,-1.3403,-1.3403,-1.3403,-1.3403,-1.3403,-1.3403,0.0,0.0,0.0,0.0,-0.8312,0.0,0.0,0.0,-0.7204,-0.6892,0.0,0.0,0.0,0.0,0.0,0.0,0.0,0.0,-0.5121,-0.3315,-0.1924,-0.2067,0.0,0.0,0.0,-0.098,-0.1176,-0.0065,-0.1011,-0.1203,-0.0329,-0.1801,-0.2887,-0.3287,-0.4827,-0.5763,-0.603,-0.603,-0.603,-0.603,-0.6042,-0.6084,-0.6221,-0.624,-0.6333,-0.6406,-0.6417,-0.6463,-0.646,-0.646,-0.646,-0.6821,-1.0233,-1.1633,-1.166,-1.1782,-1.1938,-1.2108,-1.2244,-1.114,-0.9376,-0.7345,-0.4149,-0.102,-0.0785,-0.0706,-0.0706,-0.0706,-0.0707,-0.0709,-0.0717,-0.0721,-0.0724,-0.0731,-0.2298,-0.3718,-0.3803,-0.5327,-0.6784,-0.7034,-0.7121,-0.8457,-1.2644,-1.3403,-1.3403,-1.3403,-1.3403,-1.3403,-1.3403,-1.3403,-1.3403,-1.3403,-1.3403,-1.3403,-1.3403,-1.3403,-1.3403,-1.3403,-1.3403,-1.3403,-1.3403,-1.3403,-1.3403,-1.3403,-1.3403,-1.3403,-1.3403,-1.3403,-1.3403,-1.3403,-1.3403,-1.3403,0.0,0.0,0.0,0.0,0.0,0.0,-0.5484,0.0,-0.6083,0.0,0.0,0.0,0.0,0.0,0.0,0.0,-0.5079,0.0,0.0,0.0,-0.2624,0.0,0.0,0.0,0.0,0.0,0.0,0.0,-0.0491,-0.0559,0.0,-0.0725,-0.1599,-0.2685,-0.3423,-0.4359,-0.5362,-0.5429,-0.5429,-0.5429,-0.5429,-0.5446,-0.5477,-0.5587,-0.5598,-0.5701,-0.5746,-0.5812,-0.5808,-0.5808,-0.5808,-0.5953,-0.7621,-0.8203,-0.8208,-0.8319,-0.8401,-0.8582,-0.8615,-0.8188,-0.7277,-0.515,-0.2429,0.0,0.0,0.0,0.0,0.0,0.0,0.0,0.0,0.0,0.0,0.0,-0.0735,-0.1405,-0.1405,-0.2167,-0.3191,-0.4444,-0.4779,-0.5784,-0.8957,-1.0549,-1.189,-1.3231,-1.3403,-1.3403,-1.3403,-1.3403,-1.3403,-1.3403,-1.3403,-1.3403,-1.3403,-1.3403,-1.3403,-1.3403,-1.3403,-1.3403,-1.3403,-1.3403,-1.3403,-1.3403,-1.3403,-1.3403,-1.3403,-1.3403,-1.3403,-1.3403,-1.3403,-1.3403,-0.3879,0.0,0.0,0.0,0.0,0.0,0.0,0.0,0.0,0.0,0.0,0.0,0.0,0.0,0.0,0.0,0.0,-0.5554,0.0,0.0,0.0,0.0,0.0,0.0,0.0,0.0,0.0,0.0,0.0,-0.0357,0.0,0.0,-0.0591,-0.1936,-0.1943,-0.2618,-0.389,-0.389,-0.389,-0.389,-0.389,-0.389,-0.3892,-0.3997,-0.4045,-0.41,-0.4158,-0.4213,-0.4194,-0.4208,-0.4216,-0.4216,-0.4216,-0.4216,-0.4361,-0.5373,-0.5856,-0.5998,-0.5978,-0.5758,-0.508,-0.2964,-0.1254,0.0,0.0,0.0,0.0,0.0,0.0,0.0,0.0,0.0,0.0,0.0,0.0,0.0,0.0,0.0,-0.0505,-0.21,-0.2436,-0.3191,-0.5449,-0.7622,-0.9878,-1.2139,-1.2478,-1.2727,-1.3321,-1.3403,-1.3403,-1.3403,-1.3403,-1.3403,-1.3403,-1.3403,-1.3403,-1.3403,-1.3403,-1.3403,-1.3403,-1.3403,-1.3403,-1.3403,-1.3403,-1.3424,-1.3464,-1.3464,-1.3485,-1.3519,-1.3485,-1.3464,0.0,0.0,0.0,-0.4334,0.0,0.0,0.0,0.0,-0.3647,0.0,0.0,0.0,0.0,0.0,0.0,-0.6671,0.0,0.0,0.0,0.0,0.0,0.0,0.0,0.0,0.0,0.0,0.0,0.0,-0.1072,0.0,-0.006,0.0,0.0,-0.0066,-0.0067,-0.0135,-0.0202,-0.0202,-0.0202,-0.0202,-0.0202,-0.0202,-0.0202,-0.0202,-0.0204,-0.0206,-0.0209,-0.0212,-0.0215,-0.0218,-0.0219,-0.0219,-0.0219,-0.0219,-0.0656,-0.4434,-0.5856,-0.5987,-0.5991,-0.4742,-0.2853,-0.0782,-0.0079,0.0,0.0,0.0,0.0,0.0,0.0,0.0,0.0,0.0,0.0,0.0,0.0,0.0,0.0,0.0,0.0,-0.0084,-0.0084,-0.0842,-0.3107,-0.5365,-0.7535,-0.9795,-1.0128,-1.0882,-1.3148,-1.3403,-1.3403,-1.3403,-1.3403,-1.3403,-1.3403,-1.3403,-1.3403,-1.3403,-1.3403,-1.3403,-1.3403,-1.3403,-1.3403,-1.3403,-1.3403,-1.3471,-1.362,-1.362,-1.3695,-1.3824,-1.3688,-1.362,0.0,0.0,-0.1663,-0.1457,0.0,0.0,0.0,0.0,0.0,0.0,0.0,0.0,0.0,0.0,-0.5273,-0.4791,-0.5588,0.0,0.0,0.0,0.0,0.0,0.0,0.0,0.0,0.0,0.0,0.0,-0.0784,0.0,0.0,0.0,0.0,0.0,0.0,0.0,0.0,0.0,0.0,0.0,0.0,0.0,0.0,0.0,0.0,0.0,0.0,0.0,0.0,0.0,0.0,0.0,0.0,0.0,-0.0146,-0.1457,-0.197,-0.2054,-0.1997,-0.1585,-0.0925,-0.0232,0.0,0.0,0.0,0.0,0.0,0.0,0.0,0.0,0.0,0.0,0.0,0.0,0.0,0.0,0.0,0.0,0.0,0.0,0.0,-0.0253,-0.1009,-0.1765,-0.4027,-0.929,-1.0044,-1.0798,-1.3148,-1.3403,-1.3403,-1.3403,-1.3403,-1.3403,-1.3403,-1.3403,-1.3403,-1.3403,-1.3403,-1.3403,-1.3403,-1.3403,-1.3451,-1.3553,-1.3553,-1.3627,-1.377,-1.377,-1.379,-1.3844,-1.3899,-1.3865,0.0,0.0,0.0,0.0,-0.0585,0.0,-0.0154,0.0,-0.1145,0.0,0.0,0.0,0.0,0.0,0.0,-0.432,-0.5729,0.0,0.0,-0.62,0.0,0.0,0.0,0.0,0.0,0.0,-0.2035,-0.1086,-0.04,0.0,0.0,0.0,0.0,0.0,0.0,0.0,0.0,0.0,0.0,0.0,0.0,0.0,0.0,0.0,0.0,0.0,0.0,0.0,0.0,0.0,0.0,0.0,0.0,0.0,0.0,0.0,0.0,0.0,0.0,0.0,0.0,0.0,0.0,0.0,0.0,0.0,0.0,0.0,0.0,0.0,0.0,0.0,0.0,0.0,0.0,0.0,0.0,0.0,0.0,0.0,0.0,0.0,0.0,0.0,-0.1765,-0.6867,-0.8373,-0.9628,-1.189,-1.2893,-1.3403,-1.3403,-1.3403,-1.3403,-1.3403,-1.3403,-1.3403,-1.3403,-1.3403,-1.3403,-1.3403,-1.3451,-1.3532,-1.3627,-1.3682,-1.3777,-1.3926,-1.3926,-1.3953,-1.4007,-1.4109,-1.4102]}]]